[[{"header":{"parameterUnit":"m.s-1","parameterCategory":1,"la1":30.6,"la2":29.2853,"lo1":-89.7004,"lo2":-87.6739,"dy":0.0162,"dx":0.0183,"nx":112,"ny":82,"refTime":"2025-08-17T12:00:00:Z","depth":0,"parameterNumber":2,"parameterNumberName":"U-component_of_WINDS"},"data":[0.0,0.0,0.0,0.0,0.0,0.0,0.0,0.0,0.0,0.0,0.0,0.0,0.0,0.0,0.0,0.0,0.0,0.0,0.0,0.0,0.0,0.0,0.0,0.0,0.0,0.0,0.0,0.0,0.0,0.0,0.0,0.0,0.0,0.0,0.0,0.0,0.0,0.0,0.0,0.0,0.0,0.0,0.0,0.0,0.0,0.0,0.0,0.0,0.0,0.0,0.0,0.0,0.0,0.0,0.0,0.0,0.0,0.0,0.0,0.0,0.0,0.0,0.0,0.0,0.0,0.0,0.0,0.0,0.0,0.0,0.0,0.0,0.0,0.0,0.0,0.0,0.0,0.0,0.0,0.0,0.0,0.0,0.0,0.0,0.0,0.0,0.0,0.0,0.0,0.0,-1.2796,-1.2766,-1.2221,-1.1799,-1.1681,-1.2724,-1.3183,-1.2628,0.0,0.0,0.0,0.0,0.0,0.0,0.0,0.0,0.0,0.0,0.0,0.0,0.0,0.0,0.0,0.0,0.0,0.0,0.0,0.0,0.0,0.0,0.0,0.0,0.0,0.0,0.0,0.0,0.0,0.0,0.0,0.0,0.0,0.0,0.0,0.0,0.0,0.0,0.0,0.0,0.0,0.0,0.0,0.0,0.0,0.0,0.0,0.0,0.0,0.0,0.0,0.0,0.0,0.0,0.0,0.0,0.0,0.0,0.0,0.0,0.0,0.0,0.0,0.0,0.0,0.0,0.0,0.0,0.0,0.0,0.0,0.0,0.0,0.0,0.0,0.0,0.0,0.0,0.0,0.0,0.0,0.0,0.0,0.0,0.0,0.0,0.0,0.0,0.0,0.0,0.0,0.0,0.0,0.0,0.0,0.0,0.0,0.0,0.0,0.0,0.0,0.0,0.0,0.0,-1.2701,-1.227,-1.1867,-1.1837,-1.2321,-1.3061,-1.3498,-1.35,0.0,0.0,0.0,0.0,0.0,0.0,0.0,0.0,0.0,0.0,0.0,0.0,0.0,0.0,0.0,0.0,0.0,0.0,0.0,0.0,0.0,0.0,0.0,0.0,0.0,0.0,0.0,0.0,0.0,0.0,0.0,0.0,0.0,0.0,0.0,0.0,0.0,0.0,0.0,0.0,0.0,0.0,0.0,0.0,0.0,0.0,0.0,0.0,0.0,0.0,0.0,0.0,0.0,0.0,0.0,0.0,0.0,0.0,0.0,0.0,0.0,0.0,0.0,0.0,0.0,0.0,0.0,0.0,0.0,0.0,0.0,0.0,0.0,0.0,0.0,0.0,0.0,0.0,0.0,0.0,0.0,0.0,0.0,0.0,0.0,0.0,0.0,0.0,0.0,0.0,0.0,0.0,0.0,0.0,0.0,0.0,0.0,0.0,0.0,0.0,0.0,0.0,0.0,-1.2555,-1.2627,-1.2157,-1.1807,-1.1704,-1.1999,-1.2923,-1.3451,-1.3345,-1.3756,0.0,0.0,0.0,0.0,0.0,0.0,0.0,0.0,0.0,0.0,0.0,0.0,0.0,0.0,0.0,0.0,0.0,0.0,0.0,0.0,0.0,0.0,0.0,0.0,0.0,0.0,0.0,0.0,0.0,0.0,0.0,0.0,0.0,0.0,0.0,0.0,0.0,0.0,0.0,0.0,0.0,0.0,0.0,0.0,0.0,0.0,0.0,0.0,0.0,0.0,0.0,0.0,0.0,0.0,0.0,0.0,0.0,0.0,0.0,0.0,0.0,0.0,0.0,0.0,0.0,0.0,0.0,0.0,0.0,0.0,0.0,0.0,0.0,0.0,0.0,0.0,0.0,0.0,0.0,0.0,0.0,0.0,0.0,0.0,0.0,0.0,0.0,0.0,0.0,0.0,0.0,0.0,0.0,0.0,0.0,0.0,0.0,0.0,0.0,0.0,0.0,0.0,-1.2807,-1.2547,-1.2078,-1.1805,-1.1636,-1.1636,-1.286,-1.3485,-1.3074,-1.3733,0.0,0.0,0.0,0.0,0.0,0.0,0.0,0.0,0.0,0.0,0.0,0.0,0.0,0.0,0.0,0.0,0.0,0.0,0.0,0.0,0.0,0.0,0.0,0.0,0.0,0.0,0.0,0.0,0.0,0.0,0.0,0.0,0.0,0.0,0.0,0.0,0.0,0.0,0.0,0.0,0.0,0.0,0.0,0.0,0.0,0.0,0.0,0.0,0.0,0.0,0.0,0.0,0.0,0.0,0.0,0.0,0.0,0.0,0.0,0.0,0.0,0.0,0.0,0.0,0.0,0.0,0.0,0.0,0.0,0.0,0.0,0.0,0.0,0.0,0.0,0.0,0.0,0.0,0.0,0.0,0.0,0.0,0.0,0.0,0.0,0.0,0.0,0.0,0.0,0.0,0.0,0.0,0.0,0.0,0.0,0.0,0.0,0.0,0.0,0.0,0.0,0.0,-1.2753,-1.2547,-1.1893,-1.1805,-1.1753,-1.1702,-1.3149,-1.3824,-1.3302,-1.4077,0.0,0.0,0.0,0.0,0.0,0.0,0.0,0.0,0.0,0.0,0.0,0.0,0.0,0.0,0.0,0.0,0.0,0.0,0.0,0.0,0.0,0.0,0.0,0.0,0.0,0.0,0.0,0.0,0.0,0.0,0.0,0.0,0.0,0.0,0.0,0.0,0.0,0.0,0.0,0.0,0.0,0.0,0.0,0.0,0.0,0.0,0.0,0.0,0.0,0.0,0.0,0.0,0.0,0.0,0.0,0.0,0.0,0.0,0.0,0.0,0.0,0.0,0.0,0.0,0.0,0.0,0.0,0.0,0.0,0.0,0.0,0.0,0.0,0.0,0.0,0.0,0.0,0.0,0.0,0.0,0.0,0.0,0.0,0.0,0.0,0.0,0.0,0.0,0.0,0.0,0.0,0.0,0.0,0.0,0.0,0.0,0.0,0.0,0.0,0.0,0.0,0.0,-1.2753,-1.2547,-1.1856,-1.1805,-1.179,-1.1753,-1.3202,-1.4069,-1.3987,0.0,0.0,0.0,0.0,0.0,0.0,0.0,0.0,0.0,0.0,0.0,0.0,0.0,0.0,0.0,0.0,0.0,0.0,0.0,0.0,0.0,0.0,0.0,0.0,0.0,0.0,0.0,0.0,0.0,0.0,0.0,0.0,0.0,0.0,0.0,0.0,0.0,0.0,0.0,0.0,0.0,0.0,0.0,0.0,0.0,0.0,0.0,0.0,0.0,0.0,0.0,0.0,0.0,0.0,0.0,0.0,0.0,0.0,0.0,0.0,0.0,0.0,0.0,0.0,0.0,0.0,0.0,0.0,0.0,0.0,0.0,0.0,0.0,0.0,0.0,0.0,0.0,0.0,0.0,0.0,0.0,0.0,0.0,0.0,0.0,0.0,0.0,0.0,0.0,0.0,0.0,0.0,0.0,0.0,0.0,0.0,0.0,0.0,0.0,0.0,0.0,0.0,-1.3019,-1.3013,-1.2734,-1.2182,-1.1945,-1.1805,-1.1805,-1.3308,-1.4209,-1.4092,0.0,0.0,0.0,0.0,0.0,0.0,0.0,0.0,0.0,0.0,0.0,0.0,0.0,0.0,0.0,0.0,0.0,0.0,0.0,0.0,0.0,0.0,0.0,0.0,0.0,0.0,0.0,0.0,0.0,0.0,0.0,0.0,0.0,0.0,0.0,0.0,0.0,0.0,0.0,0.0,0.0,0.0,0.0,0.0,0.0,0.0,0.0,0.0,0.0,0.0,0.0,0.0,0.0,0.0,0.0,0.0,0.0,0.0,0.0,0.0,0.0,0.0,0.0,0.0,0.0,0.0,0.0,0.0,0.0,0.0,0.0,0.0,0.0,0.0,0.0,0.0,0.0,0.0,0.0,0.0,0.0,0.0,0.0,0.0,0.0,0.0,0.0,0.0,0.0,0.0,0.0,0.0,0.0,0.0,0.0,0.0,0.0,0.0,0.0,0.0,0.0,0.0,-1.3669,-1.3513,-1.3165,-1.2839,-1.2204,-1.1805,-1.1805,-1.3514,-1.4241,0.0,0.0,0.0,0.0,0.0,0.0,0.0,0.0,0.0,0.0,0.0,0.0,0.0,0.0,0.0,0.0,0.0,0.0,0.0,0.0,0.0,0.0,0.0,0.0,0.0,0.0,0.0,0.0,0.0,0.0,0.0,0.0,0.0,0.0,0.0,0.0,0.0,0.0,0.0,0.0,0.0,0.0,0.0,0.0,0.0,0.0,0.0,0.0,0.0,0.0,0.0,0.0,0.0,0.0,0.0,0.0,0.0,0.0,0.0,0.0,0.0,0.0,0.0,0.0,0.0,0.0,0.0,0.0,0.0,0.0,0.0,0.0,0.0,0.0,0.0,0.0,0.0,0.0,0.0,0.0,0.0,0.0,0.0,0.0,0.0,0.0,0.0,0.0,0.0,0.0,0.0,0.0,0.0,0.0,0.0,0.0,0.0,0.0,0.0,0.0,0.0,0.0,0.0,-1.3728,-1.3507,-1.3165,-1.2829,-1.2204,-1.1856,-1.2011,-1.3134,-1.3769,-1.3611,0.0,0.0,0.0,0.0,0.0,0.0,0.0,0.0,0.0,0.0,0.0,0.0,0.0,0.0,0.0,0.0,0.0,0.0,0.0,0.0,0.0,0.0,0.0,0.0,0.0,0.0,0.0,0.0,0.0,0.0,0.0,0.0,0.0,0.0,0.0,0.0,0.0,0.0,0.0,0.0,0.0,0.0,0.0,0.0,0.0,0.0,0.0,0.0,0.0,0.0,0.0,0.0,0.0,0.0,0.0,0.0,0.0,0.0,0.0,0.0,0.0,0.0,0.0,0.0,0.0,0.0,0.0,0.0,0.0,0.0,0.0,0.0,0.0,0.0,0.0,0.0,0.0,0.0,0.0,0.0,0.0,0.0,0.0,0.0,0.0,0.0,0.0,0.0,0.0,0.0,0.0,0.0,0.0,0.0,0.0,0.0,0.0,0.0,0.0,0.0,0.0,0.0,-1.4117,-1.3792,-1.3423,-1.3217,-1.2353,-1.1893,-1.2078,-1.2947,-1.3439,-1.3304,0.0,0.0,0.0,0.0,0.0,0.0,0.0,0.0,0.0,0.0,0.0,0.0,0.0,0.0,0.0,0.0,0.0,0.0,0.0,0.0,0.0,0.0,0.0,0.0,0.0,0.0,0.0,0.0,0.0,0.0,0.0,0.0,0.0,0.0,0.0,0.0,0.0,0.0,0.0,0.0,0.0,0.0,0.0,0.0,0.0,0.0,0.0,0.0,0.0,0.0,0.0,0.0,0.0,0.0,0.0,0.0,0.0,0.0,0.0,0.0,0.0,0.0,0.0,0.0,0.0,0.0,0.0,0.0,0.0,0.0,0.0,0.0,0.0,0.0,0.0,0.0,0.0,0.0,0.0,0.0,0.0,0.0,0.0,0.0,0.0,0.0,0.0,0.0,0.0,0.0,0.0,0.0,0.0,0.0,0.0,0.0,0.0,0.0,0.0,0.0,0.0,0.0,-1.4699,-1.4352,-1.3955,-1.3813,-1.2667,-1.196,-1.2115,-1.2928,-1.3202,-1.2763,0.0,0.0,0.0,0.0,0.0,0.0,0.0,0.0,0.0,0.0,0.0,0.0,0.0,0.0,0.0,0.0,0.0,0.0,0.0,0.0,0.0,0.0,0.0,0.0,0.0,0.0,0.0,0.0,0.0,0.0,0.0,0.0,0.0,0.0,0.0,0.0,0.0,0.0,0.0,0.0,0.0,0.0,0.0,0.0,0.0,0.0,0.0,0.0,0.0,0.0,0.0,0.0,0.0,0.0,0.0,0.0,0.0,0.0,0.0,0.0,-1.5446,-1.4792,0.0,0.0,0.0,0.0,0.0,0.0,0.0,0.0,0.0,0.0,0.0,0.0,0.0,0.0,0.0,0.0,0.0,0.0,0.0,0.0,0.0,0.0,0.0,0.0,0.0,0.0,0.0,0.0,0.0,0.0,0.0,0.0,0.0,0.0,0.0,0.0,0.0,0.0,0.0,0.0,-1.5155,-1.5359,-1.5037,-1.3914,-1.3065,-1.2547,-1.2427,-1.2588,-1.2781,-1.2932,-1.2225,0.0,0.0,0.0,0.0,0.0,0.0,0.0,0.0,0.0,0.0,0.0,0.0,0.0,0.0,0.0,0.0,0.0,0.0,0.0,0.0,0.0,0.0,0.0,0.0,0.0,0.0,0.0,0.0,0.0,0.0,0.0,0.0,0.0,0.0,0.0,0.0,0.0,0.0,0.0,0.0,0.0,0.0,0.0,0.0,0.0,0.0,0.0,0.0,0.0,0.0,0.0,0.0,0.0,0.0,0.0,0.0,0.0,0.0,0.0,-1.7263,-1.6532,0.0,0.0,0.0,0.0,0.0,0.0,0.0,0.0,0.0,0.0,0.0,0.0,0.0,0.0,0.0,0.0,0.0,0.0,0.0,0.0,0.0,0.0,0.0,0.0,0.0,0.0,0.0,0.0,0.0,0.0,0.0,0.0,0.0,0.0,0.0,0.0,0.0,0.0,0.0,0.0,-1.5724,-1.5817,-1.5332,-1.395,-1.3199,-1.2719,-1.251,-1.2485,-1.2663,-1.3016,-1.2881,0.0,0.0,0.0,0.0,0.0,0.0,0.0,0.0,0.0,0.0,0.0,0.0,0.0,0.0,0.0,0.0,0.0,0.0,0.0,0.0,0.0,0.0,0.0,0.0,0.0,0.0,0.0,0.0,0.0,0.0,0.0,0.0,0.0,0.0,0.0,0.0,0.0,0.0,0.0,0.0,0.0,0.0,0.0,0.0,0.0,0.0,0.0,0.0,0.0,0.0,0.0,0.0,0.0,-1.7887,-1.8288,-1.9134,-1.9048,-1.9221,-1.9557,-1.9353,-1.8726,-1.7868,-1.7665,0.0,0.0,0.0,0.0,0.0,0.0,0.0,0.0,0.0,0.0,0.0,0.0,0.0,0.0,0.0,0.0,0.0,0.0,0.0,0.0,0.0,0.0,-1.6449,-1.6735,-1.7047,-1.7021,-1.6099,0.0,0.0,0.0,0.0,0.0,0.0,0.0,0.0,0.0,0.0,0.0,-1.6317,-1.6263,-1.555,-1.397,-1.3286,-1.2855,-1.2547,-1.2485,-1.268,-1.3067,-1.3729,-1.3725,0.0,0.0,0.0,0.0,0.0,0.0,0.0,0.0,0.0,0.0,0.0,0.0,0.0,0.0,0.0,0.0,0.0,0.0,0.0,0.0,0.0,0.0,0.0,0.0,0.0,0.0,0.0,0.0,0.0,0.0,0.0,0.0,-0.9994,-1.0717,0.0,0.0,0.0,0.0,0.0,0.0,0.0,0.0,0.0,0.0,0.0,0.0,0.0,-1.701,-1.708,-1.8516,-1.9118,-1.8761,-1.9747,-2.0154,-2.006,-2.0725,-2.0887,-2.068,-2.0882,0.0,-1.8601,-1.814,0.0,0.0,0.0,0.0,0.0,0.0,0.0,0.0,0.0,0.0,0.0,0.0,0.0,0.0,0.0,0.0,0.0,0.0,0.0,0.0,0.0,0.0,-1.7066,-1.7131,-1.7186,-1.7271,-1.7437,-1.7112,-1.6599,-1.6159,-1.6028,-1.5928,0.0,0.0,0.0,0.0,0.0,0.0,-1.6768,-1.7227,-1.6637,-1.4055,-1.3728,-1.3361,-1.2562,-1.2485,-1.268,-1.3067,-1.3781,-1.39,-1.3245,-1.3743,0.0,0.0,0.0,0.0,0.0,0.0,0.0,0.0,0.0,0.0,0.0,0.0,0.0,0.0,0.0,0.0,0.0,0.0,0.0,0.0,0.0,0.0,0.0,0.0,0.0,0.0,0.0,0.0,0.0,-0.9514,-1.0049,-1.0536,-1.1045,-1.1276,0.0,0.0,0.0,0.0,0.0,0.0,0.0,0.0,0.0,-1.5358,-1.7013,-1.7772,-1.7582,-1.875,-1.9368,-1.942,-1.993,-2.0351,-2.0673,-2.1156,-2.124,-2.0896,-2.1167,-2.0394,-1.8961,-1.859,-1.7882,-1.7077,0.0,0.0,0.0,0.0,-1.6419,-1.62,-1.6321,-1.6361,-1.6362,-1.6126,0.0,0.0,0.0,0.0,0.0,0.0,0.0,-1.7459,-1.7794,-1.784,-1.7733,-1.7557,-1.7733,-1.7975,-1.8135,-1.8007,-1.7744,-1.7367,-1.7197,-1.6935,-1.6407,-1.6701,0.0,0.0,0.0,-1.8238,-1.7526,-1.7712,-1.6864,-1.4163,-1.3822,-1.3443,-1.2556,-1.2485,-1.268,-1.3067,-1.4191,-1.4705,-1.4437,-1.5479,-1.5658,0.0,0.0,0.0,0.0,0.0,0.0,0.0,0.0,0.0,0.0,0.0,0.0,0.0,0.0,0.0,0.0,0.0,0.0,0.0,0.0,0.0,0.0,0.0,0.0,0.0,0.0,0.0,0.0,-0.988,-1.0027,-1.0536,-1.0941,-1.131,0.0,0.0,0.0,0.0,0.0,0.0,-1.4701,-1.564,-1.6143,-1.6135,-1.7611,-1.8312,-1.8228,-1.9007,-1.9618,-2.0022,-1.9865,-2.0167,-2.0806,-2.0852,-2.0683,-2.035,-2.0573,-1.9975,-1.8797,-1.8864,-1.814,-1.6996,-1.707,-1.7086,-1.696,-1.7044,-1.7044,-1.7086,-1.724,-1.7282,-1.7258,-1.7063,-1.6995,-1.7034,-1.719,0.0,0.0,0.0,0.0,-1.772,-1.795,-1.8139,-1.8228,-1.8016,-1.8268,-1.8517,-1.8517,-1.8517,-1.8478,-1.8321,-1.8163,-1.7853,-1.7193,-1.756,0.0,-1.8004,-1.8423,-1.8542,-1.8061,-1.7802,-1.6698,-1.4168,-1.386,-1.3474,-1.2574,-1.2508,-1.2747,-1.3338,-1.4586,-1.5384,-1.5559,-1.6952,-1.7441,-1.6863,0.0,0.0,0.0,0.0,0.0,0.0,0.0,0.0,0.0,0.0,0.0,0.0,0.0,0.0,0.0,0.0,0.0,0.0,0.0,0.0,0.0,0.0,0.0,0.0,0.0,0.0,0.0,0.0,0.0,-1.1006,-1.0791,0.0,0.0,0.0,0.0,-1.4919,-1.4882,-1.5186,-1.6121,-1.6266,-1.6593,-1.7278,-1.78,-1.841,-1.9282,-1.9748,-2.0169,-2.066,-2.0061,-1.9956,-2.0241,-1.9634,-1.9195,-1.8901,-1.8944,-1.8548,-1.8004,-1.8783,-1.8467,-1.7476,-1.7462,-1.7352,-1.7199,-1.7199,-1.7199,-1.724,-1.7434,-1.7475,-1.7516,-1.776,-1.7828,-1.7828,-1.7828,-1.7855,0.0,0.0,-1.8644,-1.8327,-1.9112,-1.8913,-1.8478,-1.8478,-1.8478,-1.8517,-1.8517,-1.8517,-1.8517,-1.8478,-1.8478,-1.8386,-1.8161,0.0,-1.9037,-1.8887,-1.8915,-1.8728,-1.8093,-1.7425,-1.6243,-1.4132,-1.3907,-1.3513,-1.2577,-1.2504,-1.2983,-1.4071,-1.4863,-1.5612,-1.6312,-1.7098,-1.7786,-1.8387,-1.6773,0.0,0.0,0.0,0.0,0.0,0.0,0.0,0.0,0.0,0.0,0.0,0.0,0.0,0.0,0.0,0.0,0.0,0.0,0.0,0.0,0.0,0.0,0.0,0.0,0.0,0.0,0.0,0.0,-1.1558,-1.1974,0.0,-1.3102,-1.3741,-1.4535,-1.5498,-1.5803,-1.5881,-1.5742,-1.621,-1.6452,-1.6354,-1.6825,-1.722,-1.746,-1.7823,-1.8204,-1.8639,-1.8702,-1.9035,-1.9594,-1.9394,-1.9114,-1.8806,-1.8806,-1.8383,-1.7666,-1.7963,-1.784,-1.7475,-1.7352,-1.7282,-1.724,-1.7352,-1.7393,-1.7447,-1.7666,-1.7652,-1.7475,-1.7352,-1.7693,-1.8043,-1.7855,-1.7909,-1.8164,-1.8585,-1.8448,-1.8284,-1.8705,-1.8647,-1.8517,-1.8517,-1.8517,-1.8517,-1.8517,-1.8517,-1.8517,-1.8517,-1.8517,-1.8439,-1.8242,-1.8304,-1.8353,-1.8324,-1.8273,-1.8044,-1.7563,-1.7227,-1.6268,-1.4257,-1.4379,-1.4151,-1.3039,-1.35,-1.4073,-1.4568,-1.5469,-1.6132,-1.6401,-1.7115,-1.7712,-1.8165,-1.7587,-1.7047,0.0,0.0,0.0,0.0,0.0,0.0,0.0,0.0,0.0,0.0,0.0,0.0,0.0,0.0,0.0,0.0,0.0,0.0,0.0,0.0,0.0,0.0,0.0,0.0,0.0,-1.1357,-1.1435,-1.1774,-1.2166,-1.2607,-1.3234,-1.4082,-1.498,-1.5771,-1.6221,-1.6272,-1.5855,-1.6165,-1.6253,-1.6098,-1.6253,-1.6474,-1.6693,-1.7058,-1.7384,-1.7796,-1.8002,-1.8385,-1.8874,-1.8663,-1.8489,-1.8242,-1.8242,-1.7931,-1.7393,-1.7393,-1.7393,-1.7393,-1.724,-1.7199,-1.724,-1.7352,-1.7393,-1.7434,-1.7693,-1.7693,-1.7611,-1.7393,-1.7733,-1.8149,-1.7935,-1.7975,-1.8109,-1.8439,-1.8307,-1.8149,-1.8439,-1.8517,-1.8517,-1.8517,-1.8517,-1.8517,-1.8517,-1.8517,-1.8517,-1.8517,-1.8517,-1.8478,-1.8321,-1.8097,-1.8,-1.8129,-1.7789,-1.7439,-1.724,-1.6964,-1.62,-1.4597,-1.4801,-1.4628,-1.3606,-1.4183,-1.4733,-1.5051,-1.5802,-1.6305,-1.6482,-1.7042,-1.7515,-1.7893,-1.8069,-1.7654,-1.6675,0.0,0.0,0.0,0.0,0.0,0.0,0.0,0.0,0.0,0.0,0.0,0.0,0.0,0.0,0.0,0.0,0.0,0.0,0.0,0.0,0.0,0.0,0.0,-1.1208,-1.1289,-1.1423,-1.1701,-1.1248,-1.1603,-1.3258,-1.3372,-1.4073,-1.5727,-1.6058,-1.63,-1.6528,-1.6141,-1.6095,-1.6516,-1.6095,-1.6324,-1.723,-1.7569,-1.7952,-1.8316,-1.8157,-1.8074,-1.8048,-1.7473,-1.7199,-1.7199,-1.7199,-1.7199,-1.7199,-1.7199,-1.7199,-1.7199,-1.7199,-1.7199,-1.7199,-1.7199,-1.7199,-1.724,-1.7447,-1.7693,-1.7882,-1.7882,-1.8003,-1.8202,-1.8202,-1.8016,-1.7922,-1.8386,-1.8175,-1.7922,-1.8386,-1.8517,-1.8517,-1.8517,-1.8517,-1.8517,-1.8517,-1.8503,-1.8489,-1.8489,-1.8475,-1.8461,-1.8489,-1.8167,-1.8064,-1.8291,-1.7486,0.0,-1.7133,-1.6594,-1.5933,-1.5163,-1.5117,-1.4868,-1.4276,-1.4499,-1.4936,-1.5572,-1.5805,-1.6144,-1.6709,-1.6928,-1.7254,-1.7738,-1.8187,-1.7967,-1.7067,0.0,0.0,0.0,0.0,0.0,0.0,0.0,0.0,0.0,0.0,0.0,0.0,0.0,0.0,0.0,0.0,0.0,0.0,0.0,0.0,0.0,-1.2189,-1.2707,-1.2546,-1.2432,-1.2328,-1.2437,-1.2305,-1.2548,-1.3457,-1.4114,-1.4755,-1.5269,-1.5744,-1.5742,-1.5274,-1.5256,-1.5291,-1.524,-1.5302,-1.543,-1.5707,-1.6315,-1.6687,-1.6809,-1.7226,-1.7447,-1.7434,-1.7277,-1.7199,-1.7199,-1.7199,-1.706,-1.685,-1.685,-1.685,-1.685,-1.7115,-1.7199,-1.724,-1.7352,-1.7529,-1.7706,-1.757,-1.7693,-1.7842,-1.7393,-1.7679,-1.8149,-1.7895,-1.8055,-1.8347,-1.8478,-1.84,-1.8347,-1.8478,-1.8517,-1.8517,-1.8517,-1.8517,-1.8517,-1.8517,-1.8166,-1.7857,-1.7857,-1.7492,-1.7323,-1.7773,-1.7297,-1.6848,-1.6946,-1.6623,-1.6414,-1.6471,-1.6302,-1.5933,-1.5163,-1.553,-1.5518,-1.4784,-1.5397,-1.5905,-1.6041,-1.6275,-1.6675,-1.733,-1.7454,-1.7961,-1.8898,-1.8868,-1.8702,0.0,0.0,0.0,0.0,0.0,0.0,0.0,0.0,0.0,0.0,0.0,0.0,0.0,0.0,0.0,0.0,0.0,0.0,0.0,0.0,0.0,0.0,-1.24,-1.2869,-1.2923,-1.2819,-1.266,-1.2494,-1.2466,-1.2568,-1.2922,-1.3842,-1.4432,-1.4451,-1.5132,-1.5348,-1.4903,-1.5017,-1.5017,-1.488,-1.5017,-1.5108,-1.5108,-1.5647,-1.5969,-1.5957,-1.665,-1.6976,-1.6976,-1.6976,-1.6976,-1.6976,-1.682,-1.665,-1.6479,-1.6479,-1.6479,-1.6522,0.0,0.0,0.0,0.0,-1.7488,-1.7584,-1.7516,-1.7488,-1.7461,-1.7269,-1.738,-1.757,-1.7598,-1.7585,-1.7707,-1.8228,-1.8016,-1.7814,-1.8347,-1.8347,-1.8268,-1.8439,-1.8321,-1.8124,-1.8124,-1.7646,-1.7211,-1.7211,-1.6705,0.0,-1.6747,-1.6436,-1.6163,-1.6371,-1.6114,-1.5983,-1.6166,-1.6194,-1.6041,-1.5614,-1.5921,-1.5943,-1.5452,-1.6003,0.0,0.0,0.0,-1.7179,-1.7808,-1.7821,0.0,0.0,0.0,0.0,0.0,0.0,0.0,0.0,-1.8123,-1.8012,0.0,0.0,0.0,0.0,0.0,0.0,0.0,0.0,0.0,0.0,0.0,0.0,0.0,0.0,0.0,0.0,-1.228,-1.2559,-1.2663,-1.2678,-1.2521,-1.2122,-1.2076,-1.2076,-1.2076,-1.2939,-1.3515,-1.3621,-1.4501,-1.5062,-1.5108,-1.5108,0.0,0.0,0.0,-1.5108,-1.5108,-1.5457,-1.5579,-1.5623,-1.6324,-1.6655,-1.6629,-1.6629,-1.6642,-1.665,-1.6331,-1.6156,-1.6156,-1.6156,-1.6156,-1.6188,-1.6509,-1.6808,-1.7073,-1.7073,-1.7073,-1.7115,-1.7269,0.0,0.0,-1.7269,-1.7102,-1.6837,-1.731,-1.6964,-1.6655,-1.7774,-1.7352,-1.685,-1.8055,-1.8095,-1.7868,-1.8185,-1.7883,-1.7502,-1.7395,-1.6928,-1.6544,-1.6544,-1.6025,-1.559,-1.559,-1.5609,-1.5773,-1.6206,-1.5845,-1.5697,-1.6111,-1.6194,-1.6194,-1.6194,-1.6194,0.0,-1.6095,-1.6313,-1.6564,-1.6863,-1.7209,-1.767,-1.8268,-1.8199,-1.855,-1.9489,-1.933,-1.96,-2.0304,-2.0304,-2.0304,-2.0273,-1.8893,-1.8452,0.0,0.0,0.0,0.0,0.0,0.0,0.0,0.0,0.0,0.0,0.0,0.0,0.0,0.0,0.0,-1.2155,-1.2471,-1.2663,-1.2715,-1.2439,-1.2208,-1.2085,-1.2076,-1.2076,-1.2076,-1.2638,-1.3112,-1.3573,-1.4186,-1.4697,-1.5062,-1.5108,-1.5108,-1.5108,-1.5108,-1.5108,-1.5108,-1.541,-1.5596,-1.5608,-1.6064,0.0,-1.6309,-1.6309,-1.6291,-1.6305,-1.623,-1.6017,-1.5724,-1.5724,-1.5724,-1.5768,-1.6132,-1.6318,-1.6405,-1.6405,-1.6405,-1.6405,-1.6448,-1.6522,-1.6607,-1.668,-1.6795,-1.6951,-1.7076,-1.7047,0.0,-1.7323,-1.724,-1.7115,-1.7365,-1.7639,-1.7639,-1.697,-1.6964,-1.69,-1.6136,-1.573,-1.5497,-1.5497,-1.5202,-1.4977,-1.4977,-1.5134,-1.5334,-1.5426,-1.564,-1.5871,-1.5957,-1.6111,-1.6194,-1.6123,-1.6123,-1.6095,-1.6039,-1.608,-1.6126,-1.6194,-1.7257,-1.8193,-1.89,-1.9425,-1.9808,-2.0128,-2.0112,-2.0143,-2.0304,-2.0304,-2.0304,-2.0304,-1.9993,-1.9622,0.0,0.0,0.0,0.0,0.0,0.0,0.0,0.0,0.0,0.0,0.0,-1.0806,-1.1593,0.0,-1.1479,-1.2097,-1.2328,-1.242,-1.242,-1.2254,-1.2076,-1.2076,-1.2076,-1.2076,-1.2076,-1.254,-1.2909,-1.317,-1.3705,-1.4233,-1.4743,-1.4743,-1.488,-1.5108,-1.5108,-1.5108,-1.5108,-1.5254,-1.5365,-1.5365,-1.5739,-1.5893,-1.5922,-1.5917,-1.5911,-1.5908,-1.5715,-1.5549,-1.5367,-1.5367,-1.5367,-1.5379,-1.5558,-1.5881,-1.62,-1.62,-1.62,-1.62,-1.6318,-1.6275,-1.6175,-1.6337,-1.6324,-1.6281,-1.6552,-1.6522,-1.6522,-1.6892,-1.6765,-1.6544,-1.6764,-1.6754,-1.6598,-1.6113,-1.5934,-1.5701,-1.5263,-1.4782,-1.4452,-1.4452,-1.449,-1.4556,-1.4556,-1.4808,-1.5056,-1.5192,-1.5388,-1.5624,-1.5871,-1.597,-1.6083,-1.6123,-1.6055,-1.6026,-1.6095,-1.6373,-1.6484,-1.6293,-1.7234,-1.8067,-1.8638,-1.898,-1.9364,-1.9728,-1.9818,-1.9848,-1.9848,-1.9858,-1.9852,-1.9852,-1.9827,-1.9705,0.0,0.0,0.0,0.0,0.0,0.0,0.0,-0.9798,-0.9992,-1.1321,-1.0954,-1.0689,-1.1676,-1.1206,-1.0897,-1.161,-1.176,-1.1819,-1.1927,-1.1927,-1.1977,-1.2076,-1.2076,-1.2076,-1.2076,-1.2452,-1.2725,-1.2812,-1.3218,-1.3658,-1.4233,-1.4233,-1.4419,-1.4777,-1.4926,-1.4971,-1.4971,-1.5062,-1.5108,-1.5108,-1.5382,-1.5519,-1.5519,-1.5487,-1.5481,-1.5492,-1.5242,-1.5108,-1.5108,-1.5108,-1.5108,-1.5108,-1.5108,-1.5468,-1.5969,-1.5969,-1.5969,-1.6013,-1.6219,-1.6001,-1.5748,-1.6064,-1.5844,-1.5603,-1.5969,-1.5937,-1.5836,-1.6423,-1.6133,-1.5714,-1.6051,-1.5847,-1.5499,-1.5271,-1.4889,-1.451,-1.4336,-1.3925,-1.3602,-1.3602,-1.3914,-1.4189,-1.4189,-1.4415,-1.47,-1.5056,-1.5178,-1.5328,-1.5727,-1.5799,-1.5885,-1.6055,-1.5913,-1.5885,-1.6039,-1.6498,-1.6743,-1.6604,-1.7109,-1.7589,-1.8045,-1.823,-1.8564,-1.9045,-1.9295,-1.9391,-1.9406,-1.939,-1.9397,-1.9411,-1.9346,-1.9302,-0.8421,-0.8573,-0.8685,-0.8625,-0.8702,-0.8898,0.0,-0.9771,-0.998,-1.0666,-1.0604,-1.0447,-1.0586,-1.0407,-1.032,-1.0423,-1.0525,-1.0787,-1.1318,-1.1377,-1.1578,-1.2026,-1.2076,-1.2076,-1.2076,-1.2175,-1.2353,-1.2764,-1.2861,-1.3112,-1.3658,-1.3705,-1.3716,-1.3752,-1.4233,-1.4466,-1.4466,-1.488,-1.5108,-1.5108,-1.5119,-1.5176,-1.5176,-1.5142,-1.5175,-1.513,-1.5096,-1.5108,-1.5108,-1.5108,-1.5108,-1.5108,-1.5108,-1.5153,-1.5244,-1.5244,-1.5244,-1.5244,-1.539,-1.5402,-1.539,-1.5558,-1.5614,-1.5715,-1.576,-1.5748,-1.5792,-1.5881,-1.55,-1.5115,-1.5139,-1.5076,-1.4789,-1.3925,-1.3951,-1.3945,-1.3092,-1.3107,-1.3263,-1.3263,-1.3535,-1.3782,-1.3782,-1.3815,-1.4046,-1.4732,-1.5056,-1.5222,-1.5268,-1.5433,-1.5536,-1.5566,-1.5551,-1.5536,-1.5566,-1.564,-1.5921,-1.6481,-1.6585,-1.691,-1.756,-1.816,-1.8499,-1.8579,-1.9118,-1.9383,-1.9397,-1.9398,-1.9413,-1.9374,-1.9107,-1.895,-0.6745,-0.7176,-0.7473,-0.7701,-0.8027,-0.8483,-0.9305,-0.9472,-0.9743,-1.0556,-1.0261,-1.005,-1.0431,-1.0098,-0.9865,-1.0261,-1.0364,-1.0474,-1.0736,-1.0787,-1.0838,-1.1091,-1.141,-1.1778,-1.2076,-1.2076,-1.2166,-1.2403,-1.2403,-1.2589,-1.3112,-1.3112,-1.3266,-1.361,-1.38,-1.3952,-1.3952,-1.413,-1.4225,-1.4225,-1.4225,-1.4225,-1.4236,-1.4563,-1.4835,-1.5096,-1.4824,-1.4846,-1.5108,-1.5108,-1.5108,-1.5108,-1.5108,-1.5165,-1.521,-1.5108,-1.5165,-1.521,-1.5267,-1.5345,-1.5435,-1.557,-1.5659,-1.5715,-1.576,-1.5792,-1.5732,-1.542,-1.4998,-1.451,-1.3952,-1.356,-1.3255,-1.2812,-1.2817,-1.2902,-1.271,-1.2803,-1.2896,-1.2896,-1.3195,-1.3399,-1.3399,-1.3568,-1.3802,-1.4098,-1.4273,-1.4452,-1.4811,-1.4921,-1.5074,-1.5284,-1.5433,-1.5418,-1.5225,-1.5389,-1.5536,-1.5601,-1.5706,-1.598,-1.6441,-1.6728,-1.7058,-1.7447,-1.8028,-1.8335,-1.8341,-1.8335,-1.8394,-1.8439,-1.7957,-1.7816,-0.4929,-0.5534,-0.6046,-0.6663,-0.7014,-0.7404,-0.8367,-0.8656,-0.8877,-0.9408,-0.9404,-0.9425,-0.9742,-0.951,-0.9413,-0.9865,-0.9961,-1.0012,-1.0167,-1.0167,-1.021,-1.0364,-1.0787,-1.1209,-1.161,-1.1918,-1.2026,-1.1877,-1.2026,-1.2264,-1.2579,-1.2628,-1.2783,-1.318,-1.3324,-1.3362,-1.3362,-1.3543,-1.3613,-1.3613,-1.3594,-1.359,-1.359,-1.3986,-1.4351,-1.4673,-1.4332,-1.4378,-1.4697,-1.4697,-1.4697,-1.4697,-1.4697,-1.4789,-1.4891,-1.4789,-1.5017,-1.5345,-1.5402,-1.539,-1.5379,-1.548,-1.5435,-1.5334,-1.5379,-1.5318,-1.5131,-1.4756,-1.4228,-1.367,-1.294,-1.2413,-1.2058,-1.1974,-1.2029,-1.215,-1.2341,-1.2449,-1.2484,-1.2377,-1.2638,-1.2906,-1.2906,-1.3195,-1.3412,-1.3412,-1.3412,-1.3635,-1.4278,-1.4452,-1.4624,-1.4932,-1.5163,-1.5209,-1.4966,-1.5179,-1.5209,-1.4951,-1.5041,-1.5162,-1.5324,-1.5557,-1.5831,-1.6152,-1.6834,-1.714,-1.7066,-1.7194,-1.7306,-1.7424,-1.7129,-1.7076,-0.3419,-0.3814,-0.4411,-0.588,-0.5785,-0.5584,-0.6459,-0.702,-0.7192,-0.6668,-0.7628,-0.848,-0.7889,-0.8374,-0.8804,-0.8857,-0.8857,-0.9008,-0.9562,-0.9614,-0.9814,-1.0364,-1.0415,-1.0415,-1.0466,-1.1451,-1.1877,-1.1377,-1.1828,-1.2126,-1.2126,-1.2126,-1.2126,-1.2175,-1.2589,-1.2812,-1.2812,-1.3351,-1.36,-1.361,-1.3577,-1.36,-1.36,-1.361,-1.3618,-1.3649,-1.3649,-1.3645,-1.3668,-1.3668,-1.3668,-1.3668,-1.3668,-1.3716,-1.3868,-1.3858,-1.4547,-1.5513,-1.5614,-1.5334,-1.496,-1.5062,-1.4777,-1.434,-1.434,-1.4069,-1.3751,-1.374,-1.309,-1.2351,-1.2318,-1.1927,-1.1527,-1.1516,-1.1811,-1.2004,-1.1627,-1.1847,-1.1993,-1.1627,-1.1847,-1.2138,-1.2138,-1.2484,-1.2745,-1.2745,-1.2745,-1.2978,-1.3635,-1.4059,-1.4319,-1.4332,-1.4606,-1.4839,-1.4808,-1.4839,-1.4839,-1.4808,-1.4808,-1.4651,-1.436,-1.5202,-1.5407,-1.4752,-1.5672,-1.5968,-1.5647,-1.6178,-1.6428,-1.6455,-1.6965,-1.7186,-0.0939,-0.1767,-0.2605,-0.3705,-0.4181,-0.4542,-0.5499,-0.5854,-0.6032,-0.6327,-0.6864,-0.723,-0.702,-0.7664,-0.815,-0.8103,-0.848,-0.8857,-0.9061,-0.9061,-0.9159,-0.9309,-0.9666,-0.9718,-0.9361,-1.0328,-1.088,-1.0736,-1.1259,-1.1578,-1.1578,-1.1927,-1.2076,-1.2076,-1.2264,-1.2353,-1.2353,-1.2501,-1.2608,-1.2608,-1.2596,-1.278,-1.3046,-1.2771,-1.2978,-1.36,-1.322,-1.3276,-1.3621,-1.3621,-1.3668,-1.3716,-1.3716,-1.3858,-1.4093,-1.4093,-1.4362,-1.472,-1.4686,-1.464,-1.4536,-1.4536,-1.4444,-1.4305,-1.4305,-1.4013,-1.362,-1.328,-1.2557,-1.1797,-1.145,-1.103,-1.0774,-1.1029,-1.1217,-1.133,-1.1479,-1.1627,-1.1664,-1.1516,-1.1627,-1.17,-1.17,-1.1811,-1.1884,-1.1884,-1.2567,-1.3126,-1.3331,-1.3669,-1.3914,-1.3914,-1.4013,-1.4065,-1.4065,-1.4065,-1.4065,-1.4065,-1.4065,-1.4013,-1.3914,-1.4199,-1.4259,-1.4023,-1.4761,-1.5299,-1.5548,-1.5721,-1.5877,-1.5996,-1.5714,-1.5483,0.1217,0.0277,-0.0609,-0.1829,-0.2494,-0.3046,-0.3932,-0.4429,-0.482,-0.5109,-0.5592,-0.5964,-0.5977,-0.6676,-0.7272,-0.7396,-0.783,-0.8215,-0.8215,-0.8215,-0.8215,-0.8215,-0.8672,-0.8883,-0.8527,-0.9302,-0.9917,-1.0115,-1.0635,-1.1006,-1.1006,-1.1301,-1.161,-1.1828,-1.161,-1.171,-1.2076,-1.1697,-1.1621,-1.1814,-1.1814,-1.2067,-1.2525,-1.2252,-1.244,-1.3017,-1.2491,-1.2463,-1.2783,-1.2842,-1.289,-1.2987,-1.3238,-1.3478,-1.3658,-1.3658,-1.3705,-1.3847,-1.4118,-1.4165,-1.4071,-1.4071,-1.3941,-1.38,-1.38,-1.3474,-1.3099,-1.274,-1.1943,-1.1115,-1.0795,-1.0381,-1.0069,-1.0186,-1.0572,-1.0878,-1.0819,-1.0933,-1.1008,-1.0857,-1.0933,-1.1046,-1.1046,-1.1148,-1.126,-1.126,-1.1864,-1.2413,-1.2579,-1.2998,-1.3319,-1.3319,-1.3522,-1.3715,-1.3715,-1.3715,-1.3715,-1.3715,-1.3715,-1.3635,-1.3535,-1.3635,-1.3591,-1.3366,-1.3894,-1.4311,-1.4528,-1.4725,-1.4892,-1.5031,-1.4725,-1.453,0.3097,0.2329,0.1555,-0.0111,-0.0724,-0.1114,-0.1728,-0.2777,-0.3495,-0.2956,-0.3822,-0.474,-0.482,-0.5425,-0.614,-0.6756,-0.6998,-0.7117,-0.7101,-0.7101,-0.7095,-0.7085,-0.7557,-0.7871,-0.7871,-0.8421,-0.8956,-0.9458,-1.0012,-1.0364,-1.0364,-1.0364,-1.0677,-1.1217,-1.0685,-1.0931,-1.2017,-1.0954,-1.0714,-1.1239,-1.1239,-1.1531,-1.2026,-1.2026,-1.2026,-1.1977,-1.1469,-1.1276,-1.1267,-1.1418,-1.1469,-1.1528,-1.2175,-1.2529,-1.2627,-1.2627,-1.2676,-1.292,-1.3836,-1.3884,-1.3573,-1.3515,-1.32,-1.2832,-1.2832,-1.2473,-1.2134,-1.2134,-1.123,-1.0266,-1.0266,-0.9921,-0.9469,-0.9114,-0.9941,-1.0592,-0.9765,-0.9913,-1.005,-0.9658,-0.9884,-1.0138,-1.0138,-1.0474,-1.0692,-1.0692,-1.0692,-1.0902,-1.1394,-1.2103,-1.2555,-1.2555,-1.317,-1.3602,-1.3602,-1.3602,-1.3602,-1.3602,-1.3602,-1.3421,-1.3113,-1.3421,-1.3293,-1.2673,-1.3042,-1.3115,-1.2858,-1.3336,-1.3585,-1.3618,-1.4052,-1.4258,0.5085,0.4301,0.3604,0.232,0.1476,0.0757,-0.0055,-0.1058,-0.1895,-0.2287,-0.2896,-0.3448,-0.3729,-0.4755,-0.5628,-0.5914,-0.6793,-0.7427,-0.7247,-0.7277,-0.7212,-0.7101,-0.7408,-0.7622,-0.7622,-0.7937,-0.809,-0.8043,-0.9138,-0.9814,-0.9814,-1.0167,-1.0474,-1.0626,-1.0466,-1.0551,-1.0822,-1.0524,-1.0463,-1.0613,-1.0613,-1.0697,-1.083,-1.0836,-1.0828,-1.083,-1.0795,-1.0753,-1.0812,-1.0964,-1.1124,-1.1226,-1.1368,-1.1519,-1.156,-1.156,-1.161,-1.166,-1.1882,-1.2442,-1.3017,-1.2618,-1.2421,-1.2224,-1.1769,-1.1328,-1.101,-1.101,-1.0355,-0.9717,-0.9717,-0.9447,-0.9197,-0.935,-0.9619,-0.9819,-0.9569,-0.9602,-0.9565,-0.922,-0.9239,-0.9319,-0.9319,-0.939,-0.9469,-0.9469,-0.9469,-0.9806,-1.0864,-1.1446,-1.1788,-1.1788,-1.1934,-1.2043,-1.2043,-1.2043,-1.2043,-1.2043,-1.2043,-1.2006,-1.1945,-1.2006,-1.2136,-1.2245,-1.2335,-1.2726,-1.3379,-1.3509,-1.3624,-1.3585,-1.37,-1.3362,0.6241,0.5396,0.4711,0.3785,0.2846,0.1926,0.1271,0.0502,-0.0223,-0.0894,-0.1397,-0.19,-0.2512,-0.3488,-0.4375,-0.5081,-0.5927,-0.6547,-0.6672,-0.675,-0.6761,-0.6648,-0.6926,-0.7139,-0.73,-0.7456,-0.7563,-0.7521,-0.8468,-0.8988,-0.8876,-0.9399,-0.9814,-1.0064,-0.9814,-0.9703,-0.9673,-0.9951,-1.0035,-1.003,-1.003,-1.0143,-1.0387,-1.0379,-1.0443,-1.0482,-1.0336,-1.0285,-1.0336,-1.0549,-1.0651,-1.0744,-1.1006,-1.1158,-1.12,-1.12,-1.12,-1.12,-1.12,-1.161,-1.2116,-1.1819,-1.1719,-1.166,-1.1301,-1.1047,-1.0876,-1.0876,-1.0317,-0.9703,-0.9545,-0.9195,-0.8939,-0.892,-0.9096,-0.9274,-0.9222,-0.9096,-0.8973,-0.8774,-0.8602,-0.8635,-0.9139,-0.9048,-0.8839,-0.8706,-0.8839,-0.9055,-0.9424,-1.0195,-1.0685,-1.0685,-1.0826,-1.0939,-1.0939,-1.11,-1.1185,-1.1185,-1.1185,-1.1185,-1.1185,-1.1025,-1.1098,-1.1478,-1.1706,-1.221,-1.2949,-1.2949,-1.2939,-1.2949,-1.2686,-1.2246,0.6881,0.6069,0.5383,0.4736,0.3736,0.2764,0.2432,0.1842,0.1229,0.0728,0.0224,-0.0448,-0.1342,-0.2125,-0.2995,-0.4364,-0.49,-0.5247,-0.5677,-0.5846,-0.5906,-0.588,-0.6211,-0.6579,-0.6911,-0.6993,-0.7139,-0.73,-0.7836,-0.8043,-0.7824,-0.8315,-0.8791,-0.9235,-0.889,-0.8685,-0.8685,-0.9228,-0.9475,-0.9475,-0.952,-0.9768,-1.0204,-1.0254,-1.028,-1.0395,-0.9925,-0.9762,-0.9858,-0.9961,-1.0012,-1.0012,-1.0584,-1.0846,-1.0846,-1.0846,-1.0846,-1.0846,-1.0846,-1.0846,-1.0846,-1.1057,-1.1057,-1.0998,-1.0947,-1.0846,-1.0846,-1.0846,-1.0292,-0.9673,-0.9369,-0.8943,-0.852,-0.8222,-0.8504,-0.8747,-0.8671,-0.8388,-0.8175,-0.8222,-0.7915,-0.804,-0.9031,-0.8893,-0.8505,-0.8216,-0.8357,-0.8289,-0.777,-0.878,-0.9512,-0.9512,-0.9847,-1.005,-1.0108,-1.0428,-1.0631,-1.0631,-1.0631,-1.0601,-1.055,-1.0283,-1.0249,-1.0624,-1.1142,-1.1564,-1.1968,-1.1968,-1.1968,-1.1977,-1.146,-1.115,0.7605,0.7078,0.6673,0.5803,0.4899,0.4216,0.412,0.2954,0.184,0.1729,0.0895,-0.0112,-0.1006,-0.1837,-0.272,-0.3947,-0.4624,-0.5028,-0.4971,-0.5014,-0.4947,-0.4639,-0.537,-0.5892,-0.5945,-0.6418,-0.6647,-0.6426,-0.675,-0.702,-0.7241,-0.7354,-0.7444,-0.7511,-0.7882,-0.8041,-0.8041,-0.8633,-0.893,-0.893,-0.9068,-0.9173,-0.9253,-0.9337,-0.9427,-0.9465,-0.9465,-0.9302,-0.9033,-0.9152,-0.8995,-0.8732,-0.8837,-0.889,-0.889,-0.889,-0.889,-0.889,-0.889,-0.889,-0.9047,-1.019,-1.0285,-0.9969,-0.9517,-0.9152,-0.889,-0.889,-0.8571,-0.8237,-0.8184,-0.7905,-0.77,-0.7898,-0.788,-0.7769,-0.7729,-0.7364,-0.7052,-0.7216,-0.7166,-0.7251,-0.7676,-0.7682,-0.7635,-0.754,-0.7197,-0.6959,-0.7109,-0.8307,-0.9128,-0.9128,-0.9159,-0.9322,-0.9578,-0.9688,-0.973,-0.973,-0.973,-0.9597,-0.9328,-0.9529,-0.9787,-1.0211,-1.0559,-1.0941,-1.136,-1.136,-1.136,-1.136,-1.1259,-1.0956,0.8228,0.771,0.7338,0.6748,0.6126,0.5468,0.4841,0.3837,0.2837,0.2233,0.1231,0.028,-0.0336,-0.1207,-0.2122,-0.2751,-0.3753,-0.4478,-0.442,-0.481,-0.5013,-0.4954,-0.5173,-0.5431,-0.5604,-0.5553,-0.5555,-0.55,-0.55,-0.5828,-0.6588,-0.6956,-0.7111,-0.7111,-0.7329,-0.7571,-0.7688,-0.7982,-0.8212,-0.833,-0.8396,-0.8455,-0.8448,-0.8514,-0.8573,-0.8692,-0.8738,-0.8685,-0.8573,-0.8685,-0.858,-0.8421,-0.8421,-0.8421,-0.8421,-0.8421,-0.8421,-0.8421,-0.8421,-0.8203,-0.8031,-0.8659,-0.8981,-0.9047,-0.8738,-0.8533,-0.8421,-0.8421,-0.8273,-0.8133,-0.7936,-0.7797,-0.7629,-0.7452,-0.7074,-0.6805,-0.6971,-0.6655,-0.6516,-0.7115,-0.6813,-0.6653,-0.7095,-0.6938,-0.6679,-0.6481,-0.6376,-0.6199,-0.6029,-0.6711,-0.7426,-0.791,-0.7938,-0.807,-0.8377,-0.858,-0.8708,-0.8708,-0.8708,-0.864,-0.8488,-0.8409,-0.856,-0.8938,-0.9376,-0.981,-1.0167,-1.0167,-0.9997,-0.9666,-0.9415,-0.8947,0.8747,0.8213,0.7759,0.7443,0.7087,0.6525,0.5404,0.4666,0.3941,0.2794,0.1736,0.0841,0.0448,-0.0457,-0.1282,-0.1639,-0.2709,-0.3539,-0.3771,-0.4379,-0.4882,-0.5098,-0.5092,-0.5099,-0.5261,-0.4883,-0.472,-0.4901,-0.4625,-0.4956,-0.5946,-0.6578,-0.6907,-0.6933,-0.7042,-0.7175,-0.7405,-0.7499,-0.7664,-0.79,-0.7931,-0.799,-0.796,-0.7978,-0.8043,-0.8049,-0.8049,-0.8049,-0.8043,-0.8043,-0.8103,-0.8103,-0.799,-0.7937,-0.7937,-0.7771,-0.7717,-0.7717,-0.7717,-0.7444,-0.7004,-0.7004,-0.7444,-0.7877,-0.7877,-0.7883,-0.7883,-0.7771,-0.7824,-0.7835,-0.7465,-0.7361,-0.7189,-0.6719,-0.6191,-0.5923,-0.6059,-0.5868,-0.5936,-0.6721,-0.6292,-0.5917,-0.6375,-0.6043,-0.5623,-0.5197,-0.5301,-0.5186,-0.4765,-0.4936,-0.5415,-0.6263,-0.6574,-0.6789,-0.7098,-0.7393,-0.758,-0.758,-0.758,-0.7554,-0.7491,-0.7272,-0.7266,-0.7526,-0.7974,-0.8364,-0.8639,-0.8639,-0.8423,-0.7929,-0.7528,-0.7052,0.9226,0.8756,0.8219,0.7639,0.7437,0.7144,0.6112,0.5441,0.478,0.4018,0.2794,0.1679,0.1118,0.0393,-0.0398,-0.1227,-0.1568,-0.1991,-0.2753,-0.3082,-0.3492,-0.3885,-0.4515,-0.4858,-0.4607,-0.4869,-0.5008,-0.4908,-0.4625,-0.4746,-0.5368,-0.5931,-0.627,-0.627,-0.6793,-0.7138,-0.7143,-0.7643,-0.789,-0.789,-0.8075,-0.8164,-0.8162,-0.8315,-0.8043,-0.7545,-0.7545,-0.7331,-0.6956,-0.6956,-0.7069,-0.7192,-0.6588,-0.6421,-0.6317,-0.5769,-0.5605,-0.5605,-0.5605,-0.555,-0.5496,-0.5496,-0.5819,-0.6195,-0.6195,-0.6308,-0.6312,-0.5714,-0.5987,-0.6258,-0.5692,-0.5525,-0.5483,-0.5217,-0.5124,-0.5023,-0.4832,-0.4743,-0.4844,-0.5169,-0.5155,-0.4996,-0.4667,-0.4583,-0.4361,-0.3799,-0.3312,-0.3113,-0.3318,-0.3412,-0.3669,-0.4275,-0.5196,-0.5864,-0.6182,-0.6253,-0.6253,-0.6253,-0.6253,-0.6162,-0.5814,-0.6097,-0.6212,-0.6283,-0.6586,-0.6806,-0.6832,-0.6832,-0.6827,-0.6779,-0.6725,-0.6671,0.9664,0.9278,0.8971,0.8196,0.804,0.7699,0.6411,0.5655,0.4937,0.3959,0.307,0.2235,0.1621,0.1007,0.0453,0.0059,-0.0772,-0.1401,-0.1406,-0.2031,-0.2664,-0.3349,-0.3633,-0.386,-0.4133,-0.424,-0.4279,-0.4144,-0.4353,-0.4584,-0.4827,-0.5062,-0.516,-0.5183,-0.5429,-0.5806,-0.6322,-0.6196,-0.6339,-0.6863,-0.6599,-0.6455,-0.6436,-0.6529,-0.6416,-0.6199,-0.6199,-0.6091,-0.5873,-0.5873,-0.5932,-0.5991,-0.5769,-0.566,-0.5609,-0.5386,-0.5277,-0.5277,-0.5277,-0.5117,-0.4846,-0.4846,-0.4677,-0.4677,-0.5386,-0.5605,-0.5605,-0.5386,-0.5496,-0.5496,-0.4889,-0.4275,-0.3819,-0.4098,-0.3872,-0.3809,-0.4396,-0.4273,-0.4177,-0.4728,-0.4142,-0.3613,-0.3495,-0.3118,-0.273,-0.2506,-0.2286,-0.2221,-0.2353,-0.2351,-0.246,-0.2785,-0.4275,-0.5336,-0.5575,-0.5592,-0.5592,-0.5592,-0.5263,-0.5014,-0.4895,-0.501,-0.5099,-0.5099,-0.5554,-0.5814,-0.5814,-0.5814,-0.5651,-0.5328,-0.5328,-0.5164,1.002,0.951,0.9093,0.8527,0.8421,0.8043,0.6583,0.5923,0.5316,0.4122,0.3403,0.2792,0.2179,0.1566,0.1071,0.0868,-0.0059,-0.0787,-0.0695,-0.1308,-0.2079,-0.2779,-0.2825,-0.2954,-0.3317,-0.3396,-0.3496,-0.3591,-0.3968,-0.4249,-0.4209,-0.4223,-0.4378,-0.4743,-0.4758,-0.5019,-0.5642,-0.5207,-0.5306,-0.5943,-0.5495,-0.5297,-0.5293,-0.5281,-0.5226,-0.5062,-0.5062,-0.5062,-0.5062,-0.5062,-0.5171,-0.5277,-0.5117,-0.5062,-0.5062,-0.4842,-0.4787,-0.4787,-0.4618,-0.4288,-0.3959,-0.3738,-0.3408,-0.3241,-0.4009,-0.4501,-0.4721,-0.4391,-0.4281,-0.4171,-0.3727,-0.306,-0.2563,-0.295,-0.2732,-0.2681,-0.3572,-0.3342,-0.3116,-0.3671,-0.2892,-0.2115,-0.206,-0.1618,-0.1174,-0.0894,-0.0894,-0.0894,-0.0894,-0.1062,-0.1229,-0.1398,-0.2834,-0.3955,-0.4275,-0.4281,-0.4281,-0.4281,-0.3892,-0.3616,-0.3616,-0.3616,-0.3616,-0.3616,-0.4058,-0.4281,-0.4281,-0.4281,-0.4064,-0.3683,-0.3683,-0.3463,1.0218,0.9347,0.8427,0.8421,0.8421,0.8043,0.6681,0.6411,0.6036,0.4732,0.4015,0.3403,0.2792,0.2179,0.1567,0.0842,0.0533,0.0062,-0.08,-0.1157,-0.1514,-0.2033,-0.2217,-0.2255,-0.2008,-0.2425,-0.2963,-0.3527,-0.3585,-0.3585,-0.3585,-0.3585,-0.415,-0.5246,-0.5302,-0.5302,-0.5302,-0.5302,-0.5306,-0.5306,-0.5321,-0.5293,-0.5277,-0.5277,-0.5007,-0.4519,-0.4519,-0.4519,-0.4519,-0.4519,-0.4846,-0.5222,-0.4736,-0.4519,-0.4463,-0.386,-0.3641,-0.3527,-0.2961,-0.2736,-0.2625,-0.2014,-0.1846,-0.1846,-0.1846,-0.2676,-0.3392,-0.2178,-0.1846,-0.1846,-0.1846,-0.179,-0.179,-0.179,-0.179,-0.1846,-0.2015,-0.1677,-0.1398,-0.1566,-0.1229,-0.0726,-0.0112,0.0,0.0279,0.1118,0.1285,0.1285,0.1285,0.0726,0.0279,0.0,-0.0559,-0.1229,-0.1958,-0.1902,-0.1846,-0.1846,-0.1846,-0.1846,-0.1846,-0.1846,-0.1846,-0.1846,-0.1846,-0.1846,-0.1846,-0.1846,-0.1846,-0.1846,-0.1846,-0.1846,0.9865,0.9309,0.8844,0.8374,0.7943,0.7396,0.6475,0.5932,0.5441,0.468,0.4349,0.3904,0.279,0.2389,0.1877,0.0737,0.0384,0.0199,-0.0069,-0.0285,-0.065,-0.1335,-0.1812,-0.2063,-0.2004,-0.2047,-0.2181,-0.235,-0.235,-0.235,-0.235,-0.2345,-0.2736,-0.3527,-0.3925,-0.4154,-0.4154,-0.4154,-0.4324,-0.4727,-0.4314,-0.4135,-0.4132,-0.3735,-0.3456,-0.3236,-0.2847,-0.2681,-0.2681,-0.2681,-0.3012,-0.3456,-0.2901,-0.2903,-0.3181,-0.2571,-0.235,-0.235,-0.2125,-0.2069,-0.2068,-0.1846,-0.179,-0.1734,-0.1288,-0.1733,-0.2289,-0.19,-0.1512,-0.1177,-0.1177,-0.0896,-0.056,-0.0559,-0.0726,-0.0838,-0.0892,-0.067,-0.0447,-0.0614,-0.0112,0.0336,0.0448,0.056,0.0784,0.123,0.1119,0.1119,0.1286,0.0952,0.0672,0.0504,0.0392,0.0,-0.0836,-0.0892,-0.078,-0.0557,-0.0167,0.0056,0.0056,0.0056,0.0056,0.0056,-0.0334,-0.0557,-0.0557,-0.1003,-0.1396,-0.179,-0.179,-0.179,0.9451,0.8995,0.8586,0.8168,0.7676,0.702,0.6372,0.5714,0.5171,0.4625,0.4463,0.4076,0.3016,0.2813,0.2439,0.1302,0.1097,0.0942,0.0633,0.0504,0.0145,-0.057,-0.0992,-0.131,-0.1542,-0.1514,-0.1568,-0.179,-0.179,-0.179,-0.179,-0.1788,-0.1842,-0.2011,-0.2629,-0.2912,-0.2905,-0.3132,-0.3357,-0.3477,-0.3357,-0.3132,-0.291,-0.2516,-0.2347,-0.2347,-0.1958,-0.179,0.0,-0.179,-0.2014,-0.2347,-0.1956,-0.2012,-0.2291,-0.1956,-0.179,-0.179,-0.1512,-0.1456,-0.14,-0.1175,-0.0952,-0.0728,-0.0336,-0.0616,-0.1119,-0.1119,-0.0672,-0.0224,-0.0224,0.0112,0.0504,0.0503,0.028,0.0056,0.0,0.0279,0.0448,0.0336,0.0784,0.1234,0.1122,0.1178,0.1346,0.1623,0.1679,0.179,0.1956,0.2014,0.2014,0.1789,0.1846,0.173,0.1279,0.0613,0.0334,0.0502,0.0948,0.1227,0.1227,0.1227,0.1227,0.1227,0.0892,0.0669,0.0669,0.0279,-0.0056,-0.0447,-0.0447,-0.0447,0.0,0.8362,0.7848,0.7848,0.7408,0.681,0.6263,0.5664,0.0,0.457,0.4363,0.4042,0.349,0.3357,0.308,0.2322,0.2312,0.2093,0.1215,0.1061,0.0728,0.0073,-0.0068,-0.0254,-0.08,-0.0872,-0.1064,-0.1623,-0.1679,-0.1679,-0.1679,-0.1679,-0.1398,-0.0838,-0.1401,-0.1681,-0.1729,-0.2345,-0.2347,-0.179,-0.2347,-0.2347,-0.179,-0.1734,-0.1734,-0.1734,-0.1679,-0.1679,-0.1679,-0.1679,-0.1679,-0.1734,-0.1679,-0.1679,-0.1734,-0.1679,-0.1679,-0.1567,-0.1009,-0.0785,-0.0673,-0.0056,0.0505,0.0953,0.0953,0.0561,0.0112,0.0112,0.0505,0.0953,0.0953,0.112,0.1285,0.1342,0.112,0.0898,0.0841,0.1066,0.1291,0.1178,0.1515,0.1797,0.1853,0.1853,0.1964,0.2296,0.2796,0.313,0.3186,0.3633,0.3855,0.3627,0.3624,0.3738,0.3965,0.2456,0.1509,0.1509,0.1845,0.2014,0.2014,0.2014,0.2014,0.2012,0.2012,0.1958,0.1902,0.1956,0.19,0.1846,0.1846,0.1846,0.7717,0.0,0.73,0.73,0.648,0.566,0.0,0.5062,0.4629,0.4301,0.4329,0.4143,0.347,0.3329,0.3066,0.2406,0.2245,0.1953,0.117,0.0512,-0.0072,-0.0354,-0.0395,-0.037,-0.0358,-0.0345,-0.0392,-0.0392,-0.0448,-0.0448,-0.0448,-0.0448,-0.0336,-0.0224,-0.0336,-0.0672,-0.112,-0.1737,-0.1962,-0.179,-0.1956,-0.1956,-0.179,-0.1344,-0.1121,-0.1065,-0.0616,-0.0448,-0.0448,-0.0448,-0.0672,-0.1065,-0.0616,-0.0728,-0.1065,-0.0616,-0.0448,-0.0392,-0.028,0.0112,0.0561,0.1175,0.1455,0.1567,0.1567,0.1511,0.1342,0.1063,0.1286,0.1511,0.1286,0.123,0.1398,0.1902,0.1569,0.1346,0.1736,0.1738,0.1685,0.1629,0.1741,0.1964,0.2404,0.246,0.2738,0.3466,0.3516,0.3572,0.3744,0.3741,0.3683,0.3627,0.3953,0.4064,0.3738,0.3516,0.3461,0.3735,0.3849,0.3904,0.4018,0.3904,0.3959,0.4177,0.4174,0.3788,0.2956,0.3287,0.3065,0.2345,0.2345,0.2345,0.681,0.6937,0.7125,0.6854,0.6128,0.5406,0.5346,0.4786,0.432,0.4219,0.4231,0.4083,0.3787,0.3758,0.3643,0.3279,0.2872,0.23,0.1553,0.109,0.0637,0.0138,0.0065,0.0,-0.0295,-0.0286,-0.0224,-0.0112,-0.0112,0.0056,0.0393,0.0168,0.0112,0.0393,0.0168,-0.0168,-0.0505,-0.1066,-0.1233,-0.0952,-0.123,-0.123,-0.0952,-0.0616,-0.0505,-0.0449,-0.0168,0.0168,0.0393,0.0393,0.0392,0.0336,0.0392,0.0224,-0.0056,0.028,0.0393,0.0449,0.0728,0.1064,0.1344,0.1679,0.2014,0.2235,0.2235,0.2291,0.2237,0.1509,0.1566,0.1734,0.1566,0.1621,0.179,0.2127,0.185,0.1628,0.1962,0.1908,0.1908,0.2184,0.224,0.2406,0.3014,0.3125,0.3292,0.3741,0.3904,0.4073,0.4187,0.4567,0.478,0.478,0.5324,0.5542,0.5214,0.5332,0.5226,0.4728,0.4787,0.4901,0.4959,0.4684,0.457,0.4736,0.4794,0.4515,0.3959,0.4233,0.4119,0.3619,0.3619,0.3619,0.6137,0.657,0.6892,0.6416,0.5859,0.5416,0.5238,0.4676,0.4232,0.4176,0.4095,0.4088,0.4221,0.4305,0.4333,0.4352,0.3602,0.2762,0.1963,0.1849,0.159,0.0804,0.0701,0.0425,-0.0176,-0.0285,-0.0168,0.0,0.0056,0.0392,0.1009,0.056,0.0449,0.0898,0.0393,0.0112,0.0,-0.0505,-0.0505,0.0,-0.0503,-0.0504,0.0,0.0,0.0056,0.0112,0.0112,0.0505,0.1009,0.1009,0.1344,0.1734,0.1176,0.1009,0.1009,0.0953,0.1009,0.1121,0.168,0.1846,0.1846,0.1902,0.2348,0.2847,0.2847,0.3016,0.3019,0.2011,0.19,0.2068,0.1902,0.2071,0.2296,0.224,0.2074,0.1964,0.1964,0.202,0.2242,0.2738,0.2847,0.3014,0.3627,0.3735,0.379,0.3956,0.4457,0.4791,0.4901,0.5719,0.6317,0.6317,0.6864,0.7192,0.7085,0.7246,0.6799,0.5425,0.5492,0.555,0.555,0.5171,0.4901,0.4842,0.5014,0.5069,0.5014,0.5226,0.5277,0.5222,0.5171,0.5167,0.581,0.5752,0.5791,0.5706,0.5251,0.4753,0.4693,0.4556,0.4366,0.4212,0.4244,0.4229,0.429,0.4355,0.4477,0.4654,0.3691,0.2693,0.1964,0.1352,0.0893,0.0522,0.0189,0.0121,0.0512,0.0394,0.0504,0.1007,0.1343,0.1567,0.1679,0.1567,0.1344,0.0898,0.0785,0.0505,0.0,-0.0112,-0.0112,0.0,-0.0112,-0.0112,0.0,0.0,0.028,0.0785,0.0785,0.1121,0.168,0.168,0.1734,0.179,0.1398,0.1399,0.1623,0.1343,0.1399,0.1734,0.2015,0.2127,0.2183,0.2465,0.2963,0.3461,0.3461,0.363,0.3799,0.363,0.3461,0.3125,0.235,0.2573,0.2852,0.2296,0.2404,0.2571,0.2571,0.2961,0.335,0.3458,0.3461,0.3624,0.4239,0.4349,0.4677,0.566,0.5878,0.61,0.6647,0.6864,0.6972,0.6972,0.745,0.761,0.7139,0.7996,0.8203,0.7492,0.7074,0.681,0.681,0.6972,0.6799,0.6293,0.6804,0.6864,0.647,0.7015,0.7122,0.6735,0.6357,0.646,0.5162,0.4962,0.4967,0.504,0.4857,0.4593,0.4537,0.4417,0.4262,0.4148,0.4143,0.4221,0.4278,0.424,0.4032,0.3399,0.3229,0.2896,0.1997,0.1993,0.1846,0.12,0.098,0.0768,0.0563,0.0449,0.0616,0.1174,0.1342,0.1679,0.224,0.1959,0.1846,0.1846,0.1569,0.1178,0.0729,0.0895,0.0783,0.0504,0.0504,0.0672,0.0952,0.0784,0.084,0.112,0.0953,0.1232,0.179,0.179,0.2015,0.224,0.1734,0.1734,0.2015,0.2237,0.2569,0.2961,0.2961,0.2961,0.2905,0.2745,0.3132,0.3624,0.3624,0.3796,0.4024,0.4024,0.3796,0.3514,0.3072,0.3183,0.3294,0.3016,0.3072,0.3181,0.3181,0.3403,0.3683,0.4015,0.4073,0.4294,0.4853,0.5175,0.5609,0.61,0.648,0.681,0.7085,0.7348,0.7557,0.7557,0.8043,0.8262,0.8049,0.8487,0.8533,0.7925,0.7664,0.7402,0.7139,0.7192,0.7133,0.6853,0.7235,0.7295,0.7069,0.7503,0.761,0.7444,0.7278,0.7379,0.4615,0.4485,0.4429,0.4511,0.4504,0.4472,0.4473,0.4322,0.4139,0.4134,0.4159,0.4189,0.4284,0.4124,0.3636,0.261,0.2931,0.2999,0.2017,0.2458,0.2605,0.1898,0.167,0.1336,0.0788,0.0673,0.0896,0.1341,0.1454,0.1846,0.2633,0.2238,0.2179,0.2456,0.2017,0.1628,0.1233,0.1453,0.134,0.0895,0.095,0.123,0.1567,0.1342,0.1286,0.1398,0.1176,0.1456,0.2015,0.2015,0.2296,0.2635,0.2127,0.2015,0.2294,0.2963,0.3519,0.391,0.3741,0.3683,0.363,0.3077,0.3297,0.3793,0.3793,0.4018,0.4298,0.4298,0.4184,0.3959,0.368,0.3683,0.379,0.379,0.3898,0.4064,0.4171,0.434,0.456,0.5007,0.5117,0.523,0.5677,0.6109,0.648,0.6583,0.6966,0.7348,0.7461,0.7883,0.809,0.809,0.8533,0.8804,0.8804,0.8804,0.8586,0.815,0.809,0.7937,0.7515,0.7515,0.7515,0.7515,0.7616,0.767,0.767,0.7883,0.8043,0.8043,0.8037,0.8137,0.4515,0.4391,0.42,0.4215,0.4253,0.4261,0.4558,0.4319,0.414,0.4262,0.4287,0.4289,0.43,0.4059,0.382,0.3485,0.3141,0.2783,0.2235,0.2169,0.2082,0.1902,0.1532,0.1338,0.169,0.1568,0.1679,0.2071,0.241,0.2631,0.2681,0.2681,0.2399,0.1895,0.1849,0.1514,0.095,0.0952,0.0953,0.0897,0.1175,0.1175,0.0953,0.0953,0.1232,0.179,0.1734,0.2071,0.2635,0.2635,0.2635,0.2691,0.2296,0.2183,0.2294,0.3236,0.3569,0.3683,0.391,0.3965,0.391,0.3627,0.3962,0.4463,0.4463,0.4794,0.5187,0.5187,0.5187,0.4908,0.3849,0.4015,0.4401,0.4336,0.4769,0.5311,0.5914,0.647,0.6864,0.6918,0.6918,0.6918,0.6977,0.7031,0.7187,0.7711,0.7818,0.8037,0.8586,0.8699,0.8752,0.8752,0.8752,0.8804,0.8804,0.8804,0.8804,0.8752,0.8752,0.8699,0.8699,0.8699,0.8699,0.8699,0.8699,0.8699,0.8699,0.885,0.8956,0.9106,0.858,0.8784,0.4422,0.4219,0.4083,0.4151,0.4122,0.4041,0.4274,0.4273,0.4243,0.4289,0.43,0.4255,0.4051,0.3753,0.3441,0.3121,0.271,0.2369,0.2172,0.2075,0.1933,0.1887,0.1736,0.1651,0.18,0.174,0.1849,0.2183,0.2296,0.2464,0.2687,0.2687,0.2575,0.2354,0.2359,0.2135,0.1738,0.1906,0.185,0.1459,0.1568,0.1734,0.2018,0.1793,0.1847,0.2015,0.1849,0.1906,0.2132,0.2132,0.2132,0.2188,0.2575,0.274,0.2907,0.4012,0.4401,0.4401,0.4349,0.4298,0.4239,0.3738,0.4015,0.4519,0.4519,0.4853,0.5297,0.5297,0.5297,0.5293,0.5222,0.5386,0.566,0.5982,0.6253,0.647,0.6691,0.6918,0.7085,0.7085,0.7085,0.7085,0.7085,0.7402,0.7664,0.7871,0.8203,0.8533,0.8752,0.8804,0.8804,0.8804,0.8804,0.8804,0.8804,0.8804,0.8804,0.8804,0.8804,0.8804,0.8804,0.8804,0.8804,0.8804,0.8804,0.8804,0.8804,0.8956,0.9008,0.9061,0.8949,0.915,0.4187,0.4091,0.4134,0.4091,0.4091,0.4089,0.4091,0.4183,0.4254,0.4292,0.43,0.419,0.3854,0.3524,0.3172,0.2802,0.242,0.2162,0.2079,0.1933,0.1875,0.1857,0.1822,0.1797,0.1797,0.1797,0.1852,0.2074,0.2074,0.2186,0.2411,0.2411,0.2413,0.2419,0.2419,0.2305,0.2079,0.2301,0.2188,0.1797,0.1794,0.2017,0.2411,0.2186,0.2074,0.2074,0.1852,0.1797,0.1797,0.2018,0.2186,0.241,0.3019,0.3241,0.3405,0.4401,0.4791,0.4791,0.4739,0.4743,0.4684,0.4294,0.4405,0.4743,0.4743,0.5018,0.5297,0.5297,0.5297,0.5458,0.6046,0.6209,0.6372,0.7182,0.7348,0.7402,0.7622,0.7622,0.7622,0.7622,0.7622,0.7622,0.7622,0.7937,0.8203,0.8203,0.8533,0.8804,0.8804,0.8804,0.8804,0.8804,0.8804,0.8804,0.8804,0.8804,0.8804,0.8804,0.8804,0.8804,0.8804,0.8804,0.8804,0.8804,0.8804,0.8804,0.8804,0.891,0.8956,0.9015,0.9157,0.9362,0.3852,0.4132,0.4389,0.39,0.4204,0.4522,0.4154,0.4118,0.4153,0.4273,0.43,0.4164,0.3889,0.3489,0.3062,0.2657,0.232,0.2082,0.1898,0.188,0.186,0.1804,0.1797,0.1797,0.1797,0.1797,0.1797,0.1797,0.1797,0.1797,0.1797,0.1797,0.1797,0.1797,0.1797,0.1797,0.1797,0.1797,0.1797,0.1797,0.1797,0.1797,0.1797,0.1797,0.1797,0.1797,0.1797,0.1797,0.1853,0.246,0.307,0.3624,0.3627,0.3627,0.3683,0.4294,0.4519,0.4574,0.5132,0.5297,0.5297,0.5297,0.5297,0.5297,0.5297,0.5297,0.5297,0.5297,0.5297,0.5458,0.6046,0.6209,0.6475,0.7605,0.7871,0.8037,0.8639,0.8804,0.8804,0.8804,0.8804,0.8804,0.8804,0.8804,0.8804,0.8804,0.8804,0.8804,0.8804,0.8804,0.8804,0.8804,0.8804,0.8804,0.8804,0.8804,0.8804,0.8804,0.8804,0.8804,0.8804,0.8804,0.8804,0.8804,0.8804,0.8804,0.8804,0.8804,0.8857,0.9015,0.9153,0.9404,0.4629,0.4594,0.4423,0.4389,0.4282,0.4198,0.411,0.444,0.4813,0.4758,0.4294,0.3821,0.3619,0.3101,0.2652,0.2566,0.221,0.1922,0.1886,0.1847,0.1816,0.18,0.1797,0.1797,0.1797,0.1797,0.1797,0.1797,0.1797,0.1797,0.1797,0.1797,0.1797,0.1797,0.1797,0.1797,0.1797,0.1797,0.1797,0.1797,0.1797,0.1797,0.1797,0.224,0.2406,0.2462,0.2905,0.3072,0.3074,0.3239,0.3458,0.3627,0.4073,0.4239,0.4294,0.4853,0.5077,0.5077,0.5242,0.5297,0.5297,0.5297,0.5297,0.5297,0.5297,0.5297,0.5297,0.5297,0.5297,0.5458,0.6046,0.6209,0.6372,0.7133,0.7348,0.7509,0.8037,0.8143,0.8309,0.8699,0.8804,0.8804,0.8804,0.8804,0.8804,0.8804,0.8804,0.8804,0.8804,0.8804,0.8804,0.8804,0.8804,0.8804,0.8804,0.8804,0.8804,0.8804,0.8804,0.8804,0.8804,0.8804,0.8804,0.8804,0.8804,0.8804,0.8804,0.8804,0.8804,0.8864,0.9105,0.9408,0.4815,0.4787,0.4793,0.5006,0.4957,0.4918,0.4918,0.4731,0.4577,0.437,0.3979,0.352,0.3153,0.2774,0.2458,0.2305,0.2084,0.1873,0.1852,0.1819,0.1797,0.1797,0.1797,0.1797,0.1797,0.2018,0.2074,0.1797,0.2244,0.23,0.1853,0.2023,0.2023,0.1797,0.1797,0.1797,0.1797,0.2018,0.2184,0.2184,0.2408,0.2519,0.2519,0.2627,0.2847,0.307,0.3458,0.3735,0.3959,0.3959,0.407,0.4294,0.4684,0.4798,0.4853,0.5187,0.5297,0.5297,0.5297,0.5297,0.5297,0.5297,0.5297,0.5297,0.5297,0.5297,0.5297,0.5297,0.5297,0.5407,0.5727,0.5778,0.5996,0.6864,0.7085,0.7241,0.7765,0.7925,0.809,0.8699,0.8804,0.8804,0.8804,0.8804,0.8804,0.8804,0.8804,0.8804,0.8804,0.8804,0.8804,0.8804,0.8804,0.891,0.9113,0.927,0.9447,0.9659,0.9828,0.9836,0.9667,0.913,0.891,0.9106,0.9106,0.9211,0.9413,0.9413,0.953,0.9667,0.9983,1.03,0.47,0.5035,0.535,0.5681,0.5887,0.5992,0.5976,0.4934,0.3906,0.3676,0.3559,0.3249,0.257,0.2507,0.2422,0.2058,0.2049,0.2028,0.1973,0.1964,0.1964,0.1964,0.1964,0.1964,0.1964,0.2462,0.2571,0.202,0.2972,0.3137,0.202,0.2471,0.2527,0.1964,0.1964,0.1964,0.1964,0.2516,0.2792,0.2792,0.3347,0.3627,0.368,0.3125,0.3181,0.3738,0.3738,0.4073,0.4574,0.4574,0.4853,0.5297,0.5297,0.5297,0.5297,0.5297,0.5297,0.5297,0.5297,0.5297,0.5297,0.5297,0.5297,0.5242,0.5242,0.5242,0.5242,0.5242,0.5242,0.5242,0.5242,0.5183,0.5399,0.6701,0.6923,0.7079,0.7605,0.7765,0.7984,0.8586,0.8752,0.8752,0.8752,0.8752,0.8804,0.8804,0.8804,0.8804,0.8804,0.8804,0.8804,0.8857,0.8857,0.912,0.9658,1.0082,1.0477,1.1003,1.1383,1.1407,1.1072,0.9734,0.9194,0.9666,0.9658,0.9932,1.0462,1.0462,1.0653,1.1072,1.1376,1.1759,0.5962,0.5953,0.581,0.6183,0.5829,0.5359,0.5166,0.4754,0.4418,0.4529,0.391,0.3123,0.2414,0.2457,0.262,0.2544,0.2934,0.3207,0.3241,0.3239,0.3239,0.3239,0.3239,0.3239,0.3239,0.335,0.3352,0.3249,0.3429,0.3485,0.3239,0.334,0.3335,0.3229,0.3229,0.3231,0.3239,0.335,0.3403,0.3403,0.3516,0.3849,0.4294,0.4184,0.4405,0.4908,0.4908,0.5018,0.5132,0.5132,0.5187,0.5297,0.5297,0.5297,0.5297,0.5297,0.5297,0.5297,0.5297,0.5242,0.5128,0.5128,0.5069,0.5011,0.5011,0.5011,0.5011,0.5011,0.5011,0.5011,0.5011,0.4956,0.512,0.5882,0.5719,0.5555,0.6268,0.6642,0.7069,0.7658,0.815,0.848,0.848,0.858,0.8685,0.8804,0.8692,0.8685,0.8804,0.8804,0.8956,0.9361,0.9413,0.9769,1.0615,1.0808,1.1012,1.1455,1.1232,1.1216,1.1463,1.0872,1.0453,1.0218,1.0218,1.0454,1.0897,1.0897,1.1072,1.1479,1.184,1.2049,0.6019,0.6017,0.5956,0.6345,0.6009,0.5588,0.5352,0.5191,0.4982,0.478,0.4178,0.348,0.297,0.3016,0.3125,0.3125,0.3403,0.3624,0.3624,0.3624,0.3624,0.3624,0.3624,0.3624,0.3624,0.3849,0.3904,0.3627,0.4086,0.4193,0.3613,0.3889,0.3889,0.3611,0.3616,0.3619,0.3624,0.3904,0.4015,0.4015,0.4294,0.4574,0.4908,0.4908,0.5018,0.5297,0.5297,0.5297,0.5297,0.5297,0.5297,0.5297,0.5297,0.5297,0.5297,0.5297,0.5297,0.5297,0.5242,0.5183,0.5069,0.5014,0.4956,0.4897,0.4897,0.4897,0.4897,0.4897,0.4897,0.4897,0.4897,0.4846,0.4959,0.5664,0.5555,0.5609,0.6539,0.6864,0.7182,0.7824,0.8203,0.8421,0.8421,0.8474,0.8527,0.8685,0.8633,0.8679,0.8937,0.9011,0.9173,0.9576,0.9652,1.0093,1.1138,1.1424,1.1873,1.2629,1.2694,1.2694,1.2694,1.2513,1.2066,1.1411,1.1237,1.1442,1.2089,1.2089,1.2286,1.2702,1.29,1.304,0.5791,0.594,0.6103,0.6358,0.627,0.6072,0.5832,0.5648,0.5399,0.4897,0.4405,0.3965,0.3683,0.3683,0.3738,0.3738,0.3849,0.3904,0.3904,0.3904,0.3904,0.3904,0.3904,0.3904,0.3904,0.4349,0.4457,0.3947,0.4791,0.4897,0.3935,0.434,0.4401,0.3892,0.3901,0.3904,0.3904,0.4405,0.4629,0.4629,0.5077,0.5297,0.5297,0.5297,0.5297,0.5297,0.5297,0.5297,0.5297,0.5297,0.5297,0.5297,0.5297,0.5297,0.5297,0.5297,0.5297,0.5242,0.5128,0.5073,0.5018,0.4901,0.4846,0.4846,0.4846,0.4846,0.4846,0.4846,0.4846,0.4846,0.4846,0.4794,0.4959,0.5719,0.5937,0.6263,0.7139,0.7354,0.7568,0.8103,0.8262,0.8321,0.8374,0.8321,0.8368,0.8521,0.8521,0.8684,0.9088,0.9128,0.9296,0.9762,0.9795,1.0329,1.1461,1.1895,1.2497,1.3562,1.3888,1.3915,1.3696,1.3618,1.3334,1.2681,1.2303,1.2547,1.3396,1.3396,1.3598,1.3992,1.3992,1.4176,0.6246,0.6579,0.6742,0.6612,0.6341,0.6037,0.5855,0.5578,0.5297,0.5242,0.4794,0.4239,0.3683,0.4015,0.4405,0.4405,0.4794,0.5077,0.5077,0.5077,0.5077,0.5077,0.5077,0.5077,0.5077,0.5132,0.5187,0.5073,0.5187,0.5242,0.5069,0.5128,0.5128,0.5073,0.5073,0.5077,0.5077,0.5132,0.5187,0.5187,0.5242,0.5297,0.5297,0.5297,0.5297,0.5297,0.5297,0.5297,0.5297,0.5297,0.5297,0.5297,0.5297,0.5297,0.5297,0.5297,0.5242,0.5128,0.5124,0.4963,0.4743,0.4743,0.4632,0.4574,0.4574,0.4574,0.4574,0.4574,0.4574,0.4574,0.4574,0.4901,0.5391,0.5991,0.6534,0.6864,0.6598,0.6869,0.7192,0.7246,0.7628,0.8002,0.8221,0.8055,0.8055,0.8374,0.8321,0.8422,0.8805,0.8961,0.9296,1.0029,1.0286,1.0805,1.1733,1.1913,1.2123,1.2668,1.2389,1.2365,1.2676,1.2562,1.2788,1.3339,1.3188,1.3351,1.38,1.38,1.402,1.4433,1.4433,1.446,0.6272,0.6283,0.6198,0.6345,0.6199,0.5984,0.5846,0.5628,0.5442,0.5442,0.5194,0.4853,0.4629,0.4794,0.4963,0.4963,0.5132,0.5297,0.5297,0.5297,0.5297,0.5297,0.5297,0.5297,0.5297,0.5297,0.5297,0.5297,0.5297,0.5297,0.5297,0.5297,0.5297,0.5297,0.5297,0.5297,0.5297,0.5297,0.5297,0.5297,0.5297,0.5297,0.5297,0.5297,0.5297,0.5297,0.5297,0.5297,0.5297,0.5297,0.5297,0.5297,0.5242,0.5183,0.5183,0.5124,0.5014,0.4959,0.4904,0.4798,0.4688,0.4632,0.4574,0.4519,0.4519,0.4519,0.4519,0.4519,0.4519,0.457,0.4846,0.5117,0.5555,0.648,0.6918,0.7139,0.7198,0.7413,0.7574,0.7574,0.7735,0.7955,0.8008,0.7955,0.8008,0.8268,0.8221,0.8425,0.8959,0.9201,0.955,1.0174,1.0464,1.0877,1.1624,1.1699,1.1936,1.2504,1.2308,1.2292,1.2504,1.2457,1.2738,1.3502,1.3566,1.3827,1.4231,1.4231,1.4332,1.4515,1.4515,1.4515,0.6141,0.6011,0.5814,0.6183,0.6076,0.5957,0.5941,0.5811,0.5727,0.5793,0.5732,0.5627,0.574,0.5517,0.5352,0.5513,0.5513,0.5567,0.5732,0.5732,0.5732,0.5732,0.5622,0.5513,0.5513,0.5407,0.5297,0.5297,0.5297,0.5297,0.5297,0.5297,0.5297,0.5297,0.5297,0.5297,0.5297,0.5297,0.5297,0.5297,0.5297,0.5297,0.5297,0.5297,0.5297,0.5297,0.5297,0.5297,0.5297,0.5242,0.5242,0.5242,0.5124,0.5069,0.5014,0.4956,0.4901,0.4846,0.4743,0.4688,0.4632,0.4519,0.4519,0.4519,0.4519,0.4519,0.4519,0.4519,0.4574,0.4791,0.5171,0.555,0.5991,0.6864,0.7192,0.7408,0.7794,0.7901,0.7919,0.7991,0.7997,0.8021,0.8087,0.8099,0.8154,0.8318,0.8318,0.854,0.9122,0.9375,0.9693,1.0186,1.0371,1.0744,1.124,1.1303,1.1476,1.1965,1.2027,1.2027,1.2027,1.2328,1.2757,1.326,1.3776,1.4194,1.4515,1.4515,1.4515,1.4515,1.4515,1.4515,0.5975,0.6081,0.611,0.6311,0.6261,0.6103,0.6158,0.6059,0.6002,0.64,0.6463,0.6567,0.696,0.6059,0.5458,0.605,0.6154,0.6372,0.6918,0.7031,0.7031,0.7031,0.6485,0.6154,0.6154,0.5622,0.5297,0.5297,0.5297,0.5297,0.5297,0.5297,0.5297,0.5297,0.5297,0.5297,0.5297,0.5297,0.5297,0.5297,0.5297,0.5297,0.5297,0.5297,0.5297,0.5297,0.5297,0.5297,0.5297,0.5183,0.5124,0.5069,0.4956,0.4901,0.4901,0.4897,0.4794,0.4691,0.4691,0.4632,0.4519,0.4519,0.4519,0.4519,0.4519,0.4519,0.4519,0.4519,0.4846,0.5281,0.5277,0.6154,0.7031,0.7085,0.7467,0.7848,0.7901,0.7901,0.7973,0.8219,0.8273,0.8345,0.8597,0.8639,0.8639,0.8697,0.8697,0.8794,0.9071,0.9291,0.9587,0.9952,1.0174,1.0428,1.0624,1.0624,1.0681,1.0681,1.0681,1.0681,1.0681,1.1841,1.2512,1.2573,1.3803,1.4488,1.4515,1.4515,1.4515,1.4515,1.4515,1.4515,0.5739,0.5842,0.5901,0.6453,0.638,0.6373,0.7188,0.7021,0.6847,0.7229,0.725,0.714,0.7128,0.6761,0.6544,0.6756,0.6756,0.6864,0.7085,0.7085,0.7085,0.7085,0.6918,0.6756,0.6756,0.6213,0.59,0.5872,0.5529,0.5297,0.5297,0.5297,0.5297,0.5297,0.5297,0.5297,0.5297,0.5297,0.5297,0.5297,0.5297,0.5297,0.5297,0.5297,0.5242,0.5183,0.5183,0.5183,0.5183,0.5014,0.4956,0.4956,0.4849,0.4794,0.4739,0.468,0.4629,0.4574,0.4574,0.4519,0.4519,0.4519,0.4519,0.4519,0.4519,0.4736,0.5007,0.5007,0.5445,0.5987,0.6372,0.6756,0.7192,0.7521,0.7735,0.7901,0.7901,0.8033,0.8177,0.8273,0.8423,0.8567,0.8663,0.8681,0.8681,0.8681,0.8681,0.883,0.9218,0.9444,0.9742,1.0148,1.0737,1.1115,1.1178,1.1538,1.1841,1.1841,1.1841,1.1841,1.1841,1.2266,1.2696,1.313,1.3631,1.407,1.4515,1.4515,1.4515,1.4515,1.4515,1.4515,0.5494,0.5693,0.5804,0.6638,0.6578,0.6682,0.7887,0.7814,0.7572,0.8001,0.7946,0.7852,0.7686,0.7676,0.7622,0.7402,0.7348,0.7456,0.7622,0.7676,0.7676,0.7676,0.7509,0.7348,0.7354,0.6869,0.6401,0.622,0.5817,0.5529,0.5301,0.5297,0.5297,0.5297,0.5297,0.5297,0.5297,0.5297,0.5297,0.5297,0.5297,0.5297,0.5297,0.5242,0.5183,0.5069,0.5014,0.5014,0.5014,0.4901,0.4846,0.4794,0.4684,0.4632,0.4632,0.4519,0.4519,0.4519,0.4519,0.4519,0.4519,0.4519,0.4519,0.4515,0.4736,0.5007,0.5332,0.5555,0.6046,0.6588,0.6972,0.7246,0.7467,0.7794,0.7901,0.7901,0.7901,0.8039,0.8213,0.8387,0.8561,0.8735,0.8914,0.895,0.895,0.895,0.895,0.9071,0.937,0.9829,1.021,1.0521,1.1288,1.1787,1.1849,1.2266,1.2512,1.2512,1.2512,1.2512,1.2512,1.2696,1.307,1.3502,1.37,1.407,1.4515,1.4515,1.4515,1.4515,1.4515,1.4515,0.0,0.0,0.0,0.6827,0.6895,0.7026,0.8238,0.828,0.8115,0.8534,0.8598,0.8673,0.8804,0.8804,0.8586,0.8037,0.7925,0.8143,0.8699,0.8804,0.8804,0.8804,0.8309,0.7937,0.7949,0.7424,0.69,0.627,0.6225,0.5991,0.5356,0.5301,0.5297,0.5297,0.5297,0.5297,0.5297,0.5297,0.5297,0.5297,0.5297,0.5297,0.5297,0.5183,0.5069,0.5073,0.4798,0.4794,0.4901,0.4739,0.4688,0.4688,0.4574,0.4519,0.4519,0.4519,0.4519,0.4519,0.4519,0.4519,0.4519,0.4519,0.4519,0.4625,0.5117,0.5336,0.5445,0.6046,0.6647,0.7139,0.7139,0.7521,0.7901,0.7901,0.7901,0.7901,0.7901,0.7901,0.8051,0.8567,0.8681,0.8855,0.937,0.9472,0.9478,0.9472,0.9478,0.9484,0.9548,1.0281,1.0899,1.1017,1.1826,1.2389,1.2512,1.2573,1.2573,1.2573,1.2573,1.2573,1.2573,1.3199,1.3511,1.3511,1.4198,1.4515,1.4515,1.4515,1.4515,1.4515,1.4515,1.4515,0.4625,0.0,0.0,0.0,0.0,0.0,0.8613,0.8693,0.8522,0.8959,0.9015,0.8961,0.8825,0.8804,0.8752,0.8586,0.8533,0.8586,0.8752,0.8804,0.8804,0.8804,0.8639,0.8533,0.854,0.8025,0.7635,0.7427,0.709,0.6579,0.5991,0.5529,0.5297,0.5297,0.5297,0.5297,0.5297,0.5297,0.5297,0.5297,0.5297,0.5242,0.5128,0.5128,0.5018,0.4798,0.4743,0.4688,0.4625,0.4574,0.4574,0.4574,0.4519,0.4519,0.4519,0.4519,0.4519,0.4519,0.4519,0.4519,0.4519,0.4519,0.4519,0.4625,0.5117,0.5605,0.61,0.6701,0.7246,0.7687,0.7687,0.7794,0.7901,0.7901,0.7901,0.7901,0.7901,0.7901,0.7997,0.8333,0.8699,0.8944,0.8908,0.9226,0.9418,0.9208,0.9352,0.9792,1.0465,1.0773,1.1267,1.2012,1.2757,1.3199,1.3199,1.3692,1.395,1.395,1.395,1.395,1.395,1.413,1.4198,1.4198,1.4387,1.4515,1.4515,1.4515,1.4515,1.4515,1.4515,1.4515,0.4366,0.4957,0.5682,0.6673,0.0,0.0,0.8644,0.8826,0.8814,0.9056,0.9134,0.9042,0.8858,0.8804,0.8804,0.8804,0.8804,0.8804,0.8804,0.8804,0.8804,0.8804,0.8804,0.8804,0.8804,0.8508,0.8159,0.7923,0.7622,0.7079,0.6225,0.5644,0.5297,0.5297,0.5297,0.5297,0.5297,0.5297,0.5297,0.5297,0.5242,0.5183,0.5069,0.4963,0.4853,0.4688,0.4632,0.4574,0.4519,0.4519,0.4519,0.4519,0.4519,0.4519,0.4519,0.4519,0.4519,0.4519,0.4519,0.4519,0.4519,0.4736,0.4846,0.5007,0.5828,0.6317,0.6701,0.7246,0.7681,0.7901,0.7901,0.7901,0.7901,0.7901,0.7901,0.7901,0.7901,0.7901,0.8009,0.8381,0.8699,0.8926,0.8998,0.9274,0.943,0.9262,0.9376,0.9792,1.0598,1.1142,1.1703,1.2512,1.3381,1.3941,1.3941,1.4267,1.4515,1.4515,1.4515,1.4515,1.4515,1.4515,1.4515,1.4515,1.4515,1.4515,1.4515,1.4515,1.4515,1.4515,1.4515,1.4515,0.426,0.4936,0.5665,0.6463,0.6929,0.0,0.8305,0.872,0.8905,0.8984,0.8978,0.8954,0.8805,0.8804,0.8804,0.8804,0.8804,0.8804,0.8804,0.8804,0.8804,0.8804,0.8804,0.8804,0.8804,0.8804,0.8573,0.8041,0.7923,0.7427,0.6334,0.5703,0.5356,0.5297,0.5297,0.5297,0.5297,0.5297,0.5297,0.5297,0.5128,0.5069,0.5069,0.4798,0.4688,0.4688,0.4574,0.4519,0.4519,0.4519,0.4519,0.4519,0.4519,0.4519,0.4519,0.4519,0.4519,0.4519,0.4519,0.4519,0.468,0.5171,0.5332,0.5605,0.6756,0.7085,0.7192,0.7741,0.7901,0.7901,0.7901,0.7901,0.7901,0.7901,0.7901,0.7901,0.7901,0.7901,0.8057,0.8579,0.8681,0.8831,0.931,0.9506,0.96,0.957,0.9588,0.9862,1.0428,1.1469,1.232,1.2887,1.389,1.4455,1.4446,1.4455,1.4455,1.4446,1.4455,1.4515,1.4515,1.4515,1.4515,1.4515,1.4515,1.4515,1.4515,1.4565,1.4506,1.4446,1.4506,1.4506,0.3844,0.4454,0.5139,0.6239,0.6706,0.0,0.7836,0.8214,0.8447,0.8777,0.8838,0.8825,0.8818,0.8804,0.8804,0.8804,0.8804,0.8804,0.8804,0.8804,0.8804,0.8804,0.8804,0.8804,0.8804,0.8804,0.8752,0.8633,0.8159,0.7605,0.6978,0.6344,0.5817,0.5301,0.5297,0.5297,0.5297,0.5183,0.5128,0.5128,0.5011,0.4904,0.4798,0.4743,0.4632,0.4519,0.4519,0.4519,0.4519,0.4519,0.4519,0.4519,0.4519,0.4519,0.4519,0.4519,0.4519,0.4519,0.4519,0.4791,0.5171,0.5281,0.5609,0.6154,0.6864,0.7085,0.7192,0.7741,0.7901,0.7901,0.7901,0.7901,0.7901,0.7901,0.7901,0.7901,0.7901,0.7901,0.8057,0.8579,0.8681,0.8711,0.8819,0.9562,1.0097,0.9852,1.0325,1.0989,1.1809,1.2343,1.2948,1.37,1.4198,1.4387,1.413,1.4327,1.4387,1.413,1.4327,1.4515,1.4515,1.4515,1.4515,1.4515,1.4515,1.4515,1.4515,1.4902,1.4715,1.4139,1.4488,1.4597,0.3322,0.4114,0.5005,0.5522,0.6155,0.0,0.0,0.7527,0.7991,0.8187,0.8474,0.8745,0.8804,0.8804,0.8804,0.8804,0.8804,0.8804,0.8804,0.8804,0.8864,0.9005,0.901,0.9079,0.9249,0.9228,0.9169,0.899,0.8455,0.7972,0.7543,0.6678,0.6073,0.5782,0.5462,0.5242,0.5183,0.5128,0.5069,0.5011,0.4849,0.4743,0.4691,0.4632,0.4574,0.4519,0.4519,0.4519,0.4519,0.4519,0.4519,0.4515,0.4791,0.4736,0.457,0.5117,0.5171,0.4952,0.5226,0.55,0.5769,0.61,0.6426,0.6756,0.73,0.7521,0.7574,0.7848,0.7901,0.7901,0.7901,0.7901,0.7901,0.7901,0.7901,0.7901,0.7901,0.7901,0.8069,0.8739,0.899,0.9172,0.9455,0.9982,1.0389,1.0438,1.076,1.1233,1.1988,1.2351,1.2781,1.3407,1.383,1.395,1.3761,1.407,1.4198,1.401,1.4318,1.4515,1.4515,1.4515,1.4446,1.4258,1.4079,1.401,1.401,1.446,1.446,1.401,1.4419,1.4529,0.2911,0.3797,0.4702,0.4766,0.5596,0.6347,0.0,0.0,0.0,0.7676,0.8143,0.8521,0.8752,0.8804,0.8804,0.8804,0.8804,0.8804,0.8804,0.8804,0.8891,0.907,0.9171,0.9303,0.9566,0.9575,0.9515,0.9268,0.8637,0.8209,0.7961,0.6848,0.6193,0.6215,0.5563,0.5219,0.5069,0.5014,0.4959,0.4846,0.4739,0.4688,0.4632,0.4574,0.4519,0.4519,0.4519,0.4519,0.4519,0.4519,0.457,0.468,0.5117,0.5007,0.4791,0.5828,0.5882,0.5555,0.6046,0.6263,0.648,0.6923,0.7192,0.7354,0.7788,0.7901,0.7901,0.7901,0.7901,0.7901,0.7901,0.7901,0.7901,0.7901,0.7901,0.7901,0.7901,0.8045,0.8317,0.8974,0.9435,0.9892,1.025,1.0554,1.0819,1.1135,1.124,1.149,1.1926,1.2297,1.2666,1.3042,1.3459,1.3692,1.3571,1.3881,1.407,1.401,1.4258,1.4446,1.4515,1.4446,1.4258,1.389,1.3631,1.3511,1.3511,1.3803,1.3923,1.383,1.4172,1.4341,0.2833,0.3084,0.3492,0.4471,0.4981,0.5366,0.6054,0.0,0.6885,0.7705,0.0,0.8143,0.8699,0.0,0.0,0.8804,0.8804,0.8804,0.8804,0.8804,0.8818,0.8851,0.9035,0.9225,0.9279,0.924,0.9308,0.9383,0.8508,0.8021,0.8265,0.6944,0.6177,0.6217,0.5526,0.505,0.4901,0.4798,0.4743,0.4743,0.4574,0.4519,0.4519,0.4519,0.4519,0.4519,0.4519,0.4519,0.4519,0.4519,0.4791,0.5226,0.5281,0.5281,0.5277,0.5937,0.6154,0.61,0.6154,0.6534,0.7031,0.7085,0.7413,0.7848,0.7901,0.7901,0.7901,0.7901,0.7901,0.7901,0.7901,0.7901,0.7901,0.7901,0.7901,0.7901,0.7901,0.8457,0.9043,0.9381,1.0157,1.0704,1.0516,1.1142,1.1695,1.167,1.212,1.2436,1.2498,1.3033,1.339,1.345,1.401,1.4258,1.395,1.4258,1.4327,1.401,1.401,1.4198,1.4506,1.4198,1.3881,1.3571,1.3511,1.3511,1.3511,1.3277,1.3103,1.3103,1.3606,1.3726,0.2279,0.2683,0.3137,0.3612,0.4017,0.4507,0.5178,0.557,0.6027,0.6761,0.0,0.0,0.0,0.0,0.0,0.0,0.8586,0.8804,0.8804,0.8804,0.8871,0.9038,0.9147,0.9317,0.9602,0.9706,0.9513,0.8953,0.8463,0.8012,0.7656,0.6691,0.622,0.6176,0.5589,0.5203,0.5009,0.4869,0.477,0.4709,0.456,0.4519,0.4519,0.4519,0.4519,0.4519,0.4846,0.4952,0.5007,0.5336,0.5605,0.5882,0.6209,0.6154,0.5937,0.6864,0.6972,0.6756,0.7079,0.7354,0.7574,0.7574,0.7741,0.7901,0.7901,0.7901,0.7901,0.7901,0.7901,0.7901,0.7901,0.7901,0.7901,0.7901,0.7901,0.7943,0.8093,0.865,0.9256,0.9778,1.0566,1.121,1.1338,1.1661,1.2011,1.222,1.2436,1.2621,1.2621,1.2981,1.3216,1.3216,1.364,1.3881,1.37,1.401,1.407,1.3761,1.37,1.3761,1.3881,1.3588,1.3346,1.3216,1.3042,1.2981,1.2981,1.2858,1.2744,1.2805,1.3321,1.3563,0.1868,0.2284,0.2701,0.2881,0.3182,0.3645,0.427,0.4633,0.5046,0.5764,0.6258,0.0,0.0,0.0,0.7664,0.7664,0.0,0.8533,0.8533,0.8699,0.8884,0.9044,0.913,0.9381,0.9831,0.9869,0.9484,0.8658,0.8242,0.7802,0.722,0.6425,0.6042,0.6185,0.5643,0.52,0.5032,0.4928,0.4852,0.4691,0.4579,0.456,0.4519,0.4519,0.457,0.4736,0.5117,0.5386,0.5609,0.6046,0.6317,0.6485,0.6918,0.6918,0.6756,0.7574,0.7628,0.7354,0.7788,0.7901,0.7901,0.7901,0.7901,0.7901,0.7901,0.7901,0.7901,0.7901,0.7901,0.7901,0.7901,0.7901,0.7901,0.7901,0.7901,0.8027,0.8453,0.9013,0.9658,1.0314,1.1167,1.1819,1.2103,1.217,1.2258,1.2581,1.2621,1.2621,1.2621,1.292,1.3103,1.2981,1.3459,1.37,1.3511,1.3821,1.3821,1.339,1.345,1.345,1.3268,1.3103,1.2989,1.2867,1.2683,1.2621,1.2621,1.2621,1.2621,1.2621,1.3033,1.3277,0.1817,0.1802,0.197,0.2579,0.2742,0.2907,0.3519,0.3627,0.3953,0.4941,0.5265,0.5697,0.6691,0.702,0.7139,0.7139,0.7557,0.0,0.0,0.8421,0.8811,0.8824,0.9063,0.9341,0.9668,0.9424,0.9077,0.8658,0.7705,0.7224,0.7371,0.6172,0.5672,0.6207,0.5505,0.5057,0.4918,0.4914,0.4836,0.4691,0.4684,0.4606,0.4519,0.4519,0.4791,0.5281,0.5277,0.5609,0.6154,0.6209,0.6534,0.7085,0.7085,0.7408,0.7848,0.7901,0.7901,0.7901,0.7901,0.7901,0.7901,0.7901,0.7901,0.7901,0.7901,0.7901,0.7901,0.7901,0.7901,0.7901,0.7901,0.7901,0.7901,0.7901,0.7901,0.8135,0.889,0.9672,1.0494,1.1241,1.2003,1.2544,1.2605,1.2605,1.2613,1.2621,1.2621,1.2621,1.2621,1.3094,1.3329,1.3042,1.3899,1.4198,1.3571,1.3821,1.3709,1.3042,1.3338,1.3216,1.2621,1.2867,1.2867,1.2621,1.2621,1.2621,1.2621,1.2621,1.2621,1.2621,1.2621,1.2621,0.1633,0.1797,0.1796,0.1681,0.1624,0.179,0.2399,0.2565,0.2785,0.3727,0.4061,0.4336,0.4882,0.5483,0.6032,0.6322,0.6918,0.7348,0.0,0.7859,0.8336,0.8752,0.8983,0.9086,0.9108,0.8664,0.8152,0.7659,0.6927,0.639,0.6113,0.5704,0.5602,0.5676,0.5415,0.526,0.5213,0.5111,0.4986,0.4843,0.4843,0.4707,0.4522,0.5186,0.5509,0.5624,0.6611,0.7135,0.737,0.7714,0.7852,0.7877,0.7877,0.7888,0.7901,0.7901,0.7901,0.7901,0.7901,0.7901,0.7901,0.7901,0.7901,0.7901,0.7901,0.7901,0.7901,0.7901,0.7901,0.7901,0.7901,0.7901,0.7943,0.8117,0.8159,0.8329,0.894,0.9583,1.0154,1.0595,1.1418,1.2058,1.2058,1.2375,1.2621,1.2621,1.2621,1.2621,1.2621,1.292,1.3103,1.2981,1.3528,1.3761,1.3511,1.3398,1.3224,1.2981,1.292,1.2797,1.2629,1.2683,1.2683,1.2621,1.2621,1.2621,1.2621,1.2621,1.2621,1.2621,1.3033,1.3216,0.1403,0.1685,0.1741,0.1403,0.1347,0.1402,0.1621,0.1676,0.1899,0.2621,0.2901,0.3234,0.3953,0.4388,0.4941,0.5618,0.6154,0.6583,0.0,0.7362,0.777,0.8336,0.8685,0.8758,0.8427,0.8019,0.7458,0.6758,0.638,0.5944,0.5524,0.5545,0.5531,0.5443,0.5443,0.5416,0.5428,0.526,0.5138,0.4996,0.4996,0.4863,0.469,0.5593,0.6045,0.6164,0.7357,0.8016,0.8198,0.8557,0.8525,0.8291,0.8291,0.8129,0.7901,0.7901,0.7901,0.7901,0.7901,0.7901,0.7919,0.8009,0.8039,0.8057,0.8153,0.8177,0.8177,0.8177,0.8177,0.8177,0.8177,0.8177,0.8219,0.8387,0.8429,0.8601,0.9271,0.9669,1.0004,1.0431,1.1052,1.149,1.149,1.1934,1.2375,1.256,1.2621,1.2621,1.2621,1.2805,1.2989,1.2867,1.3216,1.345,1.3338,1.3042,1.2867,1.2867,1.2683,1.2621,1.2621,1.2621,1.2621,1.2621,1.2621,1.2621,1.2621,1.2621,1.2621,1.2621,1.3216,1.3631]},{"header":{"parameterUnit":"m.s-1","parameterCategory":1,"la1":30.6,"la2":29.2853,"lo1":-89.7004,"lo2":-87.6739,"dy":0.0162,"dx":0.0183,"nx":112,"ny":82,"refTime":"2025-08-17T12:00:00:Z","depth":0,"parameterNumber":3,"parameterNumberName":"V-component_of_WINDS"},"data":[0.0,0.0,0.0,0.0,0.0,0.0,0.0,0.0,0.0,0.0,0.0,0.0,0.0,0.0,0.0,0.0,0.0,0.0,0.0,0.0,0.0,0.0,0.0,0.0,0.0,0.0,0.0,0.0,0.0,0.0,0.0,0.0,0.0,0.0,0.0,0.0,0.0,0.0,0.0,0.0,0.0,0.0,0.0,0.0,0.0,0.0,0.0,0.0,0.0,0.0,0.0,0.0,0.0,0.0,0.0,0.0,0.0,0.0,0.0,0.0,0.0,0.0,0.0,0.0,0.0,0.0,0.0,0.0,0.0,0.0,0.0,0.0,0.0,0.0,0.0,0.0,0.0,0.0,0.0,0.0,0.0,0.0,0.0,0.0,0.0,0.0,0.0,0.0,0.0,0.0,1.5523,1.5013,1.2168,1.0302,1.0289,1.2128,1.3415,1.3781,0.0,0.0,0.0,0.0,0.0,0.0,0.0,0.0,0.0,0.0,0.0,0.0,0.0,0.0,0.0,0.0,0.0,0.0,0.0,0.0,0.0,0.0,0.0,0.0,0.0,0.0,0.0,0.0,0.0,0.0,0.0,0.0,0.0,0.0,0.0,0.0,0.0,0.0,0.0,0.0,0.0,0.0,0.0,0.0,0.0,0.0,0.0,0.0,0.0,0.0,0.0,0.0,0.0,0.0,0.0,0.0,0.0,0.0,0.0,0.0,0.0,0.0,0.0,0.0,0.0,0.0,0.0,0.0,0.0,0.0,0.0,0.0,0.0,0.0,0.0,0.0,0.0,0.0,0.0,0.0,0.0,0.0,0.0,0.0,0.0,0.0,0.0,0.0,0.0,0.0,0.0,0.0,0.0,0.0,0.0,0.0,0.0,0.0,0.0,0.0,0.0,0.0,0.0,0.0,1.4293,1.1442,1.0638,1.0289,1.0293,1.0624,1.1682,1.3678,0.0,0.0,0.0,0.0,0.0,0.0,0.0,0.0,0.0,0.0,0.0,0.0,0.0,0.0,0.0,0.0,0.0,0.0,0.0,0.0,0.0,0.0,0.0,0.0,0.0,0.0,0.0,0.0,0.0,0.0,0.0,0.0,0.0,0.0,0.0,0.0,0.0,0.0,0.0,0.0,0.0,0.0,0.0,0.0,0.0,0.0,0.0,0.0,0.0,0.0,0.0,0.0,0.0,0.0,0.0,0.0,0.0,0.0,0.0,0.0,0.0,0.0,0.0,0.0,0.0,0.0,0.0,0.0,0.0,0.0,0.0,0.0,0.0,0.0,0.0,0.0,0.0,0.0,0.0,0.0,0.0,0.0,0.0,0.0,0.0,0.0,0.0,0.0,0.0,0.0,0.0,0.0,0.0,0.0,0.0,0.0,0.0,0.0,0.0,0.0,0.0,0.0,0.0,1.3582,1.1775,1.0246,1.0084,1.0085,1.0069,1.0234,1.1286,1.3639,1.2011,0.0,0.0,0.0,0.0,0.0,0.0,0.0,0.0,0.0,0.0,0.0,0.0,0.0,0.0,0.0,0.0,0.0,0.0,0.0,0.0,0.0,0.0,0.0,0.0,0.0,0.0,0.0,0.0,0.0,0.0,0.0,0.0,0.0,0.0,0.0,0.0,0.0,0.0,0.0,0.0,0.0,0.0,0.0,0.0,0.0,0.0,0.0,0.0,0.0,0.0,0.0,0.0,0.0,0.0,0.0,0.0,0.0,0.0,0.0,0.0,0.0,0.0,0.0,0.0,0.0,0.0,0.0,0.0,0.0,0.0,0.0,0.0,0.0,0.0,0.0,0.0,0.0,0.0,0.0,0.0,0.0,0.0,0.0,0.0,0.0,0.0,0.0,0.0,0.0,0.0,0.0,0.0,0.0,0.0,0.0,0.0,0.0,0.0,0.0,0.0,0.0,0.0,1.2154,0.9891,0.9912,0.9905,0.9894,0.9894,1.0093,1.1215,1.3657,1.0973,0.0,0.0,0.0,0.0,0.0,0.0,0.0,0.0,0.0,0.0,0.0,0.0,0.0,0.0,0.0,0.0,0.0,0.0,0.0,0.0,0.0,0.0,0.0,0.0,0.0,0.0,0.0,0.0,0.0,0.0,0.0,0.0,0.0,0.0,0.0,0.0,0.0,0.0,0.0,0.0,0.0,0.0,0.0,0.0,0.0,0.0,0.0,0.0,0.0,0.0,0.0,0.0,0.0,0.0,0.0,0.0,0.0,0.0,0.0,0.0,0.0,0.0,0.0,0.0,0.0,0.0,0.0,0.0,0.0,0.0,0.0,0.0,0.0,0.0,0.0,0.0,0.0,0.0,0.0,0.0,0.0,0.0,0.0,0.0,0.0,0.0,0.0,0.0,0.0,0.0,0.0,0.0,0.0,0.0,0.0,0.0,0.0,0.0,0.0,0.0,0.0,0.0,1.2155,0.9891,0.9891,0.9905,0.9906,0.9906,0.9909,1.1046,1.3654,1.2237,0.0,0.0,0.0,0.0,0.0,0.0,0.0,0.0,0.0,0.0,0.0,0.0,0.0,0.0,0.0,0.0,0.0,0.0,0.0,0.0,0.0,0.0,0.0,0.0,0.0,0.0,0.0,0.0,0.0,0.0,0.0,0.0,0.0,0.0,0.0,0.0,0.0,0.0,0.0,0.0,0.0,0.0,0.0,0.0,0.0,0.0,0.0,0.0,0.0,0.0,0.0,0.0,0.0,0.0,0.0,0.0,0.0,0.0,0.0,0.0,0.0,0.0,0.0,0.0,0.0,0.0,0.0,0.0,0.0,0.0,0.0,0.0,0.0,0.0,0.0,0.0,0.0,0.0,0.0,0.0,0.0,0.0,0.0,0.0,0.0,0.0,0.0,0.0,0.0,0.0,0.0,0.0,0.0,0.0,0.0,0.0,0.0,0.0,0.0,0.0,0.0,0.0,1.2155,0.9891,0.9905,0.9905,0.9893,0.9906,0.9903,1.0506,1.1893,0.0,0.0,0.0,0.0,0.0,0.0,0.0,0.0,0.0,0.0,0.0,0.0,0.0,0.0,0.0,0.0,0.0,0.0,0.0,0.0,0.0,0.0,0.0,0.0,0.0,0.0,0.0,0.0,0.0,0.0,0.0,0.0,0.0,0.0,0.0,0.0,0.0,0.0,0.0,0.0,0.0,0.0,0.0,0.0,0.0,0.0,0.0,0.0,0.0,0.0,0.0,0.0,0.0,0.0,0.0,0.0,0.0,0.0,0.0,0.0,0.0,0.0,0.0,0.0,0.0,0.0,0.0,0.0,0.0,0.0,0.0,0.0,0.0,0.0,0.0,0.0,0.0,0.0,0.0,0.0,0.0,0.0,0.0,0.0,0.0,0.0,0.0,0.0,0.0,0.0,0.0,0.0,0.0,0.0,0.0,0.0,0.0,0.0,0.0,0.0,0.0,0.0,1.5311,1.2135,0.9905,0.9909,0.989,0.9905,0.9905,0.9892,1.0182,1.0862,0.0,0.0,0.0,0.0,0.0,0.0,0.0,0.0,0.0,0.0,0.0,0.0,0.0,0.0,0.0,0.0,0.0,0.0,0.0,0.0,0.0,0.0,0.0,0.0,0.0,0.0,0.0,0.0,0.0,0.0,0.0,0.0,0.0,0.0,0.0,0.0,0.0,0.0,0.0,0.0,0.0,0.0,0.0,0.0,0.0,0.0,0.0,0.0,0.0,0.0,0.0,0.0,0.0,0.0,0.0,0.0,0.0,0.0,0.0,0.0,0.0,0.0,0.0,0.0,0.0,0.0,0.0,0.0,0.0,0.0,0.0,0.0,0.0,0.0,0.0,0.0,0.0,0.0,0.0,0.0,0.0,0.0,0.0,0.0,0.0,0.0,0.0,0.0,0.0,0.0,0.0,0.0,0.0,0.0,0.0,0.0,0.0,0.0,0.0,0.0,0.0,0.0,1.5315,1.2167,0.9921,0.9897,0.9882,0.9905,0.9905,0.9909,1.0205,0.0,0.0,0.0,0.0,0.0,0.0,0.0,0.0,0.0,0.0,0.0,0.0,0.0,0.0,0.0,0.0,0.0,0.0,0.0,0.0,0.0,0.0,0.0,0.0,0.0,0.0,0.0,0.0,0.0,0.0,0.0,0.0,0.0,0.0,0.0,0.0,0.0,0.0,0.0,0.0,0.0,0.0,0.0,0.0,0.0,0.0,0.0,0.0,0.0,0.0,0.0,0.0,0.0,0.0,0.0,0.0,0.0,0.0,0.0,0.0,0.0,0.0,0.0,0.0,0.0,0.0,0.0,0.0,0.0,0.0,0.0,0.0,0.0,0.0,0.0,0.0,0.0,0.0,0.0,0.0,0.0,0.0,0.0,0.0,0.0,0.0,0.0,0.0,0.0,0.0,0.0,0.0,0.0,0.0,0.0,0.0,0.0,0.0,0.0,0.0,0.0,0.0,0.0,1.5314,1.3507,1.1648,1.0069,0.9882,0.9905,0.9901,0.9897,1.0189,1.0875,0.0,0.0,0.0,0.0,0.0,0.0,0.0,0.0,0.0,0.0,0.0,0.0,0.0,0.0,0.0,0.0,0.0,0.0,0.0,0.0,0.0,0.0,0.0,0.0,0.0,0.0,0.0,0.0,0.0,0.0,0.0,0.0,0.0,0.0,0.0,0.0,0.0,0.0,0.0,0.0,0.0,0.0,0.0,0.0,0.0,0.0,0.0,0.0,0.0,0.0,0.0,0.0,0.0,0.0,0.0,0.0,0.0,0.0,0.0,0.0,0.0,0.0,0.0,0.0,0.0,0.0,0.0,0.0,0.0,0.0,0.0,0.0,0.0,0.0,0.0,0.0,0.0,0.0,0.0,0.0,0.0,0.0,0.0,0.0,0.0,0.0,0.0,0.0,0.0,0.0,0.0,0.0,0.0,0.0,0.0,0.0,0.0,0.0,0.0,0.0,0.0,0.0,1.4876,1.3912,1.2354,1.0142,0.9915,0.9891,0.9912,0.9493,0.941,0.9799,0.0,0.0,0.0,0.0,0.0,0.0,0.0,0.0,0.0,0.0,0.0,0.0,0.0,0.0,0.0,0.0,0.0,0.0,0.0,0.0,0.0,0.0,0.0,0.0,0.0,0.0,0.0,0.0,0.0,0.0,0.0,0.0,0.0,0.0,0.0,0.0,0.0,0.0,0.0,0.0,0.0,0.0,0.0,0.0,0.0,0.0,0.0,0.0,0.0,0.0,0.0,0.0,0.0,0.0,0.0,0.0,0.0,0.0,0.0,0.0,0.0,0.0,0.0,0.0,0.0,0.0,0.0,0.0,0.0,0.0,0.0,0.0,0.0,0.0,0.0,0.0,0.0,0.0,0.0,0.0,0.0,0.0,0.0,0.0,0.0,0.0,0.0,0.0,0.0,0.0,0.0,0.0,0.0,0.0,0.0,0.0,0.0,0.0,0.0,0.0,0.0,0.0,1.4132,1.3619,1.2346,1.0128,0.9896,0.9903,0.9898,0.8844,0.821,0.821,0.0,0.0,0.0,0.0,0.0,0.0,0.0,0.0,0.0,0.0,0.0,0.0,0.0,0.0,0.0,0.0,0.0,0.0,0.0,0.0,0.0,0.0,0.0,0.0,0.0,0.0,0.0,0.0,0.0,0.0,0.0,0.0,0.0,0.0,0.0,0.0,0.0,0.0,0.0,0.0,0.0,0.0,0.0,0.0,0.0,0.0,0.0,0.0,0.0,0.0,0.0,0.0,0.0,0.0,0.0,0.0,0.0,0.0,0.0,0.0,1.7079,1.672,0.0,0.0,0.0,0.0,0.0,0.0,0.0,0.0,0.0,0.0,0.0,0.0,0.0,0.0,0.0,0.0,0.0,0.0,0.0,0.0,0.0,0.0,0.0,0.0,0.0,0.0,0.0,0.0,0.0,0.0,0.0,0.0,0.0,0.0,0.0,0.0,0.0,0.0,0.0,0.0,1.3467,1.3293,1.2341,1.0156,0.989,0.9891,0.9885,0.8855,0.8182,0.8199,0.8246,0.0,0.0,0.0,0.0,0.0,0.0,0.0,0.0,0.0,0.0,0.0,0.0,0.0,0.0,0.0,0.0,0.0,0.0,0.0,0.0,0.0,0.0,0.0,0.0,0.0,0.0,0.0,0.0,0.0,0.0,0.0,0.0,0.0,0.0,0.0,0.0,0.0,0.0,0.0,0.0,0.0,0.0,0.0,0.0,0.0,0.0,0.0,0.0,0.0,0.0,0.0,0.0,0.0,0.0,0.0,0.0,0.0,0.0,0.0,1.8432,1.7806,0.0,0.0,0.0,0.0,0.0,0.0,0.0,0.0,0.0,0.0,0.0,0.0,0.0,0.0,0.0,0.0,0.0,0.0,0.0,0.0,0.0,0.0,0.0,0.0,0.0,0.0,0.0,0.0,0.0,0.0,0.0,0.0,0.0,0.0,0.0,0.0,0.0,0.0,0.0,0.0,1.3973,1.3509,1.2751,1.1602,1.0546,0.9893,0.9906,0.8865,0.8185,0.8213,0.8206,0.0,0.0,0.0,0.0,0.0,0.0,0.0,0.0,0.0,0.0,0.0,0.0,0.0,0.0,0.0,0.0,0.0,0.0,0.0,0.0,0.0,0.0,0.0,0.0,0.0,0.0,0.0,0.0,0.0,0.0,0.0,0.0,0.0,0.0,0.0,0.0,0.0,0.0,0.0,0.0,0.0,0.0,0.0,0.0,0.0,0.0,0.0,0.0,0.0,0.0,0.0,0.0,0.0,1.9953,2.0222,2.1064,2.0426,2.0344,2.0699,1.9866,1.9223,1.8747,1.8778,0.0,0.0,0.0,0.0,0.0,0.0,0.0,0.0,0.0,0.0,0.0,0.0,0.0,0.0,0.0,0.0,0.0,0.0,0.0,0.0,0.0,0.0,1.8592,1.9251,1.9184,1.8656,1.7646,0.0,0.0,0.0,0.0,0.0,0.0,0.0,0.0,0.0,0.0,0.0,1.4628,1.389,1.3281,1.3027,1.1148,0.9909,0.9891,0.8865,0.8195,0.8205,0.8209,0.8329,0.0,0.0,0.0,0.0,0.0,0.0,0.0,0.0,0.0,0.0,0.0,0.0,0.0,0.0,0.0,0.0,0.0,0.0,0.0,0.0,0.0,0.0,0.0,0.0,0.0,0.0,0.0,0.0,0.0,0.0,0.0,0.0,1.8996,1.9137,0.0,0.0,0.0,0.0,0.0,0.0,0.0,0.0,0.0,0.0,0.0,0.0,0.0,2.0452,2.0445,2.13,2.142,2.0927,2.1931,2.209,2.1512,2.1744,2.1535,2.0862,2.0521,0.0,1.9262,1.8621,0.0,0.0,0.0,0.0,0.0,0.0,0.0,0.0,0.0,0.0,0.0,0.0,0.0,0.0,0.0,0.0,0.0,0.0,0.0,0.0,0.0,0.0,1.9037,1.9109,1.9087,1.893,1.8456,1.7876,1.734,1.6733,1.667,1.6711,0.0,0.0,0.0,0.0,0.0,0.0,1.4321,1.4075,1.3532,1.2381,1.0822,0.9887,0.9903,0.8865,0.8195,0.8205,0.8199,0.8898,1.0488,0.8299,0.0,0.0,0.0,0.0,0.0,0.0,0.0,0.0,0.0,0.0,0.0,0.0,0.0,0.0,0.0,0.0,0.0,0.0,0.0,0.0,0.0,0.0,0.0,0.0,0.0,0.0,0.0,0.0,0.0,1.8979,1.9408,1.9304,1.9423,1.9335,0.0,0.0,0.0,0.0,0.0,0.0,0.0,0.0,0.0,2.0756,2.1581,2.1849,2.1424,2.2051,2.2085,2.1569,2.2135,2.2307,2.2169,2.2197,2.1709,2.0896,2.062,2.0042,1.9211,1.9,1.868,1.8312,0.0,0.0,0.0,0.0,1.8723,1.8473,1.8366,1.8331,1.8251,1.7754,0.0,0.0,0.0,0.0,0.0,0.0,0.0,1.897,1.9165,1.8882,1.8606,1.8745,1.8606,1.8372,1.8214,1.7928,1.7667,1.7519,1.7576,1.7613,1.7441,1.6995,0.0,0.0,0.0,1.5577,1.4511,1.4407,1.384,1.2257,1.1143,1.0362,0.9943,0.8865,0.8195,0.8205,0.8193,0.9011,1.0829,1.0889,1.0561,0.0,0.0,0.0,0.0,0.0,0.0,0.0,0.0,0.0,0.0,0.0,0.0,0.0,0.0,0.0,0.0,0.0,0.0,0.0,0.0,0.0,0.0,0.0,0.0,0.0,0.0,0.0,0.0,1.9495,1.9573,1.9815,1.9839,1.9789,0.0,0.0,0.0,0.0,0.0,0.0,2.1795,2.1927,2.2118,2.2413,2.2848,2.2919,2.251,2.2652,2.2568,2.2236,2.2062,2.2105,2.2312,2.1974,2.1324,2.0529,2.0306,1.9716,1.8961,1.9196,1.8784,1.8067,1.8875,1.9228,1.9339,1.9265,1.9265,1.9228,1.9064,1.9026,1.8916,1.8218,1.7987,1.795,1.7801,0.0,0.0,0.0,0.0,1.8673,1.875,1.8458,1.8149,1.8333,1.8109,1.7882,1.7882,1.7882,1.7922,1.8083,1.8242,1.8246,1.796,1.7408,0.0,1.6863,1.6228,1.5489,1.4691,1.4545,1.3826,1.2101,1.1374,1.067,0.9824,0.8799,0.8199,0.8214,0.8211,0.9017,1.0844,1.0904,1.0899,1.0899,0.0,0.0,0.0,0.0,0.0,0.0,0.0,0.0,0.0,0.0,0.0,0.0,0.0,0.0,0.0,0.0,0.0,0.0,0.0,0.0,0.0,0.0,0.0,0.0,0.0,0.0,0.0,0.0,0.0,2.1485,2.0188,0.0,0.0,0.0,0.0,2.2118,2.2378,2.2621,2.3023,2.3016,2.3263,2.3781,2.3515,2.3563,2.3918,2.3535,2.3201,2.2844,2.228,2.1874,2.1611,2.1055,2.0316,1.9488,1.9446,1.9123,1.8562,1.8947,1.8957,1.8741,1.8808,1.8936,1.9101,1.9101,1.9101,1.9064,1.886,1.8822,1.8784,1.8553,1.8461,1.8461,1.8461,1.8489,0.0,0.0,1.8644,1.8327,1.8699,1.8344,1.7922,1.7922,1.7922,1.7882,1.7882,1.7882,1.7882,1.7922,1.7922,1.7989,1.8161,0.0,1.7066,1.7231,1.6227,1.5233,1.4651,1.4173,1.3212,1.1597,1.1161,1.0558,0.9435,0.8634,0.8192,0.8206,0.8196,0.9014,1.0848,1.0893,1.0899,1.0885,1.0893,0.0,0.0,0.0,0.0,0.0,0.0,0.0,0.0,0.0,0.0,0.0,0.0,0.0,0.0,0.0,0.0,0.0,0.0,0.0,0.0,0.0,0.0,0.0,0.0,0.0,0.0,0.0,0.0,2.2322,2.2168,0.0,2.2022,2.2205,2.2489,2.2977,2.2887,2.2999,2.3448,2.3151,2.3171,2.3574,2.3264,2.2852,2.2347,2.2009,2.1695,2.1348,2.0954,2.0864,2.1012,2.0798,2.023,1.939,1.939,1.9119,1.8697,1.8846,1.8882,1.8822,1.8936,1.9026,1.9064,1.8936,1.8898,1.8874,1.8697,1.8683,1.8822,1.8936,1.8644,1.8361,1.8489,1.8464,1.8323,1.8344,1.8288,1.8204,1.8222,1.8086,1.7882,1.7882,1.7882,1.7882,1.7882,1.7882,1.7882,1.7882,1.7882,1.7963,1.8163,1.737,1.6744,1.6718,1.5745,1.4742,1.397,1.3765,1.3056,1.1443,1.154,1.1357,1.0465,0.9629,0.888,0.8242,0.9295,1.0228,1.0855,1.0903,1.0907,1.0914,1.2031,1.2556,0.0,0.0,0.0,0.0,0.0,0.0,0.0,0.0,0.0,0.0,0.0,0.0,0.0,0.0,0.0,0.0,0.0,0.0,0.0,0.0,0.0,0.0,0.0,0.0,0.0,2.2052,2.1967,2.2738,2.2642,2.2511,2.2466,2.2867,2.3178,2.3381,2.3167,2.3131,2.3395,2.2872,2.2786,2.3205,2.2786,2.2263,2.1755,2.1445,2.1182,2.0837,2.0348,2.024,2.0508,2.0278,1.9826,1.9308,1.9308,1.9145,1.8898,1.8898,1.8898,1.8898,1.9064,1.9101,1.9064,1.8936,1.8898,1.886,1.8644,1.8644,1.8721,1.8898,1.8606,1.8228,1.8411,1.8372,1.8268,1.7963,1.8069,1.8228,1.7963,1.7882,1.7882,1.7882,1.7882,1.7882,1.7882,1.7882,1.7882,1.7882,1.7882,1.7922,1.8083,1.7248,1.6494,1.6323,1.526,1.4248,1.3591,1.3373,1.2828,1.1611,1.1826,1.1792,1.1067,1.0352,0.9659,0.9043,1.0164,1.0894,1.0909,1.0909,1.0891,1.0911,1.3309,1.4106,1.3204,0.0,0.0,0.0,0.0,0.0,0.0,0.0,0.0,0.0,0.0,0.0,0.0,0.0,0.0,0.0,0.0,0.0,0.0,0.0,0.0,0.0,0.0,0.0,2.1997,2.1801,2.2062,2.2841,2.1492,2.1259,2.3197,2.2589,2.2413,2.3317,2.3256,2.3064,2.2853,2.2216,2.2153,2.2837,2.2153,2.1961,2.2353,2.2087,2.1777,2.1446,2.0523,2.0074,2.0045,1.9406,1.9101,1.9101,1.9101,1.9101,1.9101,1.9101,1.9101,1.9101,1.9101,1.9101,1.9101,1.9101,1.9101,1.9064,1.8874,1.8644,1.8517,1.8517,1.84,1.8202,1.8202,1.8333,1.8397,1.7989,1.8175,1.8397,1.7989,1.7882,1.7882,1.7882,1.7882,1.7882,1.7882,1.7868,1.7855,1.7855,1.7841,1.7828,1.7855,1.7089,1.6336,1.6111,1.4803,0.0,1.3506,1.3023,1.2504,1.2061,1.2025,1.1773,1.1104,1.068,1.0507,1.0653,1.0761,1.0889,1.0955,1.0941,1.0939,1.0976,1.4597,1.5413,1.3274,0.0,0.0,0.0,0.0,0.0,0.0,0.0,0.0,0.0,0.0,0.0,0.0,0.0,0.0,0.0,0.0,0.0,0.0,0.0,0.0,0.0,2.3667,2.441,2.423,2.3628,2.3308,2.3515,2.3143,2.299,2.3308,2.3374,2.316,2.2637,2.238,2.207,2.1612,2.129,2.124,2.1564,2.1256,2.114,2.1227,2.0788,2.0515,2.0391,1.9729,1.9377,1.9362,1.9188,1.9101,1.9101,1.9101,1.9199,1.9384,1.9384,1.9384,1.9384,1.9176,1.9101,1.9064,1.8936,1.8798,1.8659,1.876,1.8644,1.8556,1.8898,1.863,1.8228,1.845,1.8293,1.8029,1.7922,1.8003,1.8029,1.7922,1.7882,1.7882,1.7882,1.7882,1.7882,1.7882,1.7543,1.7244,1.7244,1.6892,1.6729,1.7163,1.5989,1.4972,1.4861,1.3825,1.2998,1.2926,1.2794,1.2504,1.2061,1.2353,1.2399,1.1972,1.1921,1.1931,1.1978,1.1825,1.2004,1.2533,1.2052,1.2001,1.2568,1.4807,1.5693,0.0,0.0,0.0,0.0,0.0,0.0,0.0,0.0,0.0,0.0,0.0,0.0,0.0,0.0,0.0,0.0,0.0,0.0,0.0,0.0,0.0,0.0,2.3821,2.459,2.4562,2.4109,2.3684,2.3374,2.3323,2.3268,2.3073,2.3036,2.2764,2.2147,2.1712,2.132,2.099,2.086,2.086,2.0958,2.086,2.0794,2.0794,2.0392,2.0166,2.015,1.9581,1.9273,1.9273,1.9273,1.9273,1.9273,1.9435,1.9581,1.9726,1.9726,1.9726,1.969,0.0,0.0,0.0,0.0,1.8836,1.8774,1.8784,1.8836,1.8889,1.9011,1.8884,1.876,1.8707,1.8693,1.8577,1.8149,1.8333,1.8528,1.8029,1.8029,1.8109,1.7963,1.7692,1.7502,1.7502,1.7041,1.662,1.662,1.6132,0.0,1.6172,1.5394,1.4682,1.442,1.3642,1.2943,1.2745,1.2709,1.2589,1.2309,1.2551,1.2681,1.2513,1.2447,0.0,0.0,0.0,1.3063,1.4101,1.3799,0.0,0.0,0.0,0.0,0.0,0.0,0.0,0.0,1.4676,1.4782,0.0,0.0,0.0,0.0,0.0,0.0,0.0,0.0,0.0,0.0,0.0,0.0,0.0,0.0,0.0,0.0,2.3465,2.387,2.3815,2.3719,2.3426,2.2798,2.2712,2.2712,2.2712,2.2186,2.184,2.1797,2.1198,2.0827,2.0794,2.0794,0.0,0.0,0.0,2.0794,2.0794,2.0512,2.0395,2.0361,1.9803,1.95,1.9471,1.9471,1.9485,1.9581,1.9899,2.0041,2.0041,2.0041,2.0041,1.999,1.9675,1.942,1.9213,1.9213,1.9213,1.9176,1.9011,0.0,0.0,1.9011,1.9161,1.9369,1.8974,1.9258,1.95,1.8567,1.8936,1.9384,1.8293,1.8254,1.8422,1.8027,1.7497,1.7049,1.7019,1.6491,1.6046,1.6046,1.5543,1.5121,1.5121,1.5074,1.4902,1.4401,1.3835,1.3288,1.2815,1.2709,1.2709,1.2709,1.2709,0.0,1.2803,1.2461,1.271,1.3656,1.3567,1.4055,1.5329,1.5681,1.5843,1.5782,1.5793,1.5801,1.5792,1.5792,1.5792,1.5768,1.5028,1.5076,0.0,0.0,0.0,0.0,0.0,0.0,0.0,0.0,0.0,0.0,0.0,0.0,0.0,0.0,0.0,2.3728,2.3829,2.3815,2.3788,2.3271,2.284,2.2729,2.2712,2.2712,2.2712,2.2337,2.2039,2.1827,2.1433,2.1087,2.0827,2.0794,2.0794,2.0794,2.0794,2.0794,2.0794,2.0449,2.0234,2.0249,2.0015,0.0,1.9179,1.9179,1.9501,2.0046,2.0132,2.0227,2.0308,2.0308,2.0308,2.0273,2.001,1.9884,1.9812,1.9812,1.9812,1.9812,1.9777,1.969,1.9617,1.953,1.9406,1.9244,1.9132,1.9184,0.0,1.8988,1.9064,1.9176,1.895,1.8669,1.8426,1.8118,1.772,1.7348,1.7079,1.636,1.5769,1.5769,1.507,1.4463,1.4463,1.4299,1.4113,1.4012,1.3536,1.3141,1.3037,1.2815,1.2709,1.2768,1.2768,1.2803,1.2873,1.2791,1.2827,1.3055,1.4162,1.4931,1.5237,1.58,1.604,1.5796,1.5784,1.5808,1.5792,1.5792,1.5792,1.5792,1.562,1.596,0.0,0.0,0.0,0.0,0.0,0.0,0.0,0.0,0.0,0.0,0.0,2.2912,2.3508,0.0,2.315,2.3362,2.3308,2.3237,2.3237,2.2926,2.2712,2.2712,2.2712,2.2712,2.2712,2.2392,2.2136,2.2027,2.1721,2.1402,2.1055,2.1055,2.0958,2.0794,2.0794,2.0794,2.0794,2.0614,2.0483,2.0483,2.0419,2.025,1.9928,1.9656,1.9737,2.0089,2.0388,2.054,2.0579,2.0579,2.0579,2.0595,2.046,2.0235,2.0005,2.0005,2.0005,2.0005,1.9884,1.9919,1.9975,1.9818,1.9803,1.9839,1.9639,1.969,1.969,1.9347,1.9457,1.9543,1.8783,1.8608,1.8433,1.7739,1.7162,1.6764,1.6584,1.5992,1.5498,1.5498,1.5005,1.4556,1.4556,1.43,1.404,1.3921,1.3674,1.3404,1.3141,1.299,1.285,1.2768,1.2885,1.292,1.2803,1.3082,1.3348,1.3551,1.4525,1.5295,1.5709,1.6211,1.6393,1.6262,1.6337,1.6362,1.6362,1.6442,1.651,1.651,1.6417,1.6534,0.0,0.0,0.0,0.0,0.0,0.0,0.0,2.3509,2.3257,2.4417,2.4177,2.3868,2.4206,2.376,2.3236,2.291,2.2833,2.2825,2.279,2.279,2.2764,2.2712,2.2712,2.2712,2.2712,2.2463,2.2265,2.2192,2.1998,2.1751,2.1402,2.1402,2.1277,2.1007,2.0925,2.0893,2.0893,2.0827,2.0794,2.0794,2.0787,2.0782,2.0782,2.0366,2.0175,2.019,2.0599,2.0794,2.0794,2.0794,2.0794,2.0794,2.0794,2.0527,2.0166,2.0166,2.0166,2.0131,1.994,2.0115,2.0339,2.0015,2.0189,2.0426,2.0166,2.0216,2.027,1.9747,1.9834,1.9844,1.8628,1.8392,1.8227,1.7261,1.6608,1.6186,1.6133,1.574,1.5374,1.5374,1.5118,1.4887,1.4887,1.4669,1.4383,1.404,1.3908,1.3741,1.3314,1.3198,1.3094,1.2885,1.306,1.3094,1.2873,1.33,1.3741,1.4181,1.4613,1.5223,1.6035,1.6415,1.6569,1.6555,1.6773,1.6931,1.6944,1.708,1.7161,1.7174,1.7041,1.7002,2.4284,2.421,2.4357,2.5226,2.4745,2.4447,0.0,2.5455,2.5016,2.5749,2.5288,2.4761,2.4787,2.4078,2.3455,2.341,2.3364,2.3265,2.3077,2.307,2.297,2.2738,2.2712,2.2712,2.2712,2.2659,2.2517,2.222,2.2164,2.2039,2.1751,2.1721,2.1738,2.1691,2.1402,2.1246,2.1246,2.0958,2.0794,2.0794,2.081,2.0793,2.0793,2.0745,2.0697,2.073,2.0778,2.0794,2.0794,2.0794,2.0794,2.0794,2.0794,2.0761,2.0695,2.0695,2.0695,2.0695,2.061,2.0626,2.061,2.046,2.0441,2.0388,2.0354,2.0339,2.0304,2.0235,1.9839,1.9346,1.9203,1.8452,1.7625,1.7273,1.6849,1.6472,1.6239,1.59,1.5667,1.5667,1.5433,1.5239,1.5239,1.5209,1.4996,1.4351,1.404,1.3888,1.3808,1.3594,1.3446,1.3412,1.3459,1.3446,1.3412,1.3476,1.3718,1.4264,1.4354,1.4635,1.5197,1.5786,1.6081,1.6079,1.6619,1.6999,1.7161,1.7012,1.7024,1.7216,1.728,1.7365,2.4741,2.462,2.4634,2.4993,2.4705,2.4635,2.5566,2.5505,2.5382,2.5963,2.5556,2.5031,2.4874,2.423,2.3671,2.3459,2.3414,2.3387,2.3289,2.3265,2.3242,2.3122,2.301,2.2868,2.2712,2.2712,2.2642,2.249,2.249,2.2364,2.2039,2.2039,2.1969,2.1781,2.1661,2.1587,2.1587,2.1048,2.0795,2.0795,2.0795,2.0795,2.0811,2.0799,2.0798,2.0778,2.0782,2.0814,2.0794,2.0794,2.0794,2.0794,2.0794,2.0777,2.0744,2.0794,2.0777,2.0744,2.0726,2.0644,2.0577,2.0475,2.0407,2.0388,2.0354,2.0304,2.0227,1.9826,1.9634,1.9342,1.8515,1.8077,1.7671,1.7002,1.6704,1.6514,1.6268,1.6095,1.5996,1.5996,1.5725,1.5551,1.5551,1.5404,1.5195,1.4921,1.478,1.4578,1.4241,1.4098,1.3934,1.3762,1.3594,1.3581,1.3769,1.3615,1.3684,1.4109,1.408,1.4389,1.5131,1.5396,1.57,1.6057,1.6665,1.7023,1.7103,1.7023,1.7304,1.7963,1.7646,1.7816,2.5067,2.496,2.4942,2.5087,2.487,2.4797,2.5375,2.5319,2.5242,2.5674,2.5322,2.4876,2.4732,2.4299,2.3896,2.3671,2.361,2.3588,2.3522,2.3522,2.3482,2.3414,2.3265,2.3109,2.291,2.2773,2.2738,2.2816,2.2738,2.2588,2.2347,2.232,2.2254,2.2044,2.1957,2.1911,2.1911,2.1361,2.1062,2.1062,2.1236,2.1332,2.1332,2.1332,2.1276,2.1151,2.1148,2.1117,2.1087,2.1087,2.1087,2.1087,2.1087,2.1023,2.0974,2.1023,2.086,2.0644,2.0626,2.061,2.0595,2.0543,2.0577,2.0628,2.0595,2.042,2.017,1.9671,1.9405,1.899,1.7975,1.7727,1.7545,1.6865,1.6633,1.657,1.6452,1.6371,1.6344,1.6425,1.6176,1.5938,1.5938,1.5725,1.5566,1.5566,1.5566,1.5344,1.4721,1.4578,1.4433,1.417,1.3894,1.3815,1.4078,1.3848,1.3815,1.4065,1.4026,1.4326,1.5059,1.5155,1.549,1.6082,1.6615,1.6917,1.6991,1.7194,1.7688,1.8361,1.8129,1.8393,2.512,2.5142,2.5341,2.5984,2.5565,2.5189,2.5906,2.5314,2.4676,2.4884,2.4566,2.4284,2.4462,2.4321,2.419,2.417,2.417,2.4094,2.3816,2.3795,2.3692,2.3414,2.3392,2.3392,2.3369,2.2968,2.2816,2.307,2.2842,2.2685,2.2685,2.2685,2.2685,2.2659,2.2364,2.2192,2.2192,2.1895,2.1764,2.1781,2.2375,2.2635,2.2635,2.2651,2.2441,2.2056,2.2056,2.1943,2.1768,2.1768,2.1768,2.1768,2.1768,2.1738,2.1664,2.1648,2.1166,2.0494,2.0441,2.0628,2.0877,2.0827,2.1007,2.126,2.126,2.076,2.0197,2.018,1.9135,1.8055,1.8006,1.7517,1.7009,1.6993,1.6789,1.6675,1.6917,1.6763,1.6659,1.6917,1.6763,1.6554,1.6554,1.6344,1.6166,1.6166,1.6166,1.5955,1.5344,1.5011,1.4763,1.4777,1.4479,1.4268,1.43,1.4268,1.4268,1.43,1.43,1.4461,1.4805,1.507,1.5474,1.6099,1.6443,1.6754,1.7001,1.7733,1.8086,1.8115,1.8759,1.9087,2.5315,2.527,2.5315,2.5553,2.5321,2.512,2.5328,2.5108,2.4885,2.4912,2.4749,2.4604,2.4685,2.4493,2.4356,2.4393,2.4284,2.417,2.4074,2.4074,2.4016,2.3937,2.3774,2.3753,2.3917,2.3473,2.32,2.3289,2.3084,2.297,2.297,2.279,2.2712,2.2712,2.2588,2.2517,2.2517,2.2436,2.2398,2.2398,2.2607,2.2705,2.2711,2.2688,2.2479,2.2086,2.2111,2.1986,2.1797,2.1797,2.1768,2.1738,2.1738,2.1648,2.1495,2.1495,2.1293,2.1023,2.1071,2.1103,2.115,2.115,2.1214,2.1308,2.1308,2.0774,2.0097,1.9596,1.8882,1.8166,1.7716,1.7566,1.7496,1.7313,1.7191,1.7117,1.7018,1.6917,1.6892,1.6993,1.6917,1.6866,1.6866,1.6789,1.6738,1.6738,1.6231,1.5782,1.5609,1.5315,1.5118,1.5118,1.5027,1.4951,1.4951,1.4951,1.4951,1.4951,1.4951,1.5027,1.5118,1.5227,1.5358,1.5574,1.6038,1.6551,1.7118,1.7383,1.8185,1.9491,1.9318,1.9728,2.5342,2.537,2.5364,2.5364,2.5327,2.5266,2.5183,2.512,2.5088,2.5111,2.4967,2.4841,2.4898,2.47,2.4551,2.4575,2.4461,2.4375,2.4375,2.4375,2.4375,2.4375,2.4154,2.4078,2.4247,2.3919,2.3649,2.3544,2.3335,2.3206,2.3206,2.3042,2.291,2.2842,2.291,2.2859,2.2712,2.2712,2.2685,2.2695,2.2695,2.2694,2.2713,2.2684,2.2559,2.2321,2.2419,2.2368,2.2254,2.2243,2.2215,2.2158,2.2032,2.1886,2.1751,2.1751,2.1721,2.1631,2.1432,2.1401,2.1462,2.1462,2.157,2.1661,2.1661,2.1151,2.0463,1.9998,1.9299,1.8591,1.8145,1.798,1.7888,1.7822,1.7595,1.7408,1.7399,1.7327,1.728,1.7375,1.7327,1.7256,1.7256,1.7166,1.7093,1.7093,1.6632,1.6251,1.6172,1.5838,1.5594,1.5594,1.5419,1.5299,1.5299,1.5299,1.5299,1.5299,1.5299,1.5344,1.5433,1.5344,1.5566,1.6142,1.6412,1.698,1.7941,1.8184,1.8975,2.0221,2.0082,2.0464,2.5221,2.5342,2.5421,2.5488,2.5517,2.5523,2.5508,2.5356,2.5267,2.5454,2.52,2.4964,2.5088,2.4984,2.4858,2.4779,2.4813,2.482,2.4764,2.4764,2.4745,2.4707,2.4526,2.4407,2.4407,2.4284,2.4113,2.3858,2.3588,2.3414,2.3414,2.3414,2.3294,2.3126,2.3312,2.3177,2.2721,2.2711,2.2717,2.279,2.279,2.2753,2.2738,2.2738,2.2738,2.2764,2.3003,2.3119,2.3102,2.3028,2.3003,2.2995,2.2659,2.2487,2.2432,2.2432,2.2405,2.2265,2.1615,2.1584,2.1827,2.184,2.2077,2.2338,2.2338,2.1824,2.123,2.123,2.026,1.9206,1.9206,1.8659,1.8191,1.848,1.8027,1.7629,1.8078,1.7975,1.7854,1.8069,1.7924,1.7737,1.7737,1.7518,1.7363,1.7363,1.7363,1.7278,1.7052,1.6507,1.6142,1.6142,1.5695,1.5374,1.5374,1.5374,1.5374,1.5374,1.5374,1.5507,1.5767,1.5507,1.6126,1.7686,1.7465,1.7969,1.9244,1.9958,2.0332,2.0381,2.103,2.1339,2.4996,2.4707,2.4482,2.5245,2.5035,2.4774,2.5371,2.5505,2.5496,2.5503,2.5421,2.5333,2.5332,2.5657,2.5919,2.5876,2.6265,2.6336,2.5697,2.5587,2.5362,2.4764,2.4613,2.4547,2.4547,2.4426,2.4355,2.4392,2.3961,2.3692,2.3692,2.3522,2.3387,2.3318,2.3369,2.3287,2.3077,2.2828,2.3092,2.3838,2.3838,2.3608,2.3224,2.3372,2.3354,2.3224,2.3283,2.3324,2.3319,2.3247,2.3193,2.3144,2.3052,2.2977,2.2935,2.2935,2.291,2.2884,2.2704,2.2446,2.2209,2.2415,2.2525,2.2632,2.285,2.2352,2.1725,2.1725,2.0655,1.9489,1.9489,1.8947,1.8548,1.917,1.9189,1.9065,1.9192,1.9154,1.8976,1.8493,1.833,1.829,1.829,1.8232,1.8191,1.8191,1.8191,1.7967,1.7302,1.6969,1.6757,1.6757,1.6654,1.6575,1.6575,1.6575,1.6575,1.6575,1.6575,1.6602,1.667,1.6602,1.7014,1.7985,1.7947,1.8603,2.0023,2.0218,2.0681,2.1427,2.1609,2.1911,2.435,2.4091,2.3955,2.4593,2.4503,2.4475,2.53,2.5542,2.5604,2.559,2.5587,2.5574,2.5502,2.6057,2.6497,2.645,2.7014,2.7272,2.6759,2.6336,2.591,2.5475,2.4975,2.4692,2.4645,2.4578,2.4545,2.4599,2.4248,2.4039,2.4059,2.386,2.3692,2.3566,2.3692,2.3717,2.3645,2.3444,2.3642,2.4216,2.4216,2.4042,2.3746,2.3728,2.3593,2.3405,2.3491,2.3513,2.3491,2.3417,2.3371,2.3307,2.3206,2.3133,2.3091,2.3091,2.3091,2.3091,2.3091,2.291,2.2668,2.2825,2.2876,2.2884,2.3042,2.2775,2.2423,2.2423,2.163,2.0689,2.0353,1.9719,1.9279,1.9802,1.9507,1.9228,1.9664,1.9507,1.9133,1.8709,1.8659,1.873,1.8946,1.9076,1.9174,1.9213,1.9174,1.8878,1.8104,1.7659,1.7436,1.7436,1.7325,1.7254,1.7254,1.7174,1.7142,1.7142,1.7142,1.7142,1.7142,1.7223,1.7846,1.9102,1.9009,1.9731,2.1339,2.1339,2.1642,2.2203,2.2309,2.2554,2.3607,2.3466,2.3553,2.3811,2.3929,2.4257,2.5254,2.5539,2.5595,2.5654,2.5683,2.568,2.5609,2.6262,2.6806,2.6795,2.7437,2.7969,2.7905,2.7211,2.6638,2.6524,2.5625,2.4988,2.4919,2.4794,2.4692,2.4645,2.4479,2.4392,2.4442,2.4321,2.4153,2.3903,2.4096,2.4191,2.4191,2.4198,2.4208,2.4208,2.4169,2.4176,2.4186,2.3867,2.3643,2.3486,2.3667,2.3714,2.3653,2.361,2.3588,2.3588,2.3359,2.3259,2.3259,2.3259,2.3259,2.3259,2.3259,2.3259,2.3259,2.3182,2.3182,2.3188,2.3212,2.3259,2.3259,2.3259,2.2847,2.2246,2.1547,2.0816,2.0317,2.0608,1.9793,1.9194,2.0062,1.9524,1.8914,1.9022,1.9109,1.929,1.9816,2.0092,2.0281,2.0336,2.03,2.0011,1.9232,1.8512,1.808,1.808,1.7856,1.7764,1.7866,1.7704,1.7606,1.7606,1.7606,1.7555,1.7472,1.7721,1.8682,2.0408,2.0309,2.1079,2.2747,2.2747,2.2747,2.2764,2.2985,2.3116,2.3405,2.2794,2.2528,2.3493,2.3299,2.3313,2.4955,2.5434,2.552,2.5527,2.5629,2.5683,2.5605,2.6264,2.7012,2.7649,2.8395,2.8882,2.8931,2.8805,2.842,2.772,2.6692,2.6041,2.6009,2.5272,2.4808,2.4847,2.476,2.4685,2.4642,2.4629,2.454,2.4377,2.4259,2.4207,2.4207,2.421,2.4206,2.4206,2.4092,2.4052,2.4105,2.401,2.3933,2.3876,2.3876,2.3919,2.4001,2.3998,2.4057,2.4154,2.4115,2.4096,2.4096,2.4096,2.4096,2.4096,2.4096,2.4096,2.4037,2.3576,2.3513,2.3628,2.3855,2.3998,2.4096,2.4096,2.3547,2.2941,2.2794,2.2168,2.1743,2.246,2.1948,2.1345,2.1526,2.037,1.9507,2.0236,2.0378,2.0618,2.1379,2.1542,2.1559,2.1592,2.1668,2.1417,2.0502,1.9219,1.8408,1.8408,1.8371,1.8595,1.921,1.922,1.9199,1.9199,1.9199,1.8937,1.8307,1.8906,1.9738,2.0705,2.1295,2.2065,2.3035,2.3035,2.3035,2.3035,2.3084,2.323,2.3235,2.2876,2.2752,2.3341,2.3269,2.3453,2.4905,2.5297,2.5389,2.5527,2.5634,2.5682,2.5662,2.632,2.6967,2.7323,2.8031,2.8676,2.9139,2.8741,2.8429,2.8459,2.7248,2.64,2.6364,2.5576,2.5056,2.5068,2.5068,2.4994,2.4804,2.4663,2.4598,2.4598,2.4351,2.4195,2.4199,2.4206,2.4191,2.4192,2.4211,2.4211,2.4192,2.4211,2.421,2.4209,2.4172,2.4191,2.421,2.4191,2.4229,2.4284,2.4284,2.4284,2.4284,2.4284,2.4284,2.4284,2.4284,2.4338,2.4355,2.4118,2.402,2.4037,2.4172,2.4266,2.4284,2.4284,2.4026,2.3619,2.3212,2.2805,2.2636,2.3105,2.2958,2.2611,2.2111,2.1432,2.0984,2.1263,2.1444,2.176,2.2502,2.2694,2.273,2.2788,2.2797,2.2542,2.1738,2.0964,2.0264,1.9702,1.9648,1.9974,2.0735,2.0715,2.064,2.064,2.064,2.0479,2.0119,2.0553,2.1188,2.1983,2.2224,2.2697,2.3522,2.3522,2.3552,2.3627,2.3749,2.3929,2.3086,2.3033,2.3189,2.3252,2.3363,2.3729,2.4889,2.5177,2.5241,2.5511,2.5625,2.5689,2.568,2.6207,2.6688,2.6805,2.7504,2.8315,2.9132,2.8869,2.8788,2.9286,2.8157,2.7182,2.6753,2.603,2.5465,2.5212,2.5264,2.5201,2.5006,2.4766,2.4697,2.4791,2.4557,2.4417,2.4409,2.434,2.4309,2.4315,2.4408,2.4409,2.4316,2.4372,2.4392,2.441,2.441,2.441,2.4392,2.4392,2.4393,2.4393,2.4409,2.4426,2.4426,2.4459,2.4476,2.4476,2.4476,2.454,2.4629,2.4629,2.454,2.4425,2.4425,2.4444,2.4444,2.4459,2.4442,2.4295,2.3675,2.3524,2.3515,2.3431,2.3515,2.3322,2.2418,2.2287,2.235,2.2331,2.2496,2.288,2.3587,2.3795,2.3878,2.3934,2.3912,2.3637,2.2908,2.2732,2.2341,2.1489,2.1171,2.1369,2.2173,2.2097,2.2013,2.2013,2.2013,2.1939,2.1754,2.2054,2.2529,2.3163,2.3158,2.3456,2.4062,2.4062,2.4118,2.4223,2.4433,2.4595,2.2835,2.2811,2.3051,2.3167,2.3233,2.355,2.4745,2.5061,2.5175,2.5367,2.5511,2.5609,2.5601,2.572,2.6052,2.6769,2.7612,2.8466,2.9265,3.0607,3.1251,3.0535,3.0211,2.9426,2.7903,2.6927,2.6066,2.525,2.5264,2.5301,2.5256,2.519,2.5148,2.5148,2.5133,2.5098,2.5117,2.4806,2.4647,2.4647,2.4669,2.4578,2.4393,2.4321,2.4392,2.4489,2.4489,2.4554,2.4663,2.4663,2.4651,2.4676,2.4804,2.4828,2.4874,2.4987,2.5024,2.5024,2.5024,2.5037,2.5049,2.5049,2.4956,2.4845,2.4845,2.4836,2.4855,2.5,2.4936,2.4869,2.4905,2.4922,2.4732,2.403,2.385,2.3632,2.2734,2.2554,2.2792,2.3561,2.3744,2.4017,2.4878,2.5033,2.5053,2.5045,2.5154,2.4904,2.399,2.3898,2.384,2.364,2.2734,2.247,2.3275,2.3337,2.3337,2.3337,2.3337,2.2997,2.2281,2.2954,2.3388,2.345,2.4157,2.4542,2.4637,2.4637,2.4618,2.4651,2.4666,2.4681,2.3332,2.3404,2.3523,2.3804,2.3857,2.4052,2.479,2.4993,2.5105,2.5357,2.546,2.5547,2.5593,2.5625,2.5933,2.6816,2.7216,2.7894,2.9263,2.999,3.045,3.0579,3.0133,2.9317,2.8076,2.7151,2.6275,2.5446,2.5332,2.5351,2.5425,2.516,2.508,2.5195,2.5003,2.4898,2.4893,2.5086,2.5191,2.5175,2.5064,2.496,2.4884,2.4799,2.4809,2.4864,2.4864,2.4891,2.4943,2.4943,2.4949,2.4955,2.4987,2.5012,2.5043,2.5072,2.5096,2.5096,2.5096,2.5149,2.5222,2.5222,2.5234,2.5234,2.5072,2.5024,2.5024,2.5072,2.5049,2.5049,2.5154,2.5206,2.5181,2.482,2.4797,2.4748,2.4313,2.4235,2.4312,2.4609,2.4753,2.4915,2.5267,2.5395,2.544,2.5443,2.5484,2.5391,2.5007,2.4987,2.4977,2.4923,2.3938,2.3583,2.439,2.4467,2.4467,2.4467,2.45,2.4372,2.4058,2.4353,2.4514,2.4514,2.4796,2.4937,2.4937,2.4937,2.4974,2.5065,2.5065,2.5099,2.3606,2.3837,2.3999,2.4247,2.4284,2.4392,2.4785,2.4911,2.5008,2.5311,2.5418,2.5492,2.5552,2.5597,2.5818,2.6509,2.7012,2.7743,2.8956,2.9952,3.0691,3.0989,3.0749,2.9992,2.8558,2.7171,2.6115,2.555,2.5415,2.5389,2.5495,2.5235,2.5149,2.5282,2.506,2.4949,2.4936,2.531,2.5509,2.5488,2.5309,2.5191,2.5172,2.5115,2.5126,2.516,2.516,2.516,2.516,2.516,2.5138,2.5096,2.5149,2.516,2.516,2.5203,2.5214,2.5214,2.5225,2.5283,2.5357,2.539,2.5456,2.5478,2.5309,2.5207,2.5166,2.5226,2.5245,2.5263,2.5313,2.5383,2.5457,2.5396,2.5459,2.5504,2.5414,2.5386,2.5376,2.5321,2.5383,2.5459,2.5464,2.5535,2.5598,2.5609,2.559,2.559,2.559,2.5603,2.5595,2.5606,2.4878,2.4626,2.5206,2.5245,2.5245,2.5245,2.5288,2.5329,2.5329,2.5329,2.5329,2.5329,2.5262,2.5245,2.5245,2.5245,2.5301,2.5398,2.5398,2.5449,2.35,2.3881,2.4303,2.4284,2.4284,2.4392,2.4718,2.479,2.4904,2.5224,2.5348,2.5418,2.5492,2.5552,2.5616,2.5709,2.7163,2.8262,2.8211,3.117,3.3012,3.2084,3.2737,3.2245,2.9639,2.704,2.5512,2.5499,2.5511,2.5511,2.5511,2.5511,2.5484,2.5501,2.549,2.549,2.549,2.549,2.5509,2.5509,2.5306,2.5172,2.5096,2.5096,2.5171,2.5303,2.5303,2.5303,2.5303,2.5303,2.5222,2.5107,2.5243,2.5303,2.5313,2.5451,2.5503,2.5499,2.5493,2.5498,2.551,2.5585,2.5598,2.5598,2.5598,2.5465,2.534,2.5532,2.5598,2.5598,2.5598,2.5601,2.5601,2.5601,2.5601,2.5598,2.5604,2.559,2.5606,2.5597,2.5595,2.5595,2.5605,2.5605,2.5604,2.5601,2.5593,2.5593,2.5593,2.5595,2.5604,2.5605,2.5599,2.5595,2.5589,2.5593,2.5598,2.5598,2.5598,2.5598,2.5598,2.5598,2.5598,2.5598,2.5598,2.5598,2.5598,2.5598,2.5598,2.5598,2.5598,2.5598,2.3671,2.3937,2.4134,2.4321,2.4445,2.4575,2.4814,2.4949,2.5061,2.5253,2.5313,2.5365,2.5473,2.6004,2.6848,2.8154,2.9333,3.0468,3.1601,3.2694,3.3079,3.2179,3.0728,2.9498,2.866,2.6758,2.5571,2.5576,2.5576,2.5576,2.5576,2.5517,2.5498,2.5499,2.55,2.5504,2.5504,2.5504,2.5495,2.5503,2.5438,2.5388,2.5369,2.5371,2.5391,2.5439,2.5486,2.5504,2.5504,2.5504,2.5447,2.5391,2.546,2.548,2.5446,2.5535,2.5576,2.5576,2.5576,2.558,2.5561,2.5598,2.5601,2.5605,2.5651,2.5586,2.5522,2.5574,2.5639,2.5676,2.5676,2.5668,2.5658,2.5619,2.5595,2.5592,2.5531,2.5577,2.5602,2.5598,2.5644,2.5662,2.568,2.5677,2.5652,2.5615,2.564,2.564,2.5612,2.5646,2.5675,2.5679,2.5661,2.5625,2.5533,2.5531,2.5535,2.5521,2.5527,2.5527,2.5527,2.5527,2.5527,2.5527,2.5525,2.5521,2.5521,2.5527,2.5567,2.5601,2.5601,2.5601,2.384,2.4057,2.4247,2.4412,2.453,2.4685,2.4861,2.5,2.5138,2.5264,2.5313,2.5378,2.5486,2.6217,2.7195,2.8388,2.9569,3.0825,3.222,3.2984,3.3203,3.2651,3.0296,2.8583,2.8239,2.6656,2.5636,2.5601,2.5601,2.5601,2.5601,2.5563,2.5539,2.5546,2.5549,2.5557,2.5499,2.5511,2.5503,2.5546,2.5503,2.5511,2.5538,2.554,2.5537,2.5537,2.5589,2.5601,0.0,2.5601,2.5585,2.5537,2.557,2.5565,2.5542,2.557,2.5601,2.5601,2.5639,2.5642,2.5645,2.5637,2.5646,2.5654,2.5681,2.5676,2.564,2.564,2.5675,2.5702,2.5702,2.5683,2.5659,2.56,2.5623,2.5625,2.5586,2.5604,2.5641,2.5642,2.5672,2.5693,2.5698,2.5696,2.5687,2.5613,2.5609,2.5601,2.557,2.5585,2.5585,2.5582,2.5598,2.5547,2.5476,2.552,2.5545,2.5542,2.5549,2.5537,2.5537,2.5537,2.5537,2.5537,2.5531,2.5538,2.5538,2.5545,2.5566,2.5602,2.5602,2.5602,0.0,2.4284,2.4517,2.4517,2.4613,2.4764,2.4888,2.5031,0.0,2.5274,2.539,2.5522,2.5642,2.6389,2.7032,2.7225,2.8578,2.9927,3.0933,3.2424,3.3371,3.3301,3.1055,2.9139,2.8211,2.6646,2.5661,2.5613,2.5609,2.5609,2.5609,2.5609,2.5606,2.5611,2.5665,2.5648,2.5527,2.5517,2.5537,2.5601,2.5537,2.5537,2.5601,2.5605,2.5605,2.5605,2.5609,2.5609,2.5609,2.5609,2.5609,2.5605,2.5609,2.5609,2.5605,2.5609,2.5609,2.5616,2.5683,2.5691,2.5694,2.5683,2.5698,2.5685,2.5685,2.5697,2.5683,2.5683,2.5698,2.5685,2.5685,2.5659,2.5593,2.5609,2.5659,2.5707,2.5689,2.5701,2.571,2.5696,2.5697,2.5699,2.5695,2.5695,2.5667,2.56,2.5531,2.5492,2.5485,2.5445,2.5412,2.5406,2.5387,2.539,2.5395,2.5507,2.558,2.558,2.5578,2.5585,2.5585,2.5585,2.5585,2.5565,2.5565,2.5589,2.5593,2.557,2.5574,2.5598,2.5598,2.5598,2.4476,0.0,2.4645,2.4645,2.4832,2.5012,0.0,2.516,2.5283,2.5361,2.5871,2.6534,2.728,2.8124,2.9175,3.0569,3.113,3.1932,3.3495,3.3531,3.3144,3.2478,3.0154,2.8259,2.7361,2.6326,2.5681,2.5681,2.568,2.568,2.568,2.568,2.5681,2.5683,2.5681,2.5675,2.5659,2.5644,2.5648,2.5601,2.557,2.557,2.5601,2.5648,2.5679,2.5681,2.5676,2.568,2.568,2.568,2.5675,2.5681,2.5676,2.5673,2.5681,2.5676,2.568,2.5681,2.5682,2.5703,2.5697,2.5637,2.5623,2.5616,2.5616,2.5619,2.5609,2.5622,2.5612,2.5619,2.5612,2.5615,2.5606,2.5593,2.5655,2.5687,2.5625,2.5664,2.5707,2.571,2.5703,2.5667,2.5551,2.5546,2.5517,2.5468,2.5422,2.5414,2.5429,2.541,2.5398,2.5406,2.5318,2.5301,2.539,2.5422,2.543,2.5371,2.5374,2.5365,2.5367,2.5365,2.5357,2.5302,2.5283,2.5343,2.5454,2.5394,2.5421,2.5517,2.5517,2.5517,2.4764,2.5013,2.5264,2.5359,2.5525,2.5707,2.57,2.5512,2.5476,2.5909,2.6342,2.6919,2.7829,2.9035,3.0211,3.1195,3.202,3.2888,3.3871,3.3283,3.2455,3.1601,2.959,2.793,2.7088,2.6209,2.5702,2.5703,2.5703,2.5703,2.57,2.5703,2.5703,2.57,2.5703,2.5703,2.5698,2.5701,2.5673,2.5646,2.5615,2.5615,2.5646,2.5676,2.5698,2.5699,2.5703,2.5703,2.57,2.57,2.5681,2.5662,2.5681,2.5702,2.5703,2.5702,2.57,2.5699,2.5654,2.5642,2.5648,2.5609,2.5585,2.5547,2.5547,2.5542,2.5566,2.558,2.5597,2.5605,2.5597,2.5593,2.5601,2.5595,2.5656,2.5691,2.5648,2.5671,2.5671,2.561,2.5605,2.5571,2.5467,2.5453,2.5432,2.541,2.5365,2.5359,2.536,2.5254,2.5175,2.5175,2.5046,2.4998,2.5069,2.5084,2.5126,2.5205,2.5214,2.5212,2.522,2.5273,2.5274,2.5243,2.5252,2.5284,2.5357,2.5293,2.5292,2.5348,2.5348,2.5348,2.508,2.5636,2.6178,2.6219,2.6429,2.6623,2.6638,2.6187,2.5986,2.6746,2.6996,2.7352,2.8241,2.9689,3.083,3.0965,3.2241,3.3245,3.3282,3.2565,3.1659,3.0712,2.9191,2.7848,2.6894,2.6131,2.5703,2.5684,2.5683,2.5681,2.5683,2.5677,2.5699,2.5707,2.57,2.5703,2.5703,2.5698,2.5698,2.5703,2.564,2.5659,2.5703,2.5703,2.5703,2.5703,2.5703,2.5698,2.5683,2.5683,2.5648,2.5605,2.5657,2.5683,2.5683,2.5685,2.5683,2.5679,2.5629,2.5598,2.5598,2.5593,2.5556,2.5486,2.5486,2.5486,2.5506,2.5546,2.5574,2.5561,2.5593,2.56,2.56,2.5605,2.5639,2.5667,2.5667,2.5663,2.5625,2.5517,2.5486,2.5467,2.5406,2.5371,2.5363,2.5337,2.5274,2.5233,2.5212,2.5019,2.4874,2.4874,2.4749,2.4676,2.4707,2.466,2.4727,2.4984,2.503,2.5037,2.5037,2.5138,2.5212,2.5203,2.5209,2.5198,2.5209,2.5126,2.5096,2.5107,2.5138,2.5118,2.5939,2.6772,2.7243,2.6562,2.7014,2.7661,2.7671,2.7595,2.7566,2.7768,2.8396,2.9168,3.0047,3.0984,3.1855,3.2599,3.3037,3.329,3.3301,3.2609,3.1491,2.9898,2.8867,2.7656,2.605,2.5778,2.5679,2.5625,2.5629,2.5616,2.5609,2.5616,2.5648,2.5707,2.5691,2.5698,2.5703,2.5703,2.5703,2.5703,2.5683,2.5683,2.5703,2.5703,2.5702,2.5691,2.5691,2.5679,2.5629,2.5629,2.5605,2.5601,2.5606,2.5626,2.5613,2.5629,2.5626,2.5605,2.5604,2.5595,2.5591,2.5604,2.5512,2.543,2.543,2.5426,2.5421,2.5426,2.543,2.5453,2.5576,2.5554,2.5525,2.56,2.5551,2.5535,2.5535,2.5493,2.5444,2.541,2.543,2.5387,2.5331,2.5313,2.5234,2.5012,2.4962,2.4929,2.4808,2.4749,2.4719,2.4719,2.4559,2.451,2.4692,2.4428,2.4338,2.4505,2.467,2.4764,2.4764,2.4719,2.4727,2.478,2.4746,2.4749,2.4795,2.4666,2.4636,2.4704,2.4804,2.4757,2.5658,2.6453,2.7127,2.7193,2.7901,2.8598,2.8647,2.829,2.8097,2.8607,2.9022,2.9563,3.0443,3.1671,3.2839,3.3755,3.3536,3.3096,3.2654,3.146,3.0178,2.894,2.8069,2.7059,2.5814,2.5699,2.5676,2.5618,2.5609,2.5609,2.5605,2.5609,2.5598,2.5598,2.5655,2.5696,2.5693,2.5629,2.5613,2.5659,2.5659,2.5655,2.5646,2.5652,2.565,2.5659,2.5685,2.5654,2.5601,2.5601,2.5604,2.5605,2.5605,2.5605,2.5604,2.5566,2.5515,2.5493,2.5493,2.5493,2.5499,2.5576,2.5511,2.5387,2.5387,2.5401,2.5406,2.5406,2.5401,2.5403,2.5479,2.5466,2.5452,2.5486,2.5479,2.5446,2.5446,2.5418,2.5398,2.5348,2.5359,2.5322,2.5261,2.5157,2.5043,2.4929,2.4832,2.4764,2.4707,2.461,2.4526,2.4526,2.4392,2.4339,2.441,2.4303,2.4266,2.4389,2.4493,2.4594,2.4692,2.4676,2.4673,2.4712,2.4623,2.4626,2.4651,2.4543,2.451,2.454,2.457,2.4519,2.5523,2.6102,2.6824,2.7701,2.8435,2.9052,2.9487,2.8917,2.8549,2.9418,2.9592,2.9805,3.0482,3.1863,3.32,3.4119,3.3505,3.2636,3.1831,3.0389,2.9044,2.8022,2.7312,2.6607,2.5789,2.5694,2.5668,2.559,2.5603,2.5598,2.5587,2.5586,2.5552,2.5507,2.5624,2.5691,2.5673,2.5584,2.557,2.5629,2.5607,2.5615,2.5616,2.5609,2.5612,2.5606,2.5657,2.5642,2.5604,2.5604,2.56,2.5607,2.5595,2.5604,2.5581,2.5512,2.5441,2.5404,2.541,2.5398,2.5426,2.5518,2.5471,2.5382,2.5382,2.5367,2.5341,2.5341,2.534,2.5357,2.5379,2.5398,2.5363,2.5363,2.5327,2.5301,2.5263,2.5255,2.5216,2.5171,2.5149,2.5145,2.5088,2.4966,2.4832,2.4785,2.47,2.461,2.4596,2.4444,2.4355,2.4355,2.4266,2.419,2.419,2.419,2.4247,2.4356,2.4355,2.4426,2.458,2.458,2.458,2.458,2.4528,2.4512,2.4512,2.4444,2.4392,2.4392,2.4373,2.4319,2.6275,2.6593,2.6901,2.7788,2.8039,2.8511,3.0047,2.9786,2.9457,3.0327,3.0501,3.052,3.0598,3.1359,3.2275,3.3157,3.2622,3.1812,3.0994,3.0078,2.887,2.7199,2.6988,2.6646,2.5784,2.5636,2.5609,2.56,2.5609,2.5568,2.5504,2.5504,2.5493,2.5496,2.5636,2.5678,2.5607,2.5666,2.5685,2.5687,2.5637,2.5637,2.5685,2.5685,2.5654,2.5601,2.5605,2.56,2.5607,2.5607,2.5607,2.5601,2.56,2.5591,2.5581,2.5439,2.5395,2.5398,2.5404,2.5395,2.5404,2.5406,2.5376,2.5313,2.5313,2.5252,2.5214,2.5214,2.5214,2.525,2.5374,2.5348,2.5284,2.5236,2.5118,2.4989,2.4873,2.4795,2.4749,2.4734,2.4734,2.4734,2.4738,2.4723,2.4657,2.4458,2.4424,2.4373,2.4247,2.4228,2.4209,2.4209,2.4209,2.419,2.419,2.419,2.419,2.4209,2.4209,2.4228,2.4228,2.4228,2.4228,2.4228,2.4228,2.4228,2.4228,2.4152,2.4113,2.4036,2.4229,2.4135,2.5736,2.6265,2.6919,2.7777,2.7999,2.8307,2.9477,2.9931,3.0192,3.052,3.0598,3.0762,3.1301,3.1712,3.2062,3.2409,3.1779,3.0964,3.0117,2.8773,2.7647,2.6985,2.6486,2.6061,2.5738,2.5683,2.5636,2.5591,2.56,2.5585,2.5562,2.5562,2.5574,2.5615,2.5673,2.5693,2.5664,2.5652,2.5656,2.5701,2.5636,2.5605,2.5643,2.564,2.5617,2.5604,2.5636,2.5652,2.5654,2.5654,2.5654,2.5649,2.5574,2.5537,2.5518,2.5329,2.5284,2.5284,2.5313,2.5341,2.5331,2.539,2.5348,2.5303,2.5303,2.5261,2.5191,2.5191,2.5191,2.5172,2.5107,2.5072,2.5012,2.4917,2.485,2.4795,2.4756,2.4734,2.4707,2.4707,2.4707,2.4707,2.4707,2.4594,2.4493,2.4407,2.4338,2.4266,2.4209,2.419,2.419,2.419,2.419,2.419,2.419,2.419,2.419,2.419,2.419,2.419,2.419,2.419,2.419,2.419,2.419,2.419,2.419,2.4113,2.4094,2.4074,2.4095,2.4312,2.536,2.583,2.6476,2.7372,2.7786,2.8201,2.9108,2.9766,3.0269,3.054,3.0598,3.079,3.1385,3.1542,3.1501,3.1242,3.0745,2.9981,2.8831,2.7647,2.6809,2.6556,2.605,2.5699,2.5699,2.5699,2.5675,2.5639,2.5639,2.563,2.5629,2.5629,2.5648,2.5707,2.5707,2.5698,2.5697,2.5659,2.5649,2.5699,2.566,2.5624,2.5629,2.563,2.5639,2.5639,2.5675,2.5699,2.5699,2.5643,2.563,2.5609,2.5506,2.5478,2.5437,2.5284,2.5233,2.5233,2.5262,2.5282,2.5273,2.5322,2.5303,2.5282,2.5282,2.5228,2.5191,2.5191,2.5191,2.5137,2.4942,2.4902,2.4861,2.4639,2.461,2.4594,2.4547,2.4547,2.4547,2.4547,2.4547,2.4547,2.4547,2.4426,2.4338,2.4338,2.4266,2.419,2.419,2.419,2.419,2.419,2.419,2.419,2.419,2.419,2.419,2.419,2.419,2.419,2.419,2.419,2.419,2.419,2.419,2.419,2.419,2.4151,2.4113,2.4112,2.433,2.4712,2.5393,2.5369,2.5544,2.6492,2.7315,2.8155,2.9099,2.9302,2.9553,3.0404,3.0598,3.0597,3.0574,3.0622,3.0413,2.9627,2.9479,2.887,2.7141,2.6887,2.6595,2.5796,2.5699,2.5699,2.5699,2.5699,2.5699,2.5699,2.5699,2.5699,2.5699,2.5699,2.5699,2.5699,2.5699,2.5699,2.5699,2.5699,2.5699,2.5699,2.5699,2.5699,2.5699,2.5699,2.5699,2.5699,2.5699,2.5699,2.5695,2.5546,2.546,2.5387,2.5406,2.5406,2.5398,2.5322,2.5303,2.5293,2.5225,2.5191,2.5191,2.5191,2.5191,2.5191,2.5191,2.5191,2.5191,2.5191,2.5191,2.5137,2.4942,2.4902,2.4814,2.4491,2.4407,2.4373,2.4228,2.419,2.419,2.419,2.419,2.419,2.419,2.419,2.419,2.419,2.419,2.419,2.419,2.419,2.419,2.419,2.419,2.419,2.419,2.419,2.419,2.419,2.419,2.419,2.419,2.419,2.419,2.419,2.419,2.419,2.419,2.419,2.417,2.4112,2.4977,2.5322,2.5283,2.5726,2.6429,2.7325,2.8232,2.8955,2.9244,2.9709,2.9967,2.962,2.9612,2.9519,2.8954,2.8897,2.8863,2.8616,2.8077,2.7491,2.6965,2.642,2.5972,2.5738,2.5699,2.5699,2.5699,2.5699,2.5699,2.5699,2.5699,2.5699,2.5699,2.5699,2.5699,2.5699,2.5699,2.5699,2.5699,2.5699,2.5699,2.5699,2.5699,2.5699,2.5699,2.5605,2.5571,2.5565,2.5499,2.5479,2.5499,2.5459,2.541,2.5406,2.5359,2.5331,2.5322,2.5261,2.5236,2.5236,2.5203,2.5191,2.5191,2.5191,2.5191,2.5191,2.5191,2.5191,2.5191,2.5191,2.5191,2.5137,2.4942,2.4902,2.4861,2.4673,2.461,2.4561,2.4373,2.4338,2.4302,2.4228,2.419,2.419,2.419,2.419,2.419,2.419,2.419,2.419,2.419,2.419,2.419,2.419,2.419,2.419,2.419,2.419,2.419,2.419,2.419,2.419,2.419,2.419,2.419,2.419,2.419,2.419,2.419,2.419,2.419,2.4189,2.5016,2.5674,2.5666,2.6147,2.6841,2.8033,2.8478,2.8623,2.8623,2.9051,2.9313,2.8811,2.8769,2.8671,2.8223,2.8164,2.8096,2.7736,2.7245,2.679,2.6478,2.6011,2.5699,2.5699,2.5699,2.5699,2.5699,2.5643,2.5639,2.5699,2.5644,2.5639,2.5695,2.5702,2.5702,2.5699,2.5699,2.5699,2.5699,2.5643,2.561,2.561,2.559,2.5579,2.5579,2.5529,2.5486,2.546,2.541,2.5371,2.5357,2.5357,2.5339,2.5322,2.5273,2.5271,2.5261,2.5214,2.5191,2.5191,2.5191,2.5191,2.5191,2.5191,2.5191,2.5191,2.5191,2.5191,2.5191,2.5191,2.5191,2.5168,2.5057,2.5025,2.4974,2.4749,2.4707,2.4642,2.4441,2.4389,2.4355,2.4228,2.419,2.419,2.419,2.419,2.419,2.419,2.419,2.419,2.419,2.419,2.419,2.419,2.419,2.4151,2.4054,2.4308,2.4449,2.4366,2.4635,2.4653,2.4384,2.4257,2.4151,2.4036,2.4036,2.3996,2.3896,2.3896,2.4039,2.4384,2.5183,2.5982,2.6322,2.6518,2.6895,2.8561,2.83,2.7599,2.7523,2.7629,2.7793,2.7923,2.7978,2.7976,2.7968,2.7954,2.7687,2.6894,2.6777,2.6505,2.5784,2.5667,2.5667,2.5667,2.5667,2.5667,2.5667,2.5565,2.5535,2.5663,2.559,2.555,2.5663,2.5662,2.5657,2.5667,2.5667,2.5667,2.5667,2.554,2.5492,2.5492,2.5425,2.5406,2.5379,2.5453,2.5446,2.539,2.539,2.5359,2.5293,2.5293,2.5261,2.5191,2.5191,2.5191,2.5191,2.5191,2.5191,2.5191,2.5191,2.5191,2.5191,2.5191,2.5191,2.5203,2.5203,2.5203,2.5203,2.5203,2.5203,2.5203,2.5203,2.5195,2.513,2.4794,2.4753,2.4689,2.4491,2.4441,2.4391,2.4247,2.4209,2.4209,2.4209,2.4209,2.419,2.419,2.419,2.419,2.419,2.419,2.419,2.417,2.417,2.4072,2.3904,2.449,2.4833,2.4712,2.5269,2.5323,2.4724,2.4399,2.4107,2.3774,2.3756,2.3685,2.3499,2.3499,2.3927,2.4724,2.5551,2.6257,2.6085,2.6308,2.6759,2.8477,2.8332,2.757,2.6891,2.6292,2.6054,2.6708,2.6964,2.6889,2.6276,2.6115,2.6021,2.5832,2.5751,2.566,2.5478,2.5459,2.5459,2.5459,2.5459,2.5459,2.5459,2.5444,2.5464,2.5536,2.5611,2.5604,2.5459,2.5367,2.5328,2.5381,2.5381,2.5401,2.5459,2.5444,2.5418,2.5418,2.5422,2.5374,2.5322,2.534,2.5303,2.525,2.525,2.5228,2.5225,2.5225,2.5214,2.5191,2.5191,2.5191,2.5191,2.5191,2.5191,2.5191,2.5191,2.5203,2.5206,2.5206,2.5198,2.519,2.519,2.519,2.519,2.519,2.519,2.519,2.519,2.5201,2.5168,2.4981,2.5019,2.5056,2.4907,2.479,2.4651,2.4474,2.4356,2.4284,2.4284,2.4229,2.4191,2.419,2.4209,2.4191,2.419,2.419,2.4113,2.3917,2.3896,2.4028,2.4413,2.4563,2.4879,2.543,2.508,2.5045,2.5447,2.4855,2.4185,2.35,2.35,2.3759,2.4331,2.4331,2.4724,2.5483,2.6284,2.6747,2.6072,2.6593,2.7147,2.8041,2.7675,2.6866,2.6018,2.5512,2.5335,2.5791,2.6014,2.5998,2.557,2.5486,2.5453,2.5453,2.5418,2.5387,2.5387,2.5387,2.5387,2.5387,2.5387,2.5387,2.5387,2.5374,2.5365,2.5406,2.5436,2.5398,2.531,2.5269,2.5269,2.529,2.5329,2.5348,2.5387,2.5365,2.5348,2.5348,2.5322,2.5293,2.525,2.525,2.5228,2.5191,2.5191,2.5191,2.5191,2.5191,2.5191,2.5191,2.5191,2.5191,2.5191,2.5191,2.5191,2.5191,2.5203,2.5195,2.5198,2.5209,2.5201,2.5192,2.5192,2.5192,2.5192,2.5192,2.5192,2.5192,2.5192,2.5222,2.522,2.5031,2.5056,2.5043,2.4837,2.4749,2.4639,2.4442,2.4338,2.4284,2.4284,2.4266,2.4247,2.4191,2.421,2.4339,2.4723,2.4759,2.4866,2.5111,2.5145,2.5139,2.5165,2.5508,2.5754,2.5893,2.5883,2.5883,2.5883,2.5515,2.5015,2.4332,2.3961,2.4123,2.4787,2.4787,2.5191,2.59,2.6304,2.6736,2.6123,2.7071,2.7815,2.7818,2.7157,2.63,2.5514,2.5215,2.513,2.5192,2.5303,2.5395,2.5398,2.5398,2.539,2.539,2.5374,2.5365,2.5365,2.5365,2.5365,2.5365,2.5365,2.5365,2.5365,2.5313,2.5274,2.528,2.5233,2.5192,2.5202,2.5255,2.5284,2.5288,2.5346,2.5365,2.5365,2.5303,2.5283,2.5283,2.5236,2.5191,2.5191,2.5191,2.5191,2.5191,2.5191,2.5191,2.5191,2.5191,2.5191,2.5191,2.5191,2.5191,2.5191,2.5191,2.5191,2.5203,2.5206,2.5217,2.5228,2.5212,2.5222,2.5222,2.5222,2.5222,2.5222,2.5222,2.5222,2.5222,2.5222,2.5252,2.522,2.5019,2.4968,2.4888,2.4692,2.4629,2.4564,2.4393,2.4339,2.4339,2.4321,2.4339,2.4303,2.4229,2.4229,2.4523,2.5312,2.5423,2.5715,2.646,2.6551,2.639,2.6047,2.656,2.68,2.6474,2.6966,2.7018,2.645,2.616,2.5889,2.5715,2.4812,2.4624,2.5195,2.5195,2.5574,2.6316,2.6316,2.6661,2.6018,2.7405,2.8631,2.8641,2.8022,2.7229,2.641,2.569,2.5191,2.5203,2.5252,2.5331,2.5398,2.5348,2.5303,2.5303,2.5252,2.5236,2.5236,2.5236,2.5236,2.5236,2.5236,2.5236,2.5236,2.5225,2.5214,2.5217,2.5214,2.5203,2.5198,2.5206,2.5206,2.5217,2.5217,2.5236,2.5236,2.5225,2.5214,2.5214,2.5203,2.5191,2.5191,2.5191,2.5191,2.5191,2.5191,2.5191,2.5191,2.5191,2.5191,2.5191,2.5191,2.5191,2.5191,2.5191,2.5203,2.5206,2.5187,2.5239,2.5282,2.5282,2.5302,2.5293,2.5293,2.5293,2.5293,2.5293,2.5293,2.5293,2.5293,2.5212,2.5091,2.4955,2.4818,2.4749,2.4842,2.4768,2.4676,2.466,2.4566,2.4446,2.4394,2.4429,2.4429,2.4321,2.4339,2.4635,2.5392,2.5482,2.5715,2.6297,2.6281,2.641,2.6823,2.6915,2.7228,2.7796,2.7344,2.729,2.7814,2.6337,2.6076,2.735,2.5744,2.5241,2.5954,2.5954,2.6368,2.7144,2.7144,2.7195,2.6635,2.7214,2.7674,2.8621,2.8254,2.7561,2.7211,2.6479,2.5879,2.5879,2.5532,2.5261,2.5283,2.5252,2.5239,2.5239,2.5225,2.5191,2.5191,2.5191,2.5191,2.5191,2.5191,2.5191,2.5191,2.5191,2.5191,2.5191,2.5191,2.5191,2.5191,2.5191,2.5191,2.5191,2.5191,2.5191,2.5191,2.5191,2.5191,2.5191,2.5191,2.5191,2.5191,2.5191,2.5191,2.5191,2.5191,2.5191,2.5191,2.5191,2.5191,2.5191,2.5203,2.5195,2.5195,2.5187,2.5209,2.522,2.5231,2.5271,2.5292,2.5302,2.5293,2.5303,2.5303,2.5303,2.5303,2.5303,2.5303,2.5274,2.5222,2.5149,2.5056,2.4832,2.4734,2.4692,2.4695,2.4631,2.4582,2.4582,2.4532,2.4482,2.4465,2.4482,2.4465,2.4358,2.4394,2.482,2.602,2.6164,2.6599,2.7765,2.7803,2.7791,2.789,2.79,2.7949,2.8084,2.7808,2.7772,2.8084,2.7334,2.7161,2.7683,2.6341,2.6006,2.6764,2.6764,2.6954,2.7299,2.7299,2.7299,2.6866,2.6835,2.6778,2.8477,2.828,2.7727,2.795,2.7338,2.6657,2.6403,2.5857,2.538,2.5114,2.5144,2.518,2.5125,2.5125,2.5113,2.5076,2.5076,2.5076,2.5076,2.5101,2.5125,2.5125,2.5168,2.5191,2.5191,2.5191,2.5191,2.5191,2.5191,2.5191,2.5191,2.5191,2.5191,2.5191,2.5191,2.5191,2.5191,2.5191,2.5191,2.5191,2.5191,2.5191,2.5191,2.5191,2.5191,2.5191,2.5203,2.5203,2.5203,2.5187,2.5198,2.5209,2.5201,2.5212,2.5222,2.5282,2.5292,2.5302,2.5303,2.5303,2.5303,2.5303,2.5303,2.5303,2.5303,2.5293,2.5233,2.5138,2.5037,2.4955,2.4749,2.4676,2.4613,2.4534,2.45,2.4555,2.4778,2.4797,2.4871,2.5076,2.5113,2.5095,2.5041,2.5041,2.5523,2.6873,2.7034,2.7564,2.8964,2.9085,2.8929,2.8718,2.8694,2.8583,2.836,2.8334,2.8334,2.8334,2.8183,2.7992,2.78,2.6892,2.6695,2.7299,2.7299,2.7299,2.7299,2.7299,2.7299,2.6142,2.6338,2.6732,2.8469,2.824,2.7815,2.8662,2.8204,2.7357,2.6403,2.6167,2.5859,2.4885,2.4999,2.5137,2.4961,2.4915,2.4861,2.4734,2.4723,2.4723,2.4723,2.4851,2.4915,2.4915,2.5101,2.5191,2.5191,2.5191,2.5191,2.5191,2.5191,2.5191,2.5191,2.5191,2.5191,2.5191,2.5191,2.5191,2.5191,2.5191,2.5191,2.5191,2.5191,2.5191,2.5191,2.5191,2.5191,2.5191,2.5195,2.5187,2.5198,2.5201,2.5212,2.5212,2.5192,2.5252,2.5311,2.5311,2.5302,2.5303,2.5303,2.5303,2.5303,2.5303,2.5303,2.5303,2.5303,2.5222,2.5115,2.5096,2.4915,2.4723,2.4707,2.4615,2.4517,2.45,2.45,2.4723,2.5485,2.5652,2.5875,2.6656,2.6786,2.6786,2.6767,2.6767,2.7064,2.7919,2.797,2.8241,2.9107,2.9134,2.9044,2.8994,2.8994,2.8952,2.8952,2.8952,2.8952,2.8952,2.8412,2.8102,2.8075,2.7535,2.7247,2.7299,2.7299,2.7299,2.7299,2.7299,2.7299,2.6155,2.6352,2.6619,2.7676,2.8193,2.8455,2.8563,2.8423,2.7983,2.6978,2.6365,2.5747,2.4858,2.4798,2.4856,2.4779,2.4779,2.4749,2.4707,2.4707,2.4707,2.4707,2.4734,2.4779,2.4779,2.4921,2.5057,2.5184,2.5201,2.5191,2.5191,2.5191,2.5191,2.5191,2.5191,2.5191,2.5191,2.5191,2.5191,2.5191,2.5191,2.5191,2.5191,2.5191,2.5203,2.5195,2.5195,2.5195,2.5195,2.5209,2.5201,2.5201,2.5241,2.5252,2.5262,2.5253,2.5283,2.5293,2.5293,2.5303,2.5303,2.5303,2.5303,2.5303,2.5303,2.5243,2.5171,2.5171,2.508,2.4936,2.4861,2.4779,2.4676,2.4599,2.4532,2.45,2.45,2.4908,2.5355,2.5652,2.6117,2.6563,2.686,2.6916,2.6916,2.6916,2.6916,2.7176,2.7953,2.8022,2.8292,2.906,2.891,2.8767,2.8743,2.8558,2.8412,2.8412,2.8412,2.8412,2.8412,2.821,2.802,2.784,2.7642,2.7465,2.7299,2.7299,2.7299,2.7299,2.7299,2.7299,2.5848,2.5945,2.6181,2.7129,2.7666,2.8103,2.8681,2.8661,2.8261,2.7228,2.6612,2.5886,2.4752,2.453,2.4547,2.4594,2.461,2.4578,2.4547,2.453,2.453,2.453,2.4561,2.461,2.4629,2.4768,2.4974,2.5181,2.5197,2.5201,2.521,2.5191,2.5191,2.5191,2.5191,2.5191,2.5191,2.5191,2.5191,2.5191,2.5191,2.5191,2.5191,2.5203,2.5195,2.5198,2.5209,2.5209,2.5209,2.5212,2.5222,2.5252,2.5273,2.5302,2.5302,2.5303,2.5303,2.5303,2.5303,2.5303,2.5303,2.5303,2.5303,2.5284,2.5243,2.5171,2.5084,2.5056,2.4942,2.4804,2.4719,2.466,2.4615,2.4534,2.45,2.45,2.45,2.4927,2.5466,2.6005,2.6544,2.7083,2.7641,2.7752,2.7752,2.7752,2.7752,2.7919,2.8417,2.8344,2.8437,2.8906,2.8658,2.8456,2.843,2.821,2.8102,2.8102,2.8102,2.8102,2.8102,2.802,2.7869,2.7683,2.763,2.7465,2.7299,2.7299,2.7299,2.7299,2.7299,2.7299,0.0,0.0,0.0,2.6881,2.6662,2.6688,2.8968,2.8875,2.8069,2.7065,2.686,2.6302,2.4522,2.419,2.4247,2.4373,2.4389,2.4338,2.4228,2.419,2.419,2.419,2.4302,2.4426,2.4464,2.4669,2.4881,2.5148,2.52,2.5196,2.5199,2.521,2.5191,2.5191,2.5191,2.5191,2.5191,2.5191,2.5191,2.5191,2.5191,2.5191,2.5191,2.5195,2.5198,2.5217,2.5271,2.5252,2.5212,2.5262,2.5292,2.5292,2.5293,2.5303,2.5303,2.5303,2.5303,2.5303,2.5303,2.5303,2.5303,2.5303,2.5303,2.5264,2.5149,2.5103,2.508,2.4942,2.4808,2.4692,2.4692,2.4599,2.45,2.45,2.45,2.45,2.45,2.45,2.4964,2.6563,2.6916,2.7455,2.9054,2.937,2.9388,2.937,2.9388,2.9407,2.9386,2.9034,2.8766,2.87,2.8376,2.8156,2.8102,2.8075,2.8075,2.8075,2.8075,2.8075,2.8075,2.7829,2.7701,2.7701,2.7421,2.7299,2.7299,2.7299,2.7299,2.7299,2.7299,2.7299,2.5264,0.0,0.0,0.0,0.0,0.0,2.6507,2.6953,2.7028,2.602,2.5815,2.5482,2.4411,2.419,2.4209,2.4247,2.4266,2.4247,2.4209,2.419,2.419,2.419,2.4228,2.4266,2.4284,2.4336,2.44,2.4484,2.4929,2.521,2.5196,2.5201,2.5191,2.5191,2.5191,2.5191,2.5191,2.5191,2.5191,2.5191,2.5191,2.5203,2.5206,2.5206,2.5228,2.5271,2.5282,2.5292,2.5264,2.5293,2.5293,2.5293,2.5303,2.5303,2.5303,2.5303,2.5303,2.5303,2.5303,2.5303,2.5303,2.5303,2.5303,2.5264,2.5149,2.5024,2.4929,2.4794,2.466,2.4568,2.4568,2.4534,2.45,2.45,2.45,2.45,2.45,2.45,2.4797,2.5838,2.6972,2.7734,2.7622,2.8608,2.9202,2.8552,2.8998,2.9265,2.8948,2.8814,2.8603,2.8298,2.7992,2.7829,2.7829,2.7612,2.7526,2.7526,2.7526,2.7526,2.7526,2.7434,2.7421,2.7421,2.7345,2.7299,2.7299,2.7299,2.7299,2.7299,2.7299,2.7299,2.5409,2.5499,2.5628,2.5347,0.0,0.0,2.6024,2.6189,2.6152,2.5573,2.5441,2.5184,2.4337,2.419,2.419,2.419,2.419,2.419,2.419,2.419,2.419,2.419,2.419,2.419,2.419,2.4192,2.4209,2.4205,2.4547,2.4892,2.52,2.5196,2.5191,2.5191,2.5191,2.5191,2.5191,2.5191,2.5191,2.5191,2.5203,2.5195,2.5198,2.5239,2.5261,2.5292,2.5302,2.5293,2.5303,2.5303,2.5303,2.5303,2.5303,2.5303,2.5303,2.5303,2.5303,2.5303,2.5303,2.5303,2.5303,2.5243,2.5222,2.5171,2.4994,2.4874,2.4794,2.466,2.4549,2.45,2.45,2.45,2.45,2.45,2.45,2.45,2.45,2.45,2.4834,2.5987,2.6972,2.7678,2.7901,2.8756,2.924,2.8719,2.9072,2.9265,2.892,2.8652,2.8428,2.8102,2.7742,2.7509,2.7509,2.7407,2.7299,2.7299,2.7299,2.7299,2.7299,2.7299,2.7299,2.7299,2.7299,2.7299,2.7299,2.7299,2.7299,2.7299,2.7299,2.7299,2.5803,2.6,2.6371,2.6167,2.6088,0.0,2.6543,2.606,2.5501,2.537,2.5352,2.5111,2.4356,2.419,2.419,2.419,2.419,2.419,2.419,2.419,2.419,2.419,2.419,2.419,2.419,2.419,2.421,2.4207,2.4205,2.4484,2.5172,2.5203,2.5199,2.5191,2.5191,2.5191,2.5191,2.5191,2.5191,2.5191,2.5206,2.5198,2.5198,2.5271,2.5292,2.5292,2.5293,2.5303,2.5303,2.5303,2.5303,2.5303,2.5303,2.5303,2.5303,2.5303,2.5303,2.5303,2.5303,2.5303,2.5253,2.5138,2.5084,2.5024,2.4779,2.4707,2.4676,2.4551,2.45,2.45,2.45,2.45,2.45,2.45,2.45,2.45,2.45,2.45,2.4983,2.66,2.6916,2.7381,2.8868,2.9256,2.9328,2.9235,2.9291,2.9262,2.9044,2.8565,2.8166,2.7954,2.7557,2.733,2.7313,2.733,2.733,2.7313,2.733,2.7299,2.7299,2.7299,2.7299,2.7299,2.7299,2.7299,2.7299,2.725,2.7282,2.7313,2.7282,2.7282,2.7348,2.6978,2.6439,2.6241,2.665,0.0,2.5237,2.5281,2.5431,2.4615,2.4448,2.4411,2.4226,2.419,2.419,2.419,2.419,2.419,2.419,2.419,2.419,2.419,2.419,2.419,2.419,2.419,2.4209,2.421,2.4209,2.4491,2.5163,2.521,2.5197,2.521,2.5191,2.5191,2.5191,2.5195,2.5206,2.5206,2.519,2.5231,2.5271,2.5282,2.5302,2.5303,2.5303,2.5303,2.5303,2.5303,2.5303,2.5303,2.5303,2.5303,2.5303,2.5303,2.5303,2.5303,2.5303,2.5233,2.5138,2.5115,2.5043,2.4915,2.4749,2.4707,2.4676,2.4551,2.45,2.45,2.45,2.45,2.45,2.45,2.45,2.45,2.45,2.45,2.4983,2.66,2.6916,2.7009,2.7344,2.8373,2.8913,2.8212,2.8562,2.8815,2.851,2.8219,2.7926,2.763,2.7421,2.7345,2.7434,2.7376,2.7345,2.7434,2.7376,2.7299,2.7299,2.7299,2.7299,2.7299,2.7299,2.7299,2.7299,2.7023,2.7103,2.7452,2.7247,2.7166,2.8066,2.7941,2.7676,2.7139,2.7203,0.0,0.0,2.5209,2.4963,2.4467,2.4266,2.419,2.419,2.419,2.419,2.419,2.419,2.419,2.419,2.419,2.4355,2.474,2.4925,2.4776,2.4253,2.4198,2.42,2.4205,2.4211,2.4353,2.4673,2.4922,2.5056,2.5044,2.5156,2.5203,2.5195,2.5206,2.5198,2.519,2.5241,2.5282,2.5311,2.5302,2.5293,2.5303,2.5303,2.5303,2.5303,2.5303,2.5303,2.5284,2.5233,2.5243,2.5274,2.5149,2.5138,2.5182,2.5126,2.5068,2.4987,2.4929,2.4847,2.4779,2.4645,2.4599,2.4582,2.4517,2.45,2.45,2.45,2.45,2.45,2.45,2.45,2.45,2.45,2.45,2.4835,2.593,2.6484,2.7021,2.7853,2.8187,2.8352,2.8292,2.8589,2.87,2.8414,2.8237,2.8045,2.7795,2.7587,2.7526,2.76,2.7465,2.7421,2.7496,2.7359,2.7299,2.7299,2.7299,2.7313,2.739,2.7483,2.7496,2.7496,2.7195,2.7195,2.7496,2.7261,2.7181,2.8288,2.836,2.8482,2.7738,2.7503,2.7219,0.0,0.0,0.0,2.453,2.4338,2.4229,2.4209,2.419,2.419,2.419,2.419,2.419,2.419,2.419,2.4428,2.509,2.5719,2.5733,2.4759,2.4944,2.5113,2.5122,2.4561,2.4357,2.4685,2.5118,2.5308,2.5162,2.5354,2.5367,2.5198,2.5209,2.522,2.5222,2.5262,2.5292,2.5302,2.5293,2.5303,2.5303,2.5303,2.5303,2.5303,2.5303,2.5274,2.5253,2.5149,2.5171,2.5233,2.4994,2.4981,2.5056,2.4942,2.4888,2.4832,2.4753,2.4676,2.4629,2.4515,2.45,2.45,2.45,2.45,2.45,2.45,2.45,2.45,2.45,2.45,2.45,2.45,2.4576,2.4856,2.5519,2.6101,2.6995,2.8548,2.8228,2.8002,2.8634,2.8718,2.8619,2.844,2.8282,2.8119,2.7968,2.7748,2.7612,2.7672,2.7539,2.7465,2.7496,2.739,2.7313,2.7299,2.7313,2.739,2.7557,2.7642,2.7701,2.7701,2.7535,2.7474,2.7587,2.7369,2.7258,2.8139,2.7602,2.6982,2.6718,2.7204,2.729,2.5462,0.0,2.5695,2.4623,0.0,2.4338,2.4228,0.0,0.0,2.419,2.419,2.419,2.419,2.419,2.4226,2.4318,2.6056,2.6982,2.6385,2.7616,2.8437,2.8454,2.5801,2.4871,2.6413,2.6851,2.6757,2.6146,2.6281,2.5979,2.5212,2.5271,2.5282,2.5282,2.5293,2.5303,2.5303,2.5303,2.5303,2.5303,2.5303,2.5303,2.5303,2.5303,2.5233,2.5126,2.5115,2.5115,2.5096,2.4968,2.4915,2.4929,2.4915,2.4818,2.4723,2.4707,2.4631,2.4517,2.45,2.45,2.45,2.45,2.45,2.45,2.45,2.45,2.45,2.45,2.45,2.45,2.45,2.4912,2.5536,2.6307,2.6289,2.6493,2.7575,2.8106,2.841,2.8525,2.838,2.8264,2.8237,2.795,2.776,2.773,2.7496,2.739,2.7526,2.739,2.7376,2.7496,2.7496,2.7421,2.7282,2.7421,2.7539,2.7672,2.7701,2.7701,2.7701,2.7836,2.794,2.794,2.7589,2.753,2.817,2.7859,2.7537,2.7439,2.7284,2.693,2.6033,2.5652,2.5348,2.4798,0.0,0.0,0.0,0.0,0.0,0.0,2.4247,2.419,2.419,2.419,2.4373,2.4832,2.5831,2.6868,2.7885,2.8593,2.8225,2.6373,2.6842,2.7713,2.8825,2.8141,2.7489,2.7018,2.7165,2.7083,2.6702,2.6271,2.6051,2.6042,2.5534,2.5303,2.5303,2.5303,2.5303,2.5303,2.5222,2.5182,2.5171,2.5103,2.5024,2.4981,2.4902,2.4915,2.4968,2.4749,2.4719,2.4779,2.4689,2.4629,2.4582,2.4582,2.4551,2.45,2.45,2.45,2.45,2.45,2.45,2.45,2.45,2.45,2.45,2.45,2.45,2.463,2.5094,2.53,2.5605,2.6329,2.6654,2.6898,2.7204,2.7471,2.7789,2.8273,2.8264,2.8182,2.8182,2.7996,2.7864,2.7864,2.7659,2.7539,2.763,2.7496,2.7465,2.76,2.763,2.76,2.7539,2.7707,2.7824,2.7864,2.7968,2.7996,2.7996,2.8053,2.8126,2.8099,2.7771,2.7654,2.7573,2.7483,2.7426,2.7408,2.6883,2.6351,2.6217,2.562,2.5083,2.4968,2.4869,0.0,0.0,0.0,2.4493,2.4493,0.0,2.4266,2.4266,2.4228,2.441,2.5017,2.5256,2.6307,2.8756,2.9074,2.774,2.445,2.7604,2.9897,3.0364,2.9284,2.8427,2.7897,2.8051,2.8057,2.783,2.7253,2.683,2.6601,2.5967,2.5534,2.5303,2.5303,2.5274,2.5243,2.5149,2.5072,2.5043,2.4942,2.4874,2.4851,2.4734,2.4734,2.4779,2.4582,2.4566,2.4629,2.4515,2.45,2.45,2.45,2.45,2.45,2.45,2.45,2.45,2.45,2.45,2.45,2.45,2.45,2.45,2.45,2.45,2.4705,2.5449,2.5629,2.5832,2.6522,2.7127,2.751,2.7344,2.7335,2.7531,2.8093,2.8182,2.8182,2.8182,2.8025,2.794,2.7996,2.7748,2.763,2.7701,2.7569,2.7569,2.776,2.773,2.773,2.7818,2.794,2.8014,2.8071,2.8154,2.8182,2.8182,2.8182,2.8182,2.8182,2.795,2.7836,2.5991,2.5777,2.5745,2.5613,2.5556,2.5518,2.5441,2.5406,2.5318,2.5124,2.5038,2.4924,2.4756,2.4685,2.4692,2.4692,2.4526,0.0,0.0,2.4284,2.4208,2.4245,2.424,2.5491,2.8688,2.9221,2.7937,2.445,2.8022,3.0383,3.0408,3.0335,2.9876,2.8891,2.8994,2.8679,2.789,2.7871,2.7428,2.6601,2.6563,2.612,2.5303,2.5303,2.5233,2.5115,2.5096,2.5043,2.4915,2.4902,2.4818,2.4707,2.4707,2.4613,2.4517,2.45,2.45,2.45,2.45,2.45,2.45,2.45,2.45,2.45,2.45,2.45,2.45,2.45,2.45,2.45,2.45,2.45,2.45,2.45,2.45,2.467,2.5279,2.5868,2.6472,2.7139,2.7771,2.8174,2.8146,2.8146,2.8164,2.8182,2.8182,2.8182,2.8182,2.7922,2.7789,2.7968,2.7574,2.7421,2.7672,2.7569,2.7647,2.7968,2.7806,2.7864,2.8182,2.8071,2.8071,2.8182,2.8182,2.8182,2.8182,2.8182,2.8182,2.8182,2.8182,2.8182,2.5769,2.5699,2.5679,2.5648,2.5632,2.5601,2.5493,2.5477,2.5434,2.5313,2.5281,2.5236,2.5116,2.4991,2.4885,2.4893,2.4734,2.461,0.0,2.4369,2.421,2.4209,2.4186,2.4627,2.572,2.5894,2.5465,2.429,2.8044,3.039,3.0387,3.0407,3.0227,2.9896,2.9944,2.9833,2.9563,2.8986,2.8275,2.7467,2.7467,2.6697,2.5322,2.637,2.6484,2.59,2.6271,2.6396,2.6352,2.6253,2.5886,2.5368,2.5368,2.5016,2.45,2.45,2.45,2.45,2.45,2.45,2.45,2.45,2.45,2.45,2.45,2.45,2.45,2.45,2.45,2.45,2.45,2.45,2.463,2.5169,2.5299,2.5634,2.6913,2.7251,2.7523,2.8338,2.8438,2.8406,2.8406,2.8291,2.8182,2.8182,2.8182,2.8182,2.8182,2.8025,2.794,2.7996,2.7736,2.76,2.7701,2.7777,2.7882,2.7996,2.8025,2.8081,2.82,2.8154,2.8154,2.8182,2.8182,2.8182,2.8182,2.8182,2.8182,2.8182,2.795,2.7864,2.5704,2.5707,2.5703,2.5704,2.5707,2.5684,2.5593,2.557,2.5554,2.5471,2.546,2.542,2.5318,2.5207,2.5124,2.5082,2.4915,2.4785,0.0,2.4463,2.4275,2.421,2.4191,2.4227,2.4303,2.4317,2.4393,2.4576,2.8193,3.0938,3.2146,3.1448,3.0975,3.0871,3.0871,3.0717,3.0398,2.9833,2.914,2.8332,2.8332,2.7582,2.6264,2.7185,2.7268,2.67,2.6984,2.706,2.7026,2.6935,2.6433,2.5708,2.5708,2.5206,2.45,2.45,2.45,2.45,2.45,2.45,2.4555,2.4834,2.4927,2.4983,2.528,2.5355,2.5355,2.5355,2.5355,2.5355,2.5355,2.5355,2.5485,2.6005,2.6135,2.647,2.7709,2.7883,2.8055,2.8856,2.8791,2.8619,2.8619,2.8458,2.8291,2.8209,2.8182,2.8182,2.8182,2.8099,2.8014,2.8071,2.7864,2.773,2.7806,2.7968,2.8071,2.8071,2.8154,2.8182,2.8182,2.8182,2.8182,2.8182,2.8182,2.8182,2.8182,2.8182,2.8182,2.8182,2.7864,2.7642]}]]